Date StartTime U_cm/s V_cm/s W_cm/s Ustd_cm/s Vstd_cm/s Wstd_cm/s Uvar_(cm/s)^2 Vvar_(cm/s)^2 Wvar_(cm/s)^2 KE_(m/s)^2 TurbulentKE_(m/s)^2 HorizWindSpeed_cm/s FrictionSpeec_cm/s DragCoef SpeedOfSound_m/s SonicTemperature_C Pressure_mb 
06/10/2013  00:00:00      -44.857      -25.973       -1.728       22.668       12.634        9.177      513.826      159.612       84.213        0.172        0.038       51.834        3.630        0.005      345.791       23.572      857.284
06/10/2013  00:01:00      -50.241       -4.165        1.589       31.890       31.268       13.032     1016.966      977.664      169.842        0.235        0.108       50.413       14.641        0.084      345.781       23.556      857.280
06/10/2013  00:02:00      -75.564       21.498       -5.060       26.440       20.931       15.421      699.085      438.113      237.821        0.379        0.069       78.563       10.068        0.016      345.492       23.061      857.270
06/10/2013  00:03:00     -113.841        5.716       -5.585       28.328       26.597       17.152      802.463      707.426      294.178        0.741        0.090      113.984       10.026        0.008      345.532       23.130      857.254
06/10/2013  00:04:00      -70.052      -24.250        4.513       25.543       17.113       14.086      652.461      292.866      198.424        0.333        0.057       74.131       13.955        0.035      345.529       23.124      857.226
06/10/2013  00:05:00      -55.692       23.235        2.213       25.111       21.035       18.529      630.587      442.458      343.334        0.253        0.071       60.344       13.447        0.050      345.421       22.939      857.194
06/10/2013  00:06:00      -42.854       10.940        3.043       19.162       19.864       10.073      367.187      394.562      101.471        0.141        0.043       44.228        9.075        0.042      345.548       23.156      857.165
06/10/2013  00:07:00      -58.461      -36.460        0.722       21.813       16.286       13.837      475.787      265.237      191.476        0.284        0.047       68.899        9.669        0.020      345.682       23.386      857.138
06/10/2013  00:08:00      -75.547       26.842       -9.502       25.790       36.082       16.951      665.148     1301.941      287.343        0.439        0.113       80.174       19.221        0.057      345.379       22.866      857.132
06/10/2013  00:09:00      -63.277       58.405      -11.483       29.230       32.812       21.726      854.368     1076.652      472.000        0.497        0.120       86.111       23.145        0.072      345.282       22.700      857.114
06/10/2013  00:10:00      -36.803       49.519       -6.721       14.318       21.809       14.002      204.999      475.613      196.059        0.236        0.044       61.698        8.478        0.019      345.311       22.751      857.091
06/10/2013  00:11:00       -3.805       21.280        2.859       13.190       11.331        9.108      173.974      128.390       82.961        0.043        0.019       21.617        7.476        0.120      345.330       22.783      857.083
06/10/2013  00:12:00       45.025       41.189       13.590       19.446       19.142       14.054      378.161      366.408      197.521        0.243        0.047       61.023       13.068        0.046      345.228       22.609      857.074
06/10/2013  00:13:00       35.597       36.017       26.902       30.855       16.265       12.835      952.012      264.565      164.744        0.233        0.069       50.639        8.676        0.029      345.178       22.523      857.081
06/10/2013  00:14:00       55.590       39.256       22.706       29.592       29.232       21.655      875.677      854.530      468.955        0.367        0.110       68.054       19.741        0.084      345.152       22.478      857.072
06/10/2013  00:15:00      106.667       48.900       20.095       30.429       24.327       20.712      925.921      591.791      428.995        0.806        0.097      117.342       15.653        0.018      345.178       22.520      857.065
06/10/2013  00:16:00       21.085       49.879       45.784       34.496       36.409       25.943     1189.977     1325.632      673.054        0.411        0.159       54.152       15.176        0.079      345.180       22.525      857.065
06/10/2013  00:17:00      -14.070      -27.594        2.230       12.552       18.108       11.225      157.548      327.907      126.011        0.079        0.031       30.974       10.707        0.119      345.154       22.482      857.077
06/10/2013  00:18:00       -5.547      -63.954       -5.378       12.864       15.580       13.100      165.481      242.744      171.622        0.236        0.029       64.194        5.447        0.007      345.310       22.748      857.096
06/10/2013  00:19:00       16.752      -22.377       12.880       25.503       45.756       24.833      650.401     2093.594      616.672        0.215        0.168       27.953       30.694        1.206      345.434       22.961      857.103
06/10/2013  00:20:00       17.511       31.829       53.805       23.517       31.169       19.052      553.037      971.499      362.996        0.305        0.094       36.328       15.603        0.184      345.482       23.044      857.082
06/10/2013  00:21:00       69.800       50.571       42.699       52.037       29.367       30.985     2707.851      862.401      960.088        0.689        0.227       86.195       32.899        0.146      345.362       22.838      857.086
06/10/2013  00:22:00       12.262       16.020       23.305       26.428       27.452       18.229      698.424      753.603      332.297        0.137        0.089       20.174       16.995        0.710      345.385       22.879      857.101
06/10/2013  00:23:00      -26.349       10.557        5.910       20.756        7.639       10.856      430.827       58.355      117.853        0.072        0.030       28.385       13.203        0.216      345.335       22.790      857.134
06/10/2013  00:24:00        5.480        0.735        7.200        9.589       16.521       14.506       91.946      272.940      210.432        0.033        0.029        5.529       12.821        5.376      345.342       22.805      857.137
06/10/2013  00:25:00       28.416      -32.196        9.246       17.598       27.869       17.236      309.694      776.698      297.073        0.166        0.069       42.943       17.633        0.169      345.356       22.828      857.124
06/10/2013  00:26:00       16.678      -16.794       23.148       21.420       30.865       14.072      458.823      952.651      198.012        0.135        0.080       23.668       11.906        0.253      345.446       22.982      857.122
06/10/2013  00:27:00       23.286      -28.921       14.677       25.782       44.253       26.814      664.701     1958.357      719.016        0.247        0.167       37.131       28.121        0.574      345.421       22.939      857.102
06/10/2013  00:28:00      -13.358      -72.456       -0.322       37.703       41.399       23.059     1421.488     1713.853      531.723        0.455        0.183       73.677       23.986        0.106      345.577       23.205      857.081
06/10/2013  00:29:00      -31.264       -3.756        0.663       16.314       13.192       14.295      266.140      174.028      204.361        0.082        0.032       31.489        7.412        0.055      345.446       22.982      857.077
06/10/2013  00:30:00      -54.033       43.971       -0.523       43.959       23.591       16.007     1932.393      556.532      256.235        0.380        0.137       69.663       19.858        0.081      345.485       23.050      857.074
06/10/2013  00:31:00      -17.416      -34.964       -1.840       18.762       18.583       11.500      351.997      345.316      132.255        0.118        0.041       39.061       11.087        0.081      345.484       23.046      857.070
06/10/2013  00:32:00      -27.513      -99.823       -1.448       24.978       28.769       18.992      623.901      827.655      360.707        0.627        0.091      103.545       10.373        0.010      345.943       23.835      857.062
06/10/2013  00:33:00      -60.705     -139.319       -5.527       27.568       37.600       20.344      759.977     1413.784      413.897        1.286        0.129      151.970       12.410        0.007      346.157       24.204      857.047
06/10/2013  00:34:00      -34.003      -68.075        3.088       35.645       71.847       24.797     1270.580     5162.041      614.892        0.642        0.352       76.095       35.279        0.215      346.121       24.140      857.014
06/10/2013  00:35:00      -17.938      -30.115        7.232       26.724       17.251       14.875      714.179      297.601      221.267        0.126        0.062       35.053       12.232        0.122      345.866       23.703      856.984
06/10/2013  00:36:00      -67.325      -22.541        1.834       29.795       39.378       19.629      887.754     1550.599      385.311        0.393        0.141       70.998       13.805        0.038      345.848       23.673      856.968
06/10/2013  00:37:00     -102.164       -3.704       -5.643       34.675       33.145       16.895     1202.357     1098.610      285.432        0.653        0.129      102.231       17.733        0.030      345.525       23.118      856.952
06/10/2013  00:38:00      -72.746      -29.893        2.344       41.757       23.051       17.806     1743.648      531.365      317.048        0.439        0.130       78.648       21.292        0.073      345.555       23.169      856.929
06/10/2013  00:39:00     -113.673      -46.063        1.100       43.740       33.953       22.356     1913.167     1152.794      499.780        0.930        0.178      122.652       21.104        0.030      345.601       23.248      856.918
06/10/2013  00:40:00      -72.392      -53.068        7.777       72.272       34.186       29.075     5223.266     1168.701      845.351        0.768        0.362       89.760       31.549        0.124      345.551       23.161      856.912
06/10/2013  00:41:00     -115.154      -54.211        1.502       54.344       26.959       20.882     2953.298      726.790      436.043        1.016        0.206      127.277       22.781        0.032      345.706       23.428      856.913
06/10/2013  00:42:00      -88.369      -55.296        9.027       55.820       45.690       23.974     3115.893     2087.556      574.756        0.836        0.289      104.244       20.031        0.037      345.737       23.482      856.900
06/10/2013  00:43:00      -97.583      -73.191        3.385       48.970       47.135       25.720     2398.090     2221.739      661.536        1.009        0.264      121.981       21.477        0.031      345.746       23.497      856.894
06/10/2013  00:44:00      -97.388      -86.062       -1.047       50.111       46.755       23.758     2511.095     2186.062      564.422        1.108        0.263      129.966       21.400        0.027      345.751       23.505      856.876
06/10/2013  00:45:00      -74.400      -58.143        7.986       70.829       55.492       30.310     5016.779     3079.359      918.712        0.900        0.451       94.424       33.067        0.123      345.683       23.388      856.871
06/10/2013  00:46:00     -106.902     -103.707        1.561       70.942       49.036       32.771     5032.707     2404.530     1073.937        1.535        0.426      148.941       33.022        0.049      345.691       23.402      856.846
06/10/2013  00:47:00     -168.102     -122.409       -3.081       69.984       55.757       33.298     4897.800     3108.834     1108.779        2.618        0.456      207.948       35.644        0.029      345.659       23.343      856.823
06/10/2013  00:48:00     -151.503      -98.859       -7.143       60.763       47.406       33.106     3692.150     2247.341     1095.977        1.990        0.352      180.903       29.726        0.027      345.597       23.240      856.808
06/10/2013  00:49:00      -87.563      -42.773        4.215       54.331       45.721       32.377     2951.866     2090.397     1048.293        0.780        0.305       97.451       25.713        0.070      345.570       23.193      856.793
06/10/2013  00:50:00     -126.465      -90.034       -3.626       59.298       46.531       29.077     3516.250     2165.127      845.443        1.532        0.326      155.240       31.346        0.041      345.602       23.248      856.776
06/10/2013  00:51:00     -128.655     -101.400      -15.009       55.986       41.854       28.068     3134.485     1751.716      787.833        1.637        0.284      163.811       15.655        0.009      345.603       23.249      856.760
06/10/2013  00:52:00     -123.004      -70.561        3.585       66.142       35.079       30.976     4374.747     1230.538      959.542        1.334        0.328      141.806       32.379        0.052      345.543       23.149      856.736
06/10/2013  00:53:00     -171.388      -93.970       -5.009       54.903       46.597       26.838     3014.363     2171.306      720.299        2.207        0.295      195.459       23.903        0.015      345.632       23.299      856.726
06/10/2013  00:54:00     -160.107      -63.629       -4.262       46.237       43.392       29.954     2137.862     1882.843      897.227        1.731        0.246      172.287       26.127        0.023      345.552       23.164      856.714
06/10/2013  00:55:00     -157.334      -62.755       -3.972       49.898       28.814       22.031     2489.808      830.218      485.346        1.626        0.190      169.388       18.226        0.012      345.580       23.212      856.699
06/10/2013  00:56:00     -172.226      -73.391      -11.183       48.017       49.815       27.372     2305.591     2481.532      749.202        2.035        0.277      187.211       21.247        0.013      345.674       23.372      856.683
06/10/2013  00:57:00     -129.302      -50.613       -2.230       50.302       46.156       23.410     2530.317     2130.403      548.008        1.225        0.260      138.854       22.411        0.026      345.531       23.126      856.683
06/10/2013  00:58:00     -164.417      -56.942       -8.748       43.214       37.276       24.083     1867.468     1389.511      579.969        1.709        0.192      173.998       19.650        0.013      345.578       23.208      856.671
06/10/2013  00:59:00     -156.938      -50.646       -3.369       56.444       46.871       30.345     3185.923     2196.859      920.795        1.675        0.315      164.908       25.556        0.024      345.605       23.254      856.665
06/10/2013  01:00:00     -149.997      -61.510       -4.589       38.801       43.979       22.436     1505.536     1934.134      503.388        1.512        0.197      162.119       16.281        0.010      345.554       23.168      856.660
06/10/2013  01:01:00     -149.519      -57.377        2.905       48.511       47.319       27.281     2353.333     2239.042      744.280        1.550        0.267      160.150       23.945        0.022      345.613       23.269      856.672
06/10/2013  01:02:00     -156.128      -45.004        3.836       56.217       46.055       28.917     3160.360     2121.045      836.204        1.627        0.306      162.484       26.334        0.026      345.655       23.340      856.680
06/10/2013  01:03:00     -152.764      -44.189       -0.410       58.458       42.173       26.145     3417.353     1778.556      683.577        1.558        0.294      159.027       24.479        0.024      345.615       23.271      856.682
06/10/2013  01:04:00     -146.784      -63.610       -0.645       47.073       47.491       27.104     2215.883     2255.379      734.603        1.540        0.260      159.975       22.420        0.020      345.691       23.404      856.678
06/10/2013  01:05:00     -134.620      -83.130        4.875       41.837       41.338       26.184     1750.368     1708.835      685.601        1.460        0.207      158.219       23.786        0.023      345.695       23.408      856.669
06/10/2013  01:06:00     -117.640      -53.360       -1.446       46.652       51.845       28.307     2176.453     2687.910      801.297        1.118        0.283      129.176       24.925        0.037      345.695       23.410      856.663
06/10/2013  01:07:00     -117.072      -93.899        8.845       50.141       47.073       26.943     2514.137     2215.913      725.939        1.403        0.273      150.076       27.206        0.033      345.748       23.500      856.641
06/10/2013  01:08:00      -89.010     -111.242        7.819       75.335       60.689       37.152     5675.310     3683.105     1380.286        1.555        0.537      142.469       46.115        0.105      345.736       23.480      856.624
06/10/2013  01:09:00     -105.602      -84.694       -3.247       66.312       42.401       31.350     4397.217     1797.806      982.820        1.276        0.359      135.370       30.429        0.051      345.622       23.282      856.609
06/10/2013  01:10:00      -82.858      -70.257        4.286       57.347       39.743       29.470     3288.678     1579.503      868.457        0.878        0.287      108.634       26.874        0.061      345.658       23.345      856.589
06/10/2013  01:11:00      -55.321      -62.334       11.903       61.286       61.683       34.619     3755.938     3804.809     1198.450        0.792        0.438       83.343       32.906        0.156      345.523       23.114      856.566
06/10/2013  01:12:00      -78.078      -95.185       -1.410       67.731       62.301       40.515     4587.513     3881.397     1641.429        1.263        0.506      123.112       42.475        0.119      345.582       23.215      856.564
06/10/2013  01:13:00      -34.750      -85.099       10.084       42.311       49.510       24.816     1790.237     2451.218      615.813        0.670        0.243       91.921       17.162        0.035      345.654       23.341      856.567
06/10/2013  01:14:00      -43.804      -93.905       18.953       51.696       59.722       34.120     2672.453     3566.752     1164.195        0.925        0.370      103.619       28.451        0.075      345.557       23.172      856.591
06/10/2013  01:15:00      -88.367     -126.951       -2.292       64.708       64.751       34.245     4187.136     4192.684     1172.729        1.674        0.478      154.678       32.880        0.045      345.599       23.244      856.603
06/10/2013  01:16:00      -77.246     -176.281       -4.947       45.802       57.007       29.351     2097.819     3249.749      861.469        2.164        0.310      192.463       26.261        0.019      345.568       23.189      856.597
06/10/2013  01:17:00      -81.204     -146.868       -8.445       52.612       61.319       25.901     2768.003     3760.026      670.881        1.772        0.360      167.822       17.789        0.011      345.531       23.126      856.593
06/10/2013  01:18:00      -41.095      -76.570        4.914       57.790       45.473       31.784     3339.637     2067.834     1010.246        0.700        0.321       86.901       28.638        0.109      345.480       23.039      856.587
06/10/2013  01:19:00      -56.794      -98.643        9.027       54.224       55.421       33.953     2940.261     3071.509     1152.824        1.010        0.358      113.825       31.963        0.079      345.368       22.849      856.580
06/10/2013  01:20:00      -19.812      -85.432        1.268       40.725       38.052       23.885     1658.497     1447.933      570.484        0.568        0.184       87.699       22.492        0.066      345.392       22.888      856.573
06/10/2013  01:21:00      -12.561      -98.464      -14.016       39.464       34.630       29.653     1557.391     1199.230      879.300        0.684        0.182       99.262       26.398        0.071      345.353       22.823      856.565
06/10/2013  01:22:00      -42.466      -49.761        7.599       48.709       46.492       31.412     2372.566     2161.494      986.689        0.493        0.276       65.418       27.433        0.176      345.240       22.629      856.562
06/10/2013  01:23:00        2.924      -66.259      -10.761       51.943       45.301       28.035     2698.086     2052.198      785.966        0.502        0.277       66.324       23.714        0.128      345.254       22.653      856.567
06/10/2013  01:24:00      -14.415      -75.229        2.335       37.129       32.223       32.012     1378.597     1038.301     1024.784        0.466        0.172       76.598       15.857        0.043      345.309       22.747      856.581
06/10/2013  01:25:00       22.538      -82.985       -7.974       42.062       41.978       34.699     1769.237     1762.143     1203.996        0.610        0.237       85.991        9.271        0.012      345.243       22.633      856.591
06/10/2013  01:26:00       45.789      -96.766      -10.081       32.257       42.706       28.120     1040.503     1823.796      790.733        0.761        0.183      107.052       21.773        0.041      345.414       22.927      856.586
06/10/2013  01:27:00       36.838      -48.904       10.671       35.104       50.093       35.209     1232.323     2509.357     1239.689        0.442        0.249       61.226       34.835        0.324      345.313       22.755      856.594
06/10/2013  01:28:00       31.696      -59.082        5.349       33.391       52.700       23.399     1114.982     2777.241      547.510        0.448        0.222       67.047       22.823        0.116      345.320       22.765      856.616
06/10/2013  01:29:00       12.636       17.552       35.856       27.945       31.342       25.100      780.915      982.301      630.008        0.207        0.120       21.627       25.200        1.358      345.251       22.647      856.609
06/10/2013  01:30:00       29.942        9.180       34.766       27.574       46.923       31.783      760.325     2201.740     1010.166        0.308        0.199       31.317       35.540        1.288      345.252       22.648      856.606
06/10/2013  01:31:00       95.531      -85.116       -2.904       31.855       24.902       20.394     1014.749      620.126      415.909        0.921        0.103      127.949       19.215        0.023      345.431       22.954      856.625
06/10/2013  01:32:00       68.122      -31.730       12.538       59.696       51.916       41.142     3563.602     2695.301     1692.633        0.688        0.398       75.149       39.753        0.280      345.385       22.878      856.629
06/10/2013  01:33:00       15.969       34.441       57.107       33.378       29.611       17.486     1114.121      876.813      305.769        0.350        0.115       37.963        8.067        0.045      345.261       22.665      856.617
06/10/2013  01:34:00       -0.002       11.503       56.524       23.439       35.788       22.585      549.409     1280.745      510.093        0.283        0.117       11.503       23.455        4.158      345.395       22.895      856.629
06/10/2013  01:35:00       -9.634       -9.200       19.970       24.950       19.385       10.653      622.513      375.789      113.484        0.084        0.056       13.321        4.175        0.098      345.407       22.914      856.630
06/10/2013  01:36:00       -5.087       -0.520       17.282        5.650       12.174        6.928       31.924      148.195       47.998        0.028        0.011        5.114        5.533        1.171      345.337       22.795      856.621
06/10/2013  01:37:00       10.496       18.204        7.049       13.176       12.617       13.624      173.613      159.177      185.618        0.050        0.026       21.013       10.126        0.232      345.222       22.597      856.597
06/10/2013  01:38:00       45.011       45.020        3.776       33.136       16.000       18.677     1097.970      255.993      348.812        0.288        0.085       63.662       13.956        0.048      345.040       22.289      856.574
06/10/2013  01:39:00       68.169       35.595       19.572       20.388       14.677       20.045      415.668      215.406      401.813        0.366        0.052       76.903        8.817        0.013      344.943       22.121      856.547
06/10/2013  01:40:00       30.912       33.942       26.542       24.570       25.009       18.987      603.698      625.445      360.506        0.220        0.079       45.909       13.501        0.086      344.991       22.203      856.529
06/10/2013  01:41:00       21.959       43.940        2.671       29.439       17.074       17.249      866.626      291.524      297.517        0.194        0.073       49.122       12.481        0.065      344.948       22.130      856.516
06/10/2013  01:42:00      -33.947       52.731      -11.054       13.896       15.028       11.953      193.098      225.851      142.863        0.231        0.028       62.713        9.167        0.021      344.896       22.039      856.521
06/10/2013  01:43:00      -36.158       39.270       -6.913       15.635       21.982       11.748      244.440      483.211      138.026        0.188        0.043       53.381        7.496        0.020      344.884       22.018      856.521
06/10/2013  01:44:00       -5.524       50.150       -6.384       17.573       17.221        9.631      308.810      296.568       92.766        0.164        0.035       50.453        7.884        0.024      344.984       22.191      856.524
06/10/2013  01:45:00      -11.310       46.665       -5.153        7.751        9.127        7.757       60.079       83.300       60.164        0.127        0.010       48.016        4.486        0.009      345.010       22.236      856.520
06/10/2013  01:46:00       -1.294       28.121        1.011        7.613        6.734        6.857       57.951       45.347       47.025        0.047        0.008       28.151        4.886        0.030      345.122       22.426      856.509
06/10/2013  01:47:00       12.007       28.997       -2.416        8.971        6.921        4.841       80.485       47.895       23.439        0.057        0.008       31.385        2.469        0.006      345.191       22.544      856.490
06/10/2013  01:48:00      -26.845        5.383       -3.189       12.230        5.748        3.655      149.583       33.039       13.356        0.048        0.010       27.380        2.425        0.008      345.130       22.440      856.488
06/10/2013  01:49:00      -36.543       19.042       -5.324       11.507       11.377        5.211      132.416      129.427       27.155        0.101        0.014       41.206        5.612        0.019      345.156       22.484      856.476
06/10/2013  01:50:00      -49.831       40.943       -7.710       11.857       16.418       10.638      140.582      269.566      113.158        0.237        0.026       64.494        6.945        0.012      345.078       22.351      856.467
06/10/2013  01:51:00      -25.566       22.473       -3.305       14.122       11.839        4.861      199.418      140.173       23.628        0.077        0.018       34.039        3.041        0.008      345.016       22.246      856.455
06/10/2013  01:52:00       -4.517        5.783        9.479       11.009        9.259        6.812      121.203       85.723       46.410        0.020        0.013        7.338        7.552        1.059      345.077       22.349      856.436
06/10/2013  01:53:00      -32.262      -11.142       -1.789       20.130       11.252        6.461      405.204      126.610       41.747        0.087        0.029       34.132        5.923        0.030      345.145       22.464      856.425
06/10/2013  01:54:00      -90.939       24.905       -5.629       22.445       13.238        9.742      503.768      175.254       94.916        0.485        0.039       94.288        9.834        0.011      344.982       22.187      856.412
06/10/2013  01:55:00      -84.878       38.883       -3.093       30.328       25.146       17.963      919.765      632.341      322.658        0.530        0.094       93.360       11.766        0.016      344.838       21.940      856.395
06/10/2013  01:56:00     -102.401       -4.170       -5.344       30.596       27.514       11.994      936.139      757.022      143.858        0.618        0.092      102.486       13.584        0.018      344.853       21.967      856.380
06/10/2013  01:57:00      -60.720      -18.250        3.108       24.500       18.698       12.877      600.269      349.602      165.823        0.257        0.056       63.403       13.258        0.044      344.845       21.954      856.365
06/10/2013  01:58:00      -67.694      -22.427        2.164       38.639       30.957       11.439     1492.948      958.329      130.857        0.384        0.129       71.312       12.398        0.030      344.907       22.060      856.350
06/10/2013  01:59:00     -127.711      -36.034       -5.865       16.094       18.759       12.031      259.029      351.918      144.737        0.920        0.038      132.697        8.477        0.004      344.882       22.015      856.339
06/10/2013  02:00:00     -106.085      -36.046       -0.652       39.426       24.392       18.089     1554.435      594.954      327.205        0.751        0.124      112.042       19.105        0.029      344.927       22.094      856.318
06/10/2013  02:01:00      -99.892      -34.436        3.430       47.859       29.170       18.622     2290.442      850.887      346.763        0.733        0.174      105.661       22.111        0.044      344.924       22.090      856.294
06/10/2013  02:02:00     -143.092      -15.197       -6.031       58.915       36.638       32.368     3470.968     1342.369     1047.667        1.330        0.293      143.896       34.712        0.058      344.819       21.909      856.274
06/10/2013  02:03:00     -154.996      -33.167      -12.720       39.697       29.558       21.875     1575.857      873.681      478.531        1.411        0.146      158.505       20.126        0.016      344.781       21.844      856.253
06/10/2013  02:04:00      -87.830      -58.252        0.948       40.347       27.171       20.718     1627.882      738.287      429.250        0.695        0.140      105.392       18.955        0.032      344.826       21.919      856.220
06/10/2013  02:05:00      -78.432      -57.724        4.787       45.492       46.473       28.752     2069.519     2159.742      826.698        0.728        0.253       97.384       30.848        0.100      344.854       21.967      856.211
06/10/2013  02:06:00     -110.485      -67.457        7.701       55.734       45.122       32.731     3106.332     2035.975     1071.314        1.151        0.311      129.450       32.750        0.064      344.755       21.800      856.198
06/10/2013  02:07:00     -128.981      -52.728       -5.201       36.383       36.420       23.015     1323.746     1326.409      529.667        1.131        0.159      139.343       19.874        0.020      344.724       21.746      856.199
06/10/2013  02:08:00     -138.621      -41.652      -10.977       30.334       32.113       20.838      920.179     1031.257      434.222        1.173        0.119      144.744       17.383        0.014      344.657       21.632      856.193
06/10/2013  02:09:00     -104.863      -39.793        3.993       26.406       30.887       18.702      697.281      954.013      349.754        0.730        0.100      112.159       16.631        0.022      344.668       21.651      856.187
06/10/2013  02:10:00      -41.366      -32.812        5.689       39.246       27.773       21.944     1540.264      771.360      481.525        0.281        0.140       52.799       22.304        0.178      344.633       21.589      856.179
06/10/2013  02:11:00      -48.281      -43.789       -3.415       36.079       19.867       11.648     1301.728      394.691      135.684        0.305        0.092       65.181       12.647        0.038      344.713       21.726      856.162
06/10/2013  02:12:00       16.974      -27.182       23.843       25.201       20.038       12.404      635.101      401.502      153.861        0.139        0.060       32.047        7.679        0.057      344.682       21.675      856.143
06/10/2013  02:13:00       -9.177      -12.880        8.222       18.704       10.001       11.972      349.828      100.023      143.328        0.046        0.030       15.814       10.260        0.421      344.650       21.620      856.121
06/10/2013  02:14:00      -11.048      -13.168        6.964       19.828       16.766       11.997      393.152      281.099      143.924        0.058        0.041       17.189       10.823        0.396      344.645       21.610      856.121
06/10/2013  02:15:00      -28.173       -4.178       -3.229       11.320        8.205        8.399      128.137       67.327       70.548        0.054        0.013       28.481        3.433        0.015      344.660       21.635      856.108
06/10/2013  02:16:00      -24.340        0.059       -1.084       13.041       11.559        8.128      170.056      133.616       66.059        0.048        0.018       24.340        5.020        0.043      344.709       21.721      856.094
06/10/2013  02:17:00      -32.570      -10.756        0.660       15.377        9.426        7.480      236.448       88.851       55.947        0.078        0.019       34.300        3.201        0.009      344.702       21.706      856.089
06/10/2013  02:18:00       -9.477       -6.921        0.208        6.238       10.235        5.205       38.907      104.758       27.091        0.015        0.009       11.735        3.062        0.068      344.595       21.526      856.079
06/10/2013  02:19:00       10.025      -37.007      -12.029       16.488       18.822        8.557      271.838      354.258       73.227        0.116        0.035       38.341       11.218        0.086      344.616       21.559      856.072
06/10/2013  02:20:00        0.380      -31.008       -2.092       17.246       27.923       22.111      297.429      779.709      488.890        0.127        0.078       31.010       18.502        0.356      344.590       21.514      856.054
06/10/2013  02:21:00      -20.720      -17.828        4.105       15.877       12.574       10.651      252.068      158.117      113.443        0.064        0.026       27.334        6.114        0.050      344.575       21.492      856.040
06/10/2013  02:22:00      -41.484       11.363        2.281       12.193       10.800        9.082      148.667      116.631       82.487        0.110        0.017       43.012        5.447        0.016      344.566       21.475      856.030
06/10/2013  02:23:00      -57.059       -2.586       -6.255       19.206       14.178        8.438      368.866      201.006       71.203        0.197        0.032       57.118        5.522        0.009      344.481       21.330      856.025
06/10/2013  02:24:00      -85.528      -16.458       -8.266       13.225       13.186       10.938      174.891      173.878      119.645        0.406        0.023       87.097        3.980        0.002      344.428       21.239      856.024
06/10/2013  02:25:00      -86.398      -13.707       -1.812       21.697       21.357       14.397      470.768      456.113      207.280        0.439        0.057       87.478        9.525        0.012      344.365       21.132      856.024
06/10/2013  02:26:00      -37.750       -5.462        3.487       27.028       16.905       14.256      730.523      285.795      203.237        0.134        0.061       38.143       14.375        0.142      344.299       21.019      856.024
06/10/2013  02:27:00      -57.984      -19.892       -7.458       37.585       13.520        8.311     1412.659      182.803       69.079        0.274        0.083       61.301       10.377        0.029      344.265       20.960      856.027
06/10/2013  02:28:00     -108.636      -36.017       -4.095       15.977       12.185        8.003      255.270      148.482       64.051        0.679        0.023      114.451        5.977        0.003      344.214       20.873      856.035
06/10/2013  02:29:00      -78.180      -19.533       -0.279       20.253       14.048        9.781      410.204      197.334       95.659        0.360        0.035       80.583        8.464        0.011      344.214       20.874      856.035
06/10/2013  02:30:00      -35.306      -18.181        1.574       27.548       10.979        8.751      758.901      120.534       76.577        0.127        0.048       39.713        6.730        0.029      344.251       20.938      856.032
06/10/2013  02:31:00      -42.459      -15.531       -3.026       12.342       11.784       10.880      152.336      138.858      118.373        0.123        0.020       45.210        5.861        0.017      344.282       20.992      856.053
06/10/2013  02:32:00      -36.053        5.182       -2.365       12.203        9.151        7.674      148.924       83.749       58.887        0.081        0.015       36.423        3.485        0.009      344.290       21.004      856.050
06/10/2013  02:33:00      -67.494        1.427       -5.670       18.147        8.897        6.727      329.300       79.150       45.252        0.252        0.023       67.509        7.783        0.013      344.264       20.960      856.040
06/10/2013  02:34:00      -70.844        8.717       -7.011       18.701        8.585        6.916      349.720       73.698       47.827        0.281        0.024       71.378        6.016        0.007      344.242       20.920      856.019
06/10/2013  02:35:00      -30.726       10.866       -3.146       14.580       12.482       10.242      212.590      155.812      104.889        0.077        0.024       32.591        8.694        0.071      344.166       20.790      856.001
06/10/2013  02:36:00      -34.913      -11.837       -7.244       12.572       12.836        7.684      158.062      164.763       59.042        0.090        0.019       36.865        6.407        0.030      344.251       20.937      855.974
06/10/2013  02:37:00      -45.535      -17.057       -9.102       16.328        9.267        8.630      266.615       85.879       74.485        0.144        0.021       48.625        8.643        0.032      344.269       20.968      855.954
06/10/2013  02:38:00      -57.885      -15.826      -12.210        7.361        9.703        7.353       54.187       94.156       54.065        0.198        0.010       60.009        5.272        0.008      344.216       20.875      855.929
06/10/2013  02:39:00      -77.123       -9.425       -7.073       14.970       12.625       10.512      224.103      159.382      110.495        0.329        0.025       77.697        6.828        0.008      344.155       20.773      855.910
06/10/2013  02:40:00      -51.175       15.699       -7.318       31.159       18.456       13.345      970.867      340.608      178.079        0.220        0.074       53.529       13.397        0.063      344.028       20.555      855.897
06/10/2013  02:41:00        3.304       30.028        1.838       21.797       12.152        7.544      475.130      147.680       56.916        0.080        0.034       30.209        8.833        0.085      344.310       21.037      855.882
06/10/2013  02:42:00       47.154       23.894        1.781       13.366        8.345        9.916      178.656       69.643       98.319        0.157        0.017       52.863        5.477        0.011      344.220       20.884      855.876
06/10/2013  02:43:00       37.203       18.458        0.835       11.218       14.440        8.983      125.844      208.525       80.700        0.107        0.021       41.530        5.216        0.016      344.097       20.673      855.881
06/10/2013  02:44:00       15.909       -3.807        1.530       18.159       18.151        9.525      329.766      329.475       90.725        0.051        0.037       16.359        9.085        0.308      344.083       20.650      855.900
06/10/2013  02:45:00        5.090       -5.848        5.915        8.635       12.188        5.728       74.563      148.552       32.810        0.018        0.013        7.753        5.745        0.549      344.082       20.650      855.909
06/10/2013  02:46:00       42.775       14.450        3.472       17.881       11.706        8.469      319.742      137.031       71.718        0.129        0.026       45.150        8.711        0.037      343.994       20.498      855.913
06/10/2013  02:47:00       58.406       45.221       13.549       14.488       17.814       13.785      209.892      317.323      190.039        0.318        0.036       73.866        6.614        0.008      343.857       20.265      855.915
06/10/2013  02:48:00       62.528       32.932       13.760       13.042       19.394       14.994      170.088      376.110      224.817        0.298        0.039       70.670        8.788        0.015      343.884       20.311      855.922
06/10/2013  02:49:00       88.668       55.711       18.715       18.254       11.557       11.454      333.221      133.571      131.201        0.596        0.030      104.718        8.916        0.007      343.901       20.340      855.906
06/10/2013  02:50:00       75.158       48.705       22.610       17.590       16.000       17.322      309.418      256.010      300.038        0.470        0.043       89.560       13.161        0.022      343.983       20.481      855.893
06/10/2013  02:51:00       47.167       43.682       11.777       21.539       13.099       14.772      463.922      171.593      218.209        0.256        0.043       64.287       10.943        0.029      344.080       20.646      855.893
06/10/2013  02:52:00       69.212       53.723       15.238       28.775       16.374       15.038      827.974      268.094      226.155        0.462        0.066       87.615        8.807        0.010      344.167       20.792      855.871
06/10/2013  02:53:00       85.522       55.293       12.439       28.164       25.903       27.300      793.231      670.987      745.288        0.637        0.110      101.840       17.918        0.031      344.198       20.846      855.854
06/10/2013  02:54:00       23.211       36.610       -7.075       22.369       22.749       15.501      500.353      517.525      240.279        0.159        0.063       43.348       11.950        0.076      344.126       20.726      855.860
06/10/2013  02:55:00       28.473       30.126        1.433       25.170       20.328       19.775      633.510      413.215      391.054        0.158        0.072       41.452       16.926        0.167      344.101       20.683      855.861
06/10/2013  02:56:00       34.113       65.853      -14.759       28.844       27.830       16.774      831.991      774.524      281.366        0.380        0.094       74.164       14.627        0.039      344.150       20.765      855.863
06/10/2013  02:57:00       89.464       47.992        3.630       21.167       22.863       15.322      448.046      522.697      234.757        0.576        0.060      101.523       11.653        0.013      344.153       20.770      855.868
06/10/2013  02:58:00      137.101       74.528       21.415       27.486       27.438       23.590      755.459      752.854      556.476        1.344        0.103      156.048       16.599        0.011      344.190       20.832      855.845
06/10/2013  02:59:00       98.554       51.731       28.120       51.564       43.257       30.637     2658.879     1871.150      938.644        0.932        0.273      111.306       22.884        0.042      344.150       20.764      855.809
06/10/2013  03:00:00       45.236       22.288       12.352       33.606       32.865       18.623     1129.339     1080.113      346.827        0.263        0.128       50.429       13.874        0.076      344.157       20.776      855.811
06/10/2013  03:01:00       -7.409      -15.728       17.825       11.325       21.806       10.129      128.263      475.499      102.594        0.066        0.035       17.386        7.280        0.175      344.145       20.755      855.822
06/10/2013  03:02:00       11.412      -34.990        9.315       12.418       28.415       11.131      154.216      807.396      123.905        0.126        0.054       36.804       10.314        0.079      344.135       20.739      855.809
06/10/2013  03:03:00       19.900       17.698       15.463       17.740       18.517       11.057      314.710      342.863      122.262        0.086        0.039       26.632        9.497        0.127      344.099       20.677      855.783
06/10/2013  03:04:00       24.550       35.038        1.438       13.592       16.738       12.275      184.754      280.169      150.667        0.122        0.031       42.783        7.264        0.029      344.062       20.616      855.775
06/10/2013  03:05:00       -8.029       70.371      -11.529       14.939       22.218        9.304      223.167      493.644       86.569        0.298        0.040       70.827        7.102        0.010      344.065       20.620      855.779
06/10/2013  03:06:00       14.482       85.776      -14.810       28.196       21.766       13.451      794.987      473.755      180.943        0.462        0.072       86.990       14.883        0.029      344.021       20.544      855.764
06/10/2013  03:07:00       11.325       44.655       -5.162       16.093       20.869        8.238      258.988      435.499       67.860        0.146        0.038       46.069        4.575        0.010      343.970       20.458      855.750
06/10/2013  03:08:00       10.330       44.481       -0.504       20.653       12.848       11.443      426.540      165.066      130.938        0.140        0.036       45.665       11.880        0.068      343.951       20.424      855.744
06/10/2013  03:09:00        3.787       71.529       -7.751       14.009       21.676       15.415      196.246      469.856      237.637        0.305        0.045       71.629        8.073        0.013      344.004       20.515      855.734
06/10/2013  03:10:00      -18.310       27.031        3.879       10.257       15.781       11.070      105.198      249.041      122.548        0.078        0.024       32.649        8.993        0.076      343.942       20.409      855.728
06/10/2013  03:11:00      -21.310       42.759       -9.406       21.982       19.471        9.945      483.189      379.116       98.903        0.167        0.048       47.775        4.233        0.008      344.056       20.604      855.728
06/10/2013  03:12:00      -27.673       10.662       -3.912       20.861       20.620       11.086      435.171      425.187      122.893        0.094        0.049       29.656        9.016        0.092      344.079       20.645      855.714
06/10/2013  03:13:00        5.172       -5.761        8.315        7.841        6.848        9.253       61.480       46.895       85.612        0.016        0.010        7.742        4.392        0.322      344.103       20.684      855.697
06/10/2013  03:14:00      -29.448      -14.108       -1.269       30.443        9.036        5.374      926.785       81.656       28.879        0.105        0.052       32.653        9.506        0.085      344.037       20.573      855.681
06/10/2013  03:15:00      -97.672      -17.952      -12.443       10.392        6.961        7.399      107.996       48.458       54.747        0.511        0.011       99.308        5.071        0.003      344.048       20.589      855.670
06/10/2013  03:16:00     -113.416        0.712      -15.526       24.534       12.539       13.900      601.939      157.237      193.220        0.703        0.048      113.418       14.740        0.017      343.963       20.444      855.675
06/10/2013  03:17:00      -83.398        4.478       -8.444       25.073       25.900       19.810      628.656      670.791      392.451        0.437        0.085       83.518       15.253        0.033      343.991       20.493      855.666
06/10/2013  03:18:00      -62.932       37.733      -15.303       22.090       18.108       12.954      487.975      327.909      167.807        0.330        0.049       73.377       11.323        0.024      344.377       21.152      855.638
06/10/2013  03:19:00      -69.163       49.049      -15.414       13.004       16.282        8.518      169.098      265.105       72.552        0.397        0.025       84.790        9.135        0.012      344.734       21.763      855.626
06/10/2013  03:20:00      -62.435       11.548       -2.887       14.690       10.243        6.936      215.793      104.910       48.112        0.220        0.018       63.494        5.215        0.007      344.290       21.006      855.623
06/10/2013  03:21:00      -57.102        8.870       -0.891       31.381       20.820       15.278      984.736      433.470      233.410        0.250        0.083       57.786       12.854        0.049      344.061       20.614      855.622
06/10/2013  03:22:00     -176.863       11.487      -18.577       58.087       29.563       27.000     3374.150      873.980      729.022        1.837        0.249      177.236       32.992        0.035      343.859       20.267      855.633
06/10/2013  03:23:00     -151.579        3.812      -15.071       36.674       27.788       19.749     1344.987      772.155      390.014        1.286        0.125      151.627       15.112        0.010      343.747       20.077      855.638
06/10/2013  03:24:00     -132.332       -9.177      -18.887       44.048       25.345       19.529     1940.245      642.387      381.364        1.046        0.148      132.650       23.337        0.031      343.709       20.012      855.641
06/10/2013  03:25:00     -121.735       48.572       -8.838       38.469       29.469       20.216     1479.831      868.442      408.678        1.001        0.138      131.067       15.154        0.013      344.004       20.515      855.644
06/10/2013  03:26:00      -62.473       52.458       -3.260       54.929       25.866       26.270     3017.147      669.068      690.091        0.552        0.219       81.577       28.557        0.123      344.252       20.939      855.650
06/10/2013  03:27:00       14.551       56.688       -5.591       38.346       24.853       14.356     1470.398      617.666      206.108        0.287        0.115       58.525       14.029        0.057      344.231       20.904      855.657
06/10/2013  03:28:00      -33.255       61.927       -3.190       37.711       42.861       23.915     1422.148     1837.099      571.944        0.439        0.192       70.291       19.072        0.074      344.312       21.042      855.652
06/10/2013  03:29:00      -80.804       -2.671      -10.578       24.250       24.744       13.191      588.069      612.258      174.003        0.401        0.069       80.848       12.673        0.025      344.177       20.812      855.641
06/10/2013  03:30:00     -126.946      -19.250      -10.152       40.078       18.907       13.902     1606.282      357.466      193.275        0.937        0.108      128.398       12.383        0.009      343.904       20.344      855.641
06/10/2013  03:31:00     -132.646       -4.514      -16.161       32.012       19.342       15.513     1024.764      374.111      240.660        0.976        0.082      132.723       15.385        0.013      343.971       20.459      855.641
06/10/2013  03:32:00      -68.909      -10.144       -1.209       36.306       15.496       15.601     1318.140      240.122      243.386        0.333        0.090       69.652        9.189        0.017      344.009       20.524      855.621
06/10/2013  03:33:00      -44.859       23.491      -10.016       20.029       25.661       12.950      401.142      658.511      167.692        0.195        0.061       50.637       15.492        0.094      344.206       20.861      855.607
06/10/2013  03:34:00        0.030       66.115       -7.233       30.153       18.795       17.204      909.223      353.245      295.994        0.299        0.078       66.115        7.945        0.014      344.620       21.567      855.605
06/10/2013  03:35:00      -59.005       46.197      -12.514       24.366       16.341       10.643      593.720      267.043      113.282        0.337        0.049       74.938       10.054        0.018      344.553       21.454      855.612
06/10/2013  03:36:00      -99.432       41.588      -19.921       26.795       56.825       25.850      717.966     3229.099      668.243        0.831        0.231      107.779       25.350        0.055      344.331       21.074      855.612
06/10/2013  03:37:00     -110.096       14.763      -19.049       22.663       19.770       18.934      513.618      390.833      358.512        0.698        0.063      111.082       12.781        0.013      344.105       20.688      855.618
06/10/2013  03:38:00      -94.128       11.511      -15.011       20.269       21.732       11.933      410.820      472.282      142.396        0.512        0.051       94.829        7.403        0.006      344.074       20.635      855.628
06/10/2013  03:39:00      -53.348       22.348       -1.456       22.372       17.124       16.250      500.519      293.235      264.056        0.220        0.053       57.840       11.370        0.039      344.101       20.681      855.617
06/10/2013  03:40:00      -37.447       46.045       -4.844       22.798       26.628       19.935      519.769      709.053      397.420        0.259        0.081       59.349       11.675        0.039      344.235       20.908      855.604
06/10/2013  03:41:00      -88.981       84.318      -20.715       30.100       37.339       21.385      905.983     1394.217      457.302        0.911        0.138      122.586       19.542        0.025      344.527       21.410      855.591
06/10/2013  03:42:00      -88.899       13.380       -2.642       27.367       23.906       15.742      748.967      571.501      247.818        0.483        0.078       89.900       12.743        0.020      344.326       21.066      855.591
06/10/2013  03:43:00      -81.850      101.122      -25.660       39.648       59.664       24.750     1571.969     3559.736      612.564        1.166        0.287      130.097       26.696        0.042      344.458       21.291      855.586
06/10/2013  03:44:00      -74.391       69.668      -18.675       26.710       40.637       18.827      713.430     1651.371      354.471        0.673        0.136      101.920       15.252        0.022      344.369       21.140      855.573
06/10/2013  03:45:00      -96.548      -13.335       -9.565       21.920       26.320       16.925      480.498      692.754      286.448        0.552        0.073       97.464       15.791        0.026      344.189       20.830      855.564
06/10/2013  03:46:00      -69.405      -15.458      -10.409       26.200       23.645       10.366      686.430      559.091      107.462        0.326        0.068       71.106       11.478        0.026      344.171       20.799      855.562
06/10/2013  03:47:00      -10.208       10.097       -0.419       18.406       27.997       11.404      338.794      783.806      130.061        0.073        0.063       14.358       14.199        0.978      344.237       20.913      855.557
06/10/2013  03:48:00      -80.589       16.010      -11.169       32.935       55.037       11.888     1084.746     3029.031      141.329        0.556        0.213       82.164        6.795        0.007      344.231       20.903      855.551
06/10/2013  03:49:00     -132.952      -67.374      -12.355       18.563       19.443       15.757      344.582      378.047      248.285        1.167        0.049      149.049        7.690        0.003      344.150       20.766      855.538
06/10/2013  03:50:00      -79.675      -20.262        0.960       46.789       29.985       19.350     2189.208      899.075      374.428        0.511        0.173       82.211       22.285        0.073      344.040       20.577      855.542
06/10/2013  03:51:00      -63.647       -4.928       -1.891       31.269       30.669        9.367      977.743      940.610       87.738        0.304        0.100       63.837       10.750        0.028      344.175       20.807      855.537
06/10/2013  03:52:00      -65.055       -3.818       -6.497       38.142       30.416       14.305     1454.822      925.158      204.623        0.344        0.129       65.167       14.374        0.049      344.150       20.764      855.523
06/10/2013  03:53:00      -89.966        1.790       -5.704       28.523       25.362       18.183      813.574      643.252      330.634        0.496        0.089       89.984       13.416        0.022      344.112       20.699      855.527
06/10/2013  03:54:00     -146.308       -7.542      -21.298       24.103       23.330       16.685      580.972      544.279      278.399        1.166        0.070      146.502        7.107        0.002      344.055       20.602      855.536
06/10/2013  03:55:00     -101.611       49.730      -11.216       39.058       30.151       22.606     1525.536      909.109      511.030        0.793        0.147      113.128       19.534        0.030      344.124       20.721      855.534
06/10/2013  03:56:00     -131.917       75.019      -17.884       40.673       30.520       22.536     1654.289      931.487      507.873        1.322        0.155      151.757       20.055        0.017      344.195       20.842      855.520
06/10/2013  03:57:00      -65.660      102.720      -19.724       37.236       39.954       19.933     1386.493     1596.315      397.339        0.932        0.169      121.912       20.765        0.029      344.213       20.873      855.505
06/10/2013  03:58:00       -2.549      167.155      -19.191       33.667       40.463       24.811     1133.436     1637.290      615.588        1.585        0.169      167.175       21.052        0.016      344.354       21.113      855.494
06/10/2013  03:59:00      -12.846      136.600      -15.155       18.929       29.021       16.481      358.317      842.215      271.639        1.026        0.074      137.203       15.567        0.013      344.361       21.127      855.489
06/10/2013  04:00:00       -8.197      203.027      -26.177       44.718       48.911       27.437     1999.666     2392.267      752.763        2.356        0.257      203.193       22.022        0.012      344.409       21.205      855.496
06/10/2013  04:01:00        1.356      133.662      -12.729       23.882       42.393       21.204      570.354     1797.125      449.628        1.042        0.141      133.669       21.048        0.025      344.240       20.918      855.513
06/10/2013  04:02:00        3.446       66.826       -6.850       31.152       30.103       16.855      970.466      906.161      284.081        0.334        0.108       66.915       13.873        0.043      344.130       20.730      855.529
06/10/2013  04:03:00       44.818       71.375       -9.386       23.933       35.526       24.827      572.790     1262.115      616.396        0.482        0.123       84.279       22.664        0.072      344.191       20.834      855.537
06/10/2013  04:04:00        2.391       27.804       -1.047       34.092       36.003       14.019     1162.237     1296.215      196.532        0.172        0.133       27.906       10.831        0.151      344.169       20.797      855.569
06/10/2013  04:05:00      -49.926       -6.273      -10.264       24.565       10.426       12.422      603.428      108.701      154.308        0.175        0.043       50.318       10.574        0.044      344.171       20.799      855.603
06/10/2013  04:06:00       16.817       25.514       -2.991       32.045       28.728       14.133     1026.857      825.322      199.750        0.150        0.103       30.558       10.230        0.112      344.165       20.791      855.624
06/10/2013  04:07:00       85.906       59.134        2.609       38.050       20.079       20.752     1447.771      403.156      430.648        0.658        0.114      104.291       15.061        0.021      344.289       21.003      855.602
06/10/2013  04:08:00       78.106       29.093       26.451       44.727       27.664       28.866     2000.489      765.292      833.232        0.562        0.180       83.349       18.755        0.051      344.162       20.785      855.585
06/10/2013  04:09:00       88.420       44.676       14.453       29.980       32.491       22.330      898.828     1055.645      498.641        0.624        0.123       99.066       11.498        0.013      344.210       20.867      855.576
06/10/2013  04:10:00       31.373       13.383        7.239       20.549       24.009       17.246      422.253      576.441      297.425        0.126        0.065       34.108        9.807        0.083      344.302       21.023      855.578
06/10/2013  04:11:00       -8.060      -30.681       -0.265       10.378       13.475       12.287      107.708      181.584      150.961        0.072        0.022       31.722        8.662        0.075      344.423       21.233      855.578
06/10/2013  04:12:00      -23.796      -29.011       -6.253       27.257       22.941       13.589      742.951      526.287      184.653        0.145        0.073       37.521       11.872        0.100      344.288       21.001      855.575
06/10/2013  04:13:00      -61.629      -29.882      -11.923       13.275       13.536        9.393      176.221      183.212       88.235        0.264        0.022       68.491        7.556        0.012      344.137       20.743      855.571
06/10/2013  04:14:00      -27.336      -28.221       -1.452       13.938        9.815        9.568      194.265       96.329       91.550        0.096        0.019       39.290        5.519        0.020      344.107       20.691      855.550
06/10/2013  04:15:00      -52.454        2.591      -13.499        7.329       15.021        6.151       53.710      225.637       37.830        0.163        0.016       52.518        4.711        0.008      344.210       20.867      855.531
06/10/2013  04:16:00       -8.805       61.690      -12.919       22.891       21.465        8.959      523.998      460.725       80.270        0.256        0.053       62.315        8.220        0.017      344.562       21.469      855.532
06/10/2013  04:17:00       10.327       83.709       -9.457       16.836       19.246        8.389      283.438      370.416       70.369        0.396        0.036       84.344        7.229        0.007      344.649       21.618      855.519
06/10/2013  04:18:00       18.119       99.179      -16.451       21.114       23.109       13.046      445.812      534.046      170.192        0.579        0.058      100.821       11.591        0.013      344.569       21.481      855.512
06/10/2013  04:19:00       18.491       89.396       -8.291       24.580       28.761       23.070      604.189      827.209      532.247        0.518        0.098       91.288       16.772        0.034      344.461       21.296      855.519
06/10/2013  04:20:00       -0.593      104.160      -14.161       15.961       26.513       13.596      254.745      702.938      184.845        0.610        0.057      104.162       10.828        0.011      344.459       21.293      855.538
06/10/2013  04:21:00      -21.208       70.157      -13.677       19.682       21.289        8.739      387.390      453.235       76.364        0.324        0.046       73.292        5.222        0.005      344.369       21.139      855.557
06/10/2013  04:22:00       -9.889        9.381        5.763        7.165       10.955       10.674       51.334      120.019      113.933        0.025        0.014       13.631        9.369        0.472      344.331       21.075      855.561
06/10/2013  04:23:00        7.259        7.524        6.999       13.905        8.008       10.102      193.347       64.133      102.054        0.026        0.018       10.455        9.088        0.756      344.279       20.984      855.570
06/10/2013  04:24:00       23.562      -33.271        6.023       30.202       43.265       25.454      912.154     1871.828      647.889        0.256        0.172       40.769       30.199        0.549      344.123       20.719      855.584
06/10/2013  04:25:00       88.386     -104.038      -17.024       30.139       22.725       18.603      908.383      516.414      346.074        1.035        0.089      136.513        7.622        0.003      344.118       20.711      855.589
06/10/2013  04:26:00       65.379      -74.637      -11.342       34.565       46.046       27.822     1194.770     2120.260      774.088        0.703        0.204       99.222       28.916        0.085      344.132       20.735      855.593
06/10/2013  04:27:00       14.099      -37.754       -9.376       27.921       21.281       11.759      779.570      452.869      138.280        0.154        0.069       40.300       11.173        0.077      344.152       20.770      855.589
06/10/2013  04:28:00       -1.261       -0.475       -1.218       14.290        8.337       12.794      204.191       69.513      163.698        0.022        0.022        1.347       11.651       74.798      344.087       20.660      855.590
06/10/2013  04:29:00        6.405       26.688       16.427       10.006       11.140        5.545      100.119      124.092       30.745        0.064        0.013       27.446        2.795        0.010      344.004       20.516      855.573
06/10/2013  04:30:00       10.964       27.090       -2.398       13.175       11.731       10.234      173.582      137.612      104.740        0.064        0.021       29.225        6.240        0.046      344.022       20.547      855.560
06/10/2013  04:31:00        3.629       39.516       -6.004       11.953       24.737       10.846      142.869      611.897      117.645        0.124        0.044       39.682       12.913        0.106      344.146       20.758      855.561
06/10/2013  04:32:00       -7.144       46.096       -5.016       10.481       17.563       12.768      109.855      308.444      163.021        0.139        0.029       46.646       10.270        0.048      344.130       20.732      855.576
06/10/2013  04:33:00       -2.648       35.532       -3.154       11.430        7.710        5.787      130.654       59.437       33.485        0.075        0.011       35.631        4.184        0.014      344.148       20.762      855.584
06/10/2013  04:34:00        0.978       18.089       -1.773       11.600       10.883        7.602      134.567      118.438       57.785        0.032        0.016       18.115        6.286        0.120      344.179       20.815      855.591
06/10/2013  04:35:00      -12.667       -5.190        2.596       26.398        6.167        7.843      696.848       38.037       61.515        0.050        0.040       13.689       10.010        0.535      344.112       20.702      855.584
06/10/2013  04:36:00      -27.417      -28.614       -8.013       27.475       12.863        6.367      754.863      165.460       40.538        0.130        0.048       39.629        3.765        0.009      343.975       20.462      855.593
06/10/2013  04:37:00      -10.033      -45.630       -6.589       15.371       12.240        8.767      236.257      149.813       76.858        0.134        0.023       46.720        6.316        0.018      344.005       20.520      855.588
06/10/2013  04:38:00      -29.918      -23.933       -8.225       11.329       11.538        9.070      128.344      133.127       82.263        0.094        0.017       38.313        3.205        0.007      344.032       20.563      855.588
06/10/2013  04:39:00      -68.643      -38.617      -11.726       17.316       10.798        9.354      299.847      116.605       87.504        0.342        0.025       78.760        6.969        0.008      344.040       20.576      855.588
06/10/2013  04:40:00      -66.898      -51.021        3.044       36.950       23.856       21.589     1365.291      569.106      466.075        0.474        0.120       84.134       21.533        0.066      343.867       20.280      855.581
06/10/2013  04:41:00     -113.177      -55.373       -1.855       18.910       15.380       12.797      357.601      236.554      163.751        0.832        0.038      125.997        9.004        0.005      343.831       20.221      855.580
06/10/2013  04:42:00      -20.355      -24.532        6.970       28.966       18.093       11.270      839.025      327.371      127.014        0.118        0.065       31.877       11.637        0.133      343.739       20.062      855.564
06/10/2013  04:43:00      -29.452      -35.965        1.068       15.178       14.660       11.729      230.373      214.925      137.576        0.137        0.029       46.485        8.069        0.030      343.902       20.341      855.543
06/10/2013  04:44:00      -63.202      -24.930       -5.703       22.725       17.157       10.540      516.409      294.368      111.089        0.278        0.046       67.941       11.148        0.027      343.948       20.422      855.524
06/10/2013  04:45:00      -98.683        3.323       -4.429       28.022       21.945       10.498      785.235      481.594      110.200        0.557        0.069       98.739       11.515        0.014      343.769       20.114      855.522
06/10/2013  04:46:00      -65.223      -36.281        1.374       35.098       20.243       11.893     1231.846      409.789      141.433        0.368        0.089       74.635       10.742        0.021      343.868       20.282      855.533
06/10/2013  04:47:00      -47.570      -26.325        3.657       24.638       21.443       14.747      607.046      459.784      217.466        0.213        0.064       54.368       13.885        0.065      343.856       20.261      855.536
06/10/2013  04:48:00      -44.617      -28.204        1.735       25.256       16.014       12.826      637.855      256.440      164.512        0.192        0.053       52.783       11.293        0.046      343.865       20.279      855.532
06/10/2013  04:49:00      -46.095      -39.750       -0.834       28.331       23.054       16.762      802.633      531.494      280.951        0.266        0.081       60.867       15.041        0.061      343.875       20.294      855.535
06/10/2013  04:50:00      -31.660      -50.630        7.549       35.054       24.057       18.063     1228.786      578.743      326.283        0.288        0.107       59.714       19.594        0.108      343.919       20.370      855.552
06/10/2013  04:51:00       -9.081      -27.054       10.004       22.543       17.589       13.618      508.165      309.378      185.438        0.096        0.050       28.538        9.402        0.109      343.907       20.348      855.563
06/10/2013  04:52:00       -9.782       -7.959       10.893       21.169       11.138        9.004      448.106      124.048       81.078        0.047        0.033       12.610       10.665        0.715      343.844       20.240      855.564
06/10/2013  04:53:00        1.972      -18.312        2.366       17.521       15.415       10.941      306.976      237.631      119.710        0.050        0.033       18.418        8.147        0.196      343.850       20.252      855.568
06/10/2013  04:54:00      -60.561      -34.600        1.926       21.758       23.052       14.289      473.397      531.405      204.172        0.304        0.060       69.748       11.266        0.026      343.869       20.286      855.582
06/10/2013  04:55:00      -88.244      -36.826      -14.111       10.271       14.264        9.631      105.488      203.455       92.750        0.487        0.020       95.619        5.512        0.003      343.806       20.181      855.604
06/10/2013  04:56:00      -58.098      -40.049       -3.727       27.107       14.888       13.172      734.766      221.653      173.498        0.306        0.056       70.564       13.572        0.037      343.756       20.089      855.601
06/10/2013  04:57:00       -5.005      -28.361        8.965       22.673       20.743       12.353      514.077      430.265      152.608        0.100        0.055       28.799       10.929        0.144      343.762       20.103      855.603
06/10/2013  04:58:00       11.740      -76.663        3.654       22.520       30.469       31.409      507.169      928.388      986.544        0.422        0.121       77.557       21.275        0.075      343.798       20.165      855.577
06/10/2013  04:59:00       -1.851       -8.781        7.711       21.654       36.418       23.875      468.889     1326.251      570.004        0.125        0.118        8.974       14.850        2.738      343.654       19.918      855.568
06/10/2013  05:00:00      -55.024        1.548       -4.746       41.829       24.252       15.934     1749.693      588.149      253.878        0.282        0.130       55.046        8.095        0.022      343.678       19.959      855.593
06/10/2013  05:01:00      -78.413      -13.366       -2.961       55.115       20.646       14.212     3037.610      426.254      201.985        0.500        0.183       79.544       22.078        0.077      343.487       19.633      855.618
06/10/2013  05:02:00      -49.431     -101.749       -6.017       59.350       36.549       17.832     3522.432     1335.853      317.984        0.900        0.259      113.120       22.916        0.041      343.615       19.851      855.601
06/10/2013  05:03:00     -126.575      -77.213       -4.595       58.919       44.431       34.784     3471.430     1974.089     1209.913        1.433        0.333      148.267       27.679        0.035      343.576       19.785      855.601
06/10/2013  05:04:00      -79.526      -25.886       12.629       73.086       31.013       24.289     5341.581      961.830      589.951        0.702        0.345       83.633       24.847        0.088      343.541       19.725      855.594
06/10/2013  05:05:00      -39.209      -47.639        2.863       45.042       30.089       20.739     2028.810      905.322      430.099        0.359        0.168       61.700       18.624        0.091      343.547       19.734      855.552
06/10/2013  05:06:00      -97.385       17.166       -7.953       46.582       81.990       22.671     2169.907     6722.363      513.994        0.962        0.470       98.887       18.609        0.035      343.504       19.661      855.552
06/10/2013  05:07:00      -96.243       60.194      -18.439       27.668       60.725       23.768      765.541     3687.477      564.938        0.912        0.251      113.517       27.479        0.059      343.517       19.684      855.559
06/10/2013  05:08:00      -97.498      -27.199      -10.578       25.026       28.072       18.830      626.306      788.045      354.580        0.606        0.088      101.220       10.960        0.012      343.565       19.766      855.542
06/10/2013  05:09:00      -72.728      -61.755       -4.860       41.105       28.852       19.778     1689.590      832.464      391.150        0.602        0.146       95.410       12.252        0.016      343.547       19.736      855.541
06/10/2013  05:10:00      -89.869      -40.104        1.570       28.513       29.025       21.917      812.972      842.473      480.363        0.591        0.107       98.412       12.954        0.017      343.606       19.836      855.546
06/10/2013  05:11:00      -88.849      -12.432       -7.535       35.439       23.987       15.498     1255.944      575.400      240.189        0.509        0.104       89.715        8.207        0.008      343.529       19.705      855.540
06/10/2013  05:12:00     -115.230        7.962       -6.899       27.586       33.365       20.306      760.984     1113.193      412.338        0.784        0.114      115.504       16.061        0.019      343.479       19.620      855.536
06/10/2013  05:13:00      -93.825      -16.952       -6.489       23.989       40.950       15.304      575.451     1676.909      234.218        0.581        0.124       95.344        8.142        0.007      343.468       19.599      855.518
06/10/2013  05:14:00     -103.927      -67.050       -9.562       51.533       30.920       30.070     2655.648      956.068      904.232        0.995        0.226      123.679       32.046        0.067      343.494       19.646      855.504
06/10/2013  05:15:00      -52.659      -50.810        9.039       50.793       31.601       24.653     2579.937      998.597      607.767        0.481        0.209       73.176       23.849        0.106      343.513       19.677      855.475
06/10/2013  05:16:00      -98.763      -52.811        3.160       48.175       32.654       17.857     2320.817     1066.273      318.883        0.813        0.185      111.996       13.253        0.014      343.613       19.847      855.453
06/10/2013  05:17:00      -84.143       16.719       -4.869       42.352       44.121       24.543     1793.671     1946.690      602.358        0.586        0.217       85.788       20.579        0.058      343.421       19.521      855.466
06/10/2013  05:18:00     -146.337       26.609      -13.082       34.861       37.920       18.586     1215.283     1437.964      345.428        1.265        0.150      148.737       14.946        0.010      343.420       19.519      855.467
06/10/2013  05:19:00     -147.698      -83.255       -2.203       46.582       37.504       25.634     2169.848     1406.554      657.083        1.649        0.212      169.547       23.953        0.020      343.586       19.801      855.434
06/10/2013  05:20:00     -171.827      -59.555        7.126       77.909       55.385       40.113     6069.769     3067.516     1609.069        2.193        0.537      181.855       41.598        0.052      344.029       20.556      855.416
06/10/2013  05:21:00     -197.895      -75.271       -6.621       86.952       57.528       34.996     7560.726     3309.438     1224.688        2.848        0.605      211.726       37.377        0.031      344.331       21.072      855.420
06/10/2013  05:22:00     -194.883      -79.016       -7.963       48.009       40.486       30.896     2304.893     1639.107      954.582        2.459        0.245      210.292       21.205        0.010      344.533       21.417      855.418
06/10/2013  05:23:00     -124.238      -44.852        1.909       67.030       37.506       25.292     4493.045     1406.668      639.707        1.199        0.327      132.086       30.437        0.053      344.312       21.040      855.417
06/10/2013  05:24:00      -97.151      -44.575       -4.044       33.212       33.733       20.565     1103.004     1137.930      422.903        0.705        0.133      106.889       14.074        0.017      344.103       20.684      855.434
06/10/2013  05:25:00     -135.296      -21.111      -16.323       47.659       42.408       17.795     2271.382     1798.444      316.652        1.170        0.219      136.933       19.780        0.021      344.166       20.791      855.423
06/10/2013  05:26:00     -115.456        7.406       -8.696       49.049       35.286       20.610     2405.802     1245.106      424.762        0.877        0.204      115.693       22.275        0.037      343.916       20.365      855.426
06/10/2013  05:27:00     -111.793       45.799       -7.424       60.664       44.458       26.233     3680.097     1976.472      688.178        1.050        0.317      120.811       31.848        0.069      344.671       21.656      855.435
06/10/2013  05:28:00      -29.402       25.478        0.381       24.112       42.479       16.642      581.366     1804.436      276.952        0.209        0.133       38.905       19.277        0.246      344.703       21.710      855.419
06/10/2013  05:29:00      -84.034       52.627      -16.285       24.477       27.010       16.384      599.121      729.562      268.449        0.585        0.080       99.153        8.263        0.007      344.483       21.333      855.416
06/10/2013  05:30:00      -73.003       45.230      -19.116       34.812       32.164       12.762     1211.888     1034.531      162.864        0.507        0.120       85.879        4.650        0.003      344.472       21.316      855.418
06/10/2013  05:31:00     -115.828      -15.202       -8.864       32.827       30.086       18.452     1077.620      905.178      340.482        0.802        0.116      116.821       15.722        0.018      344.209       20.866      855.433
06/10/2013  05:32:00      -77.344      -16.585       -1.242       21.175       28.806       14.171      448.368      829.760      200.807        0.387        0.074       79.102        8.449        0.011      344.125       20.723      855.452
06/10/2013  05:33:00      -81.641       -7.605       -1.684       20.371       20.681       15.135      414.983      427.688      229.080        0.390        0.054       81.994       10.857        0.018      344.053       20.600      855.464
06/10/2013  05:34:00     -101.904        9.822       -8.652       14.036       26.828       15.578      197.002      719.738      242.670        0.586        0.058      102.376        8.128        0.006      344.116       20.707      855.481
06/10/2013  05:35:00      -99.839       14.844      -10.477       22.177       17.650       15.162      491.838      311.525      229.879        0.567        0.052      100.936       14.426        0.020      344.065       20.619      855.494
06/10/2013  05:36:00     -100.027        7.459       -5.683       26.772       27.487       15.541      716.760      755.551      241.535        0.590        0.086      100.305       11.705        0.014      344.027       20.554      855.487
06/10/2013  05:37:00     -103.127       70.461      -18.134       25.441       24.537       20.253      647.241      602.050      410.178        0.879        0.083      124.899       12.216        0.010      344.324       21.063      855.475
06/10/2013  05:38:00      -87.770       22.714       -5.399       21.133       18.612       10.687      446.624      346.397      114.204        0.458        0.045       90.661        5.258        0.003      344.186       20.826      855.483
06/10/2013  05:39:00     -105.089        8.918      -12.940       21.922       41.261       16.824      480.564     1702.443      283.059        0.688        0.123      105.467        9.267        0.008      344.141       20.748      855.502
06/10/2013  05:40:00      -68.843      -40.483        0.173       42.045       32.062       21.845     1767.745     1027.970      477.195        0.482        0.164       79.864       12.181        0.023      343.911       20.358      855.528
06/10/2013  05:41:00      -15.004      -64.184        4.672       40.583       34.178       32.647     1646.994     1168.110     1065.807        0.412        0.194       65.914       27.186        0.170      343.832       20.222      855.525
06/10/2013  05:42:00      -46.638      -57.296       -1.922       37.719       30.466       22.566     1422.708      928.173      509.232        0.416        0.143       73.878        8.389        0.013      343.803       20.174      855.513
06/10/2013  05:43:00      -46.108      -62.087        4.795       37.161       42.450       23.076     1380.974     1802.042      532.509        0.486        0.186       77.335       26.731        0.119      343.837       20.232      855.507
06/10/2013  05:44:00      -84.738      -68.239       -0.144       38.655       42.862       20.826     1494.174     1837.130      433.728        0.780        0.188      108.799       19.029        0.031      343.917       20.367      855.503
06/10/2013  05:45:00      -60.120      -79.406        7.734       47.701       35.739       23.833     2275.419     1277.273      568.001        0.705        0.206       99.598       22.387        0.051      343.883       20.309      855.500
06/10/2013  05:46:00      -73.483      -31.299       -3.933       55.842       54.175       29.476     3118.311     2934.936      868.808        0.666        0.346       79.871       25.659        0.103      343.818       20.198      855.501
06/10/2013  05:47:00      -35.122      -27.097        6.195       33.316       38.306       23.989     1109.935     1467.324      575.461        0.258        0.158       44.360       27.552        0.386      343.853       20.257      855.491
06/10/2013  05:48:00      -50.118      -50.617        4.184       37.132       39.353       18.330     1378.789     1548.634      335.988        0.418        0.163       71.231       13.843        0.038      343.925       20.380      855.477
06/10/2013  05:49:00      -71.758      -62.817        1.609       68.192       28.976       26.690     4650.108      839.581      712.344        0.765        0.310       95.369       16.970        0.032      343.824       20.208      855.480
06/10/2013  05:50:00      -84.793     -105.250        9.207       43.248       32.157       23.443     1870.348     1034.070      549.572        1.090        0.173      135.157       20.471        0.023      343.779       20.131      855.482
06/10/2013  05:51:00      -18.645      -36.050       11.213       40.196       33.078       25.330     1615.747     1094.153      641.627        0.256        0.168       40.586       23.731        0.342      343.776       20.125      855.471
06/10/2013  05:52:00      -34.424      -46.737       15.667       43.453       29.613       22.632     1888.201      876.933      512.217        0.345        0.164       58.046       21.612        0.139      343.810       20.183      855.465
06/10/2013  05:53:00      -49.753      -52.064       -2.692       37.797       31.731       14.404     1428.643     1006.832      207.467        0.392        0.132       72.014       14.796        0.042      343.755       20.091      855.468
06/10/2013  05:54:00      -58.432      -45.912        1.431       22.574       22.301       17.916      509.599      497.339      320.971        0.343        0.066       74.311       16.784        0.051      343.788       20.146      855.479
06/10/2013  05:55:00      -12.675      -15.306        3.501       17.394       15.412       10.745      302.540      237.536      115.452        0.053        0.033       19.873       12.140        0.373      343.850       20.253      855.481
06/10/2013  05:56:00      -26.079      -30.446        0.190       31.317       19.754       12.946      980.737      390.233      167.595        0.157        0.077       40.088       13.699        0.117      343.821       20.202      855.480
06/10/2013  05:57:00      -32.243      -38.009        5.924       23.305       24.125       17.855      543.138      582.020      318.784        0.198        0.072       49.843       10.244        0.042      343.764       20.106      855.478
06/10/2013  05:58:00      -35.230      -51.785        0.390       21.789       19.373       11.991      474.756      375.308      143.788        0.246        0.050       62.633        8.690        0.019      343.798       20.164      855.467
06/10/2013  05:59:00      -55.595      -39.886       -8.813       18.529       22.587       15.982      343.317      510.175      255.428        0.293        0.055       68.423       12.987        0.036      343.830       20.217      855.457
06/10/2013  06:00:00      -35.280      -33.086        1.567       23.586       22.766       13.871      556.294      518.271      192.415        0.180        0.063       48.367       13.901        0.083      343.770       20.115      855.450
06/10/2013  06:01:00      -53.279      -42.958       -3.264       36.465       20.954       13.937     1329.725      439.073      194.252        0.333        0.098       68.440       13.252        0.037      343.800       20.164      855.449
06/10/2013  06:02:00      -31.607      -37.351        7.666       29.900       29.982       15.148      894.014      898.925      229.469        0.224        0.101       48.929       15.394        0.099      343.782       20.137      855.449
06/10/2013  06:03:00      -37.228      -25.283        0.488       25.802       19.076       11.938      665.769      363.884      142.526        0.160        0.059       45.002        8.564        0.036      343.707       20.008      855.456
06/10/2013  06:04:00      -74.225      -27.505      -12.329       10.914       15.731        9.122      119.124      247.451       83.208        0.343        0.022       79.157        7.821        0.010      343.664       19.931      855.453
06/10/2013  06:05:00      -44.233      -47.169       -6.693       27.187       19.748       13.149      739.132      389.985      172.886        0.276        0.065       64.664       13.803        0.046      343.726       20.040      855.445
06/10/2013  06:06:00      -67.156      -41.399       -3.211       33.041       22.516       12.514     1091.709      506.974      156.602        0.399        0.088       78.891       14.163        0.032      343.690       19.978      855.456
06/10/2013  06:07:00        7.037      -25.633        2.920       22.112       13.308       13.126      488.935      177.094      172.284        0.078        0.042       26.582        7.119        0.072      343.769       20.113      855.450
06/10/2013  06:08:00      -10.828      -32.577       15.587       27.429       18.699       15.464      752.339      349.667      239.131        0.138        0.067       34.329       15.242        0.197      343.607       19.837      855.446
06/10/2013  06:09:00       24.709      -63.836       -3.555       32.671       24.202       23.588     1067.410      585.715      556.405        0.345        0.110       68.451       14.852        0.047      343.532       19.710      855.445
06/10/2013  06:10:00       21.353      -54.792      -10.756       17.595       16.588       16.674      309.582      275.155      278.022        0.222        0.043       58.806        6.197        0.011      343.776       20.126      855.445
06/10/2013  06:11:00        8.980      -38.303       -9.160       14.428       15.512       12.619      208.171      240.607      159.229        0.112        0.030       39.342        8.534        0.047      343.827       20.213      855.451
06/10/2013  06:12:00      -25.608      -59.604        1.004       15.446       11.263       14.225      238.579      126.865      202.364        0.239        0.028       64.872        3.707        0.003      343.889       20.319      855.465
06/10/2013  06:13:00       -0.392      -43.428       -9.735       22.920       18.885       10.836      525.319      356.628      117.408        0.149        0.050       43.430        7.390        0.029      343.895       20.327      855.477
06/10/2013  06:14:00       11.305      -27.982       10.553       19.209       28.400       21.233      368.972      806.534      450.825        0.132        0.081       30.180       16.977        0.316      343.789       20.148      855.469
06/10/2013  06:15:00       -8.425       -0.755       12.987       10.457       24.253       10.161      109.345      588.232      103.242        0.052        0.040        8.459        6.578        0.605      343.656       19.922      855.478
06/10/2013  06:16:00       12.115        8.829       -2.408       15.082       12.558       10.608      227.457      157.695      112.539        0.036        0.025       14.991        6.015        0.161      343.717       20.023      855.492
06/10/2013  06:17:00       16.463      -21.660       -3.105       12.708       30.333       12.700      161.488      920.111      161.301        0.100        0.062       27.206       12.500        0.211      343.645       19.901      855.495
06/10/2013  06:18:00        3.257      -43.941       -5.084       12.595        8.531       12.729      158.626       72.778      162.035        0.118        0.020       44.061        5.842        0.018      343.793       20.156      855.490
06/10/2013  06:19:00       -8.518      -30.715       -0.229       12.624        9.132        9.548      159.357       83.396       91.158        0.067        0.017       31.874        5.019        0.025      343.987       20.485      855.496
06/10/2013  06:20:00       -3.668      -32.174       -4.098       12.779       13.180        8.081      163.295      173.722       65.299        0.073        0.020       32.383        4.533        0.020      343.909       20.354      855.499
06/10/2013  06:21:00       -3.124      -20.771        5.322       16.849       19.320       14.548      283.904      373.265      211.649        0.067        0.043       21.005       16.221        0.596      344.057       20.606      855.486
06/10/2013  06:22:00      -19.066       -1.911       -2.689       13.100        8.058        9.018      171.618       64.933       81.327        0.035        0.016       19.161        6.439        0.113      343.910       20.353      855.476
06/10/2013  06:23:00       20.181       -5.075       -2.025       26.485       12.139       14.107      701.475      147.347      199.020        0.074        0.052       20.809        5.944        0.082      343.967       20.452      855.472
06/10/2013  06:24:00       18.382       -8.753        5.088       13.577       16.921       21.575      184.332      286.311      465.470        0.069        0.047       20.360       12.742        0.392      343.992       20.493      855.468
06/10/2013  06:25:00       31.545      -49.503      -13.093       23.460       22.234       19.741      550.352      494.329      389.695        0.253        0.072       58.700       11.698        0.040      343.882       20.309      855.464
06/10/2013  06:26:00      -19.204      -20.405      -13.026       37.368       20.188       14.125     1396.400      407.549      199.513        0.148        0.100       28.020       13.942        0.248      343.943       20.412      855.480
06/10/2013  06:27:00      -53.934      -24.414      -16.034       25.882       26.064       23.697      669.855      679.331      561.535        0.284        0.096       59.202       15.667        0.070      343.922       20.375      855.471
06/10/2013  06:28:00        8.458      -38.062       -5.274       16.096       21.283       19.356      259.089      452.946      374.671        0.132        0.054       38.991       17.464        0.201      343.872       20.288      855.473
06/10/2013  06:29:00        0.549      -12.223       12.836       12.002       23.383       18.896      144.037      546.771      357.056        0.068        0.052       12.236       15.379        1.580      344.020       20.542      855.460
06/10/2013  06:30:00       18.662      -19.517       18.338       29.368       46.947       21.451      862.473     2204.053      460.150        0.230        0.176       27.003       23.774        0.775      343.852       20.254      855.458
06/10/2013  06:31:00       15.695      -48.540        3.296       30.261       26.861       23.715      915.738      721.530      562.424        0.241        0.110       51.014       19.616        0.148      343.686       19.973      855.476
06/10/2013  06:32:00       25.090      -67.527       -5.499       31.394       17.687       16.290      985.608      312.839      265.348        0.339        0.078       72.038        3.867        0.003      343.826       20.211      855.488
06/10/2013  06:33:00       24.624      -47.392        6.439       28.805       19.684       20.838      829.712      387.477      434.226        0.227        0.083       53.408       19.164        0.129      343.935       20.398      855.494
06/10/2013  06:34:00       16.873      -16.529       25.740       22.094       38.588       20.085      488.149     1489.000      403.413        0.180        0.119       23.620       21.726        0.846      343.963       20.446      855.470
06/10/2013  06:35:00        8.878        8.351       34.866       39.497       42.160       30.617     1560.003     1777.487      937.392        0.282        0.214       12.188       21.922        3.235      343.930       20.388      855.455
06/10/2013  06:36:00      114.056       72.520       41.777       36.889       27.033       29.164     1360.829      730.760      850.519        1.148        0.147      135.159       17.523        0.017      343.831       20.219      855.466
06/10/2013  06:37:00       87.166       46.796       16.809       49.593       28.286       25.940     2459.421      800.098      672.886        0.700        0.197       98.933       18.513        0.035      343.799       20.164      855.483
06/10/2013  06:38:00       24.594       23.138       34.875       37.703       29.926       24.240     1421.541      895.573      587.573        0.263        0.145       33.767       21.347        0.400      343.891       20.321      855.513
06/10/2013  06:39:00       -9.620      -38.636        4.746       20.132       25.138       17.080      405.306      631.912      291.734        0.147        0.066       39.816       10.329        0.067      343.746       20.076      855.532
06/10/2013  06:40:00       12.436      -47.496       -5.421       25.096       22.927       19.171      629.816      525.644      367.514        0.198        0.076       49.097       15.633        0.101      343.716       20.024      855.558
06/10/2013  06:41:00       23.472      -16.625       -2.897       28.670       15.584       16.059      821.987      242.852      257.883        0.108        0.066       28.764       10.683        0.138      343.820       20.200      855.561
06/10/2013  06:42:00        8.144      -48.845        9.870       22.394       29.434       26.423      501.496      866.334      698.158        0.231        0.103       49.519       16.772        0.115      343.948       20.420      855.561
06/10/2013  06:43:00       31.899      -55.626        7.136       27.619       48.522       23.532      762.817     2354.432      553.763        0.392        0.184       64.123       26.573        0.172      343.942       20.409      855.551
06/10/2013  06:44:00        4.223      -40.403       24.017       19.065       34.624       19.042      363.486     1198.790      362.607        0.208        0.096       40.623       12.782        0.099      344.056       20.604      855.553
06/10/2013  06:45:00       24.415      -81.335        9.920       27.164       18.171       21.260      737.903      330.179      451.967        0.441        0.076       84.920       17.509        0.043      344.054       20.601      855.552
06/10/2013  06:46:00        2.594      -32.388       31.575       22.173       41.553       18.059      491.661     1726.646      326.112        0.230        0.127       32.492        9.833        0.092      344.094       20.667      855.541
06/10/2013  06:47:00       -0.026      -32.815       24.394       19.739       46.453       24.535      389.614     2157.923      601.954        0.241        0.157       32.815        9.477        0.083      344.048       20.590      855.528
06/10/2013  06:48:00       13.968       15.118       32.463       21.159       41.512       28.659      447.699     1723.232      821.345        0.223        0.150       20.582       26.405        1.646      344.124       20.721      855.531
06/10/2013  06:49:00       18.294        4.959       13.026       51.228       47.207       30.702     2624.355     2228.517      942.595        0.316        0.290       18.954       22.666        1.430      343.926       20.383      855.537
06/10/2013  06:50:00       23.316       25.861       42.461       29.488       32.620       29.518      869.563     1064.095      871.316        0.291        0.140       34.820       20.165        0.335      344.088       20.659      855.555
06/10/2013  06:51:00       33.977       23.815       22.767       32.084       23.387       21.242     1029.385      546.960      451.242        0.213        0.101       41.492       14.736        0.126      344.149       20.762      855.560
06/10/2013  06:52:00       -8.515      -40.572        3.715       28.873       30.975       25.611      833.631      959.468      655.944        0.209        0.122       41.456       16.193        0.153      343.871       20.288      855.561
06/10/2013  06:53:00       27.420      -41.477        9.857       36.382       62.345       31.238     1323.630     3886.868      975.815        0.438        0.309       49.721       38.896        0.612      343.983       20.479      855.572
06/10/2013  06:54:00       51.104      -80.820       -3.598       34.044       52.840       23.002     1158.992     2792.041      529.080        0.682        0.224       95.622       24.557        0.066      343.905       20.347      855.558
06/10/2013  06:55:00       34.585      -30.043        6.258       35.557       47.792       34.436     1264.320     2284.028     1185.870        0.344        0.237       45.812       28.172        0.378      344.012       20.530      855.558
06/10/2013  06:56:00       56.192      -62.871       -2.362       33.623       32.320       31.072     1130.482     1044.614      965.475        0.513        0.157       84.323       19.088        0.051      343.720       20.030      855.546
06/10/2013  06:57:00       25.747      -15.617       18.097       48.330       36.585       29.474     2335.789     1338.490      868.691        0.289        0.227       30.113       36.721        1.487      343.949       20.421      855.523
06/10/2013  06:58:00       45.853       44.151       22.920       43.144       27.982       23.859     1861.420      782.982      569.247        0.389        0.161       63.654       16.885        0.070      344.092       20.666      855.518
06/10/2013  06:59:00       54.588       56.156       25.603       31.457       25.479       26.327      989.553      649.169      693.112        0.456        0.117       78.315       14.671        0.035      344.106       20.690      855.511
06/10/2013  07:00:00       61.058       45.522       35.718       29.079       25.108       25.399      845.603      630.397      645.094        0.460        0.106       76.160       16.251        0.046      344.036       20.571      855.532
06/10/2013  07:01:00       22.277       -5.714        1.686       31.639       44.131       23.629     1001.015     1947.561      558.313        0.202        0.175       22.998       22.076        0.921      344.000       20.509      855.536
06/10/2013  07:02:00      -15.670      -42.824        0.129       21.354       20.123       22.758      455.972      404.916      517.935        0.173        0.069       45.601       10.105        0.049      344.000       20.509      855.525
06/10/2013  07:03:00       41.090      -46.781       11.212       24.309       36.776       20.987      590.907     1352.504      440.464        0.319        0.119       62.264       24.213        0.151      344.040       20.577      855.521
06/10/2013  07:04:00       20.830      -51.193       15.502       26.895       39.802       32.669      723.364     1584.238     1067.281        0.333        0.169       55.268       24.592        0.198      344.005       20.517      855.495
06/10/2013  07:05:00       40.927      -69.590       -8.254       28.281       36.675       29.987      799.812     1345.045      899.248        0.481        0.152       80.733       20.103        0.062      343.739       20.063      855.489
06/10/2013  07:06:00       51.836      -79.900      -15.483       41.007       41.584       25.826     1681.613     1729.188      666.994        0.669        0.204       95.242       14.768        0.024      343.752       20.084      855.483
06/10/2013  07:07:00       16.298      -63.487       14.239       31.167       40.152       30.523      971.393     1612.191      931.679        0.401        0.176       65.546       21.939        0.112      343.881       20.304      855.491
06/10/2013  07:08:00       13.463      -55.689        5.664       23.749       23.551       23.956      564.031      554.663      573.873        0.250        0.085       57.294       14.545        0.064      343.916       20.365      855.502
06/10/2013  07:09:00        4.071      -34.263        8.939       15.355       31.280       19.980      235.774      978.468      399.209        0.144        0.081       34.504       15.450        0.201      344.084       20.652      855.507
06/10/2013  07:10:00        3.904        7.956       19.264       11.072       10.384        8.758      122.598      107.828       76.708        0.038        0.015        8.862        5.515        0.387      344.499       21.360      855.520
06/10/2013  07:11:00       13.312       16.459       13.177       14.058       14.505       14.039      197.630      210.381      197.107        0.061        0.030       21.169       10.462        0.244      344.346       21.100      855.509
06/10/2013  07:12:00       10.935      -18.464       12.744       13.506       33.809       17.860      182.407     1143.042      318.994        0.113        0.082       21.459       18.531        0.746      344.253       20.941      855.503
06/10/2013  07:13:00       -6.506      -33.835       -4.263       18.511       22.244       19.037      342.666      494.803      362.416        0.120        0.060       34.455       10.182        0.087      344.219       20.883      855.500
06/10/2013  07:14:00       -4.652      -16.241       12.800       14.965       20.329       18.116      223.957      413.271      328.193        0.071        0.048       16.894       12.789        0.573      344.541       21.433      855.505
06/10/2013  07:15:00      -20.998       10.682        3.529       19.982       18.536       19.748      399.297      343.581      389.968        0.085        0.057       23.559        9.057        0.148      344.278       20.984      855.508
06/10/2013  07:16:00      -22.138        5.612       -8.749       29.150       27.865       15.896      849.697      776.440      252.687        0.124        0.094       22.838        9.288        0.165      344.164       20.789      855.522
06/10/2013  07:17:00      -20.589      -11.212        2.749       24.476       22.856       18.096      599.085      522.404      327.464        0.100        0.072       23.444       11.830        0.255      344.375       21.150      855.525
06/10/2013  07:18:00      -42.364       -4.589       -4.997       27.019       23.552       17.171      730.037      554.713      294.850        0.171        0.079       42.611        7.346        0.030      344.175       20.809      855.515
06/10/2013  07:19:00      -29.522      -17.287       -2.096       32.314       31.875       14.828     1044.222     1016.016      219.871        0.173        0.114       34.211        8.863        0.067      344.223       20.889      855.507
06/10/2013  07:20:00       -9.500      -27.306       22.970       30.226       47.247       26.861      913.598     2232.324      721.506        0.261        0.193       28.912       27.266        0.889      344.417       21.222      855.501
06/10/2013  07:21:00      -20.889       24.852       15.591       22.731       24.913       19.586      516.696      620.650      383.607        0.141        0.076       32.465        7.171        0.049      344.256       20.945      855.503
06/10/2013  07:22:00      -27.603      -12.036       -1.373       27.206       23.375       17.515      740.188      546.401      306.775        0.125        0.080       30.113       10.867        0.130      344.243       20.924      855.509
06/10/2013  07:23:00      -22.862        7.627      -12.242       29.313       17.568       15.779      859.274      308.620      248.974        0.107        0.071       24.101       10.653        0.195      344.207       20.862      855.516
06/10/2013  07:24:00      -32.965       10.890       -4.457       13.291       15.318       16.232      176.660      234.628      263.487        0.095        0.034       34.717        8.115        0.055      344.265       20.961      855.538
06/10/2013  07:25:00      -37.205      -15.955       -7.380       27.399       22.813       20.344      750.710      520.450      413.880        0.169        0.084       40.482       11.470        0.080      344.301       21.023      855.543
06/10/2013  07:26:00      -45.614      -19.670       -3.992       26.574       19.074       15.346      706.189      363.810      235.487        0.189        0.065       49.674       12.483        0.063      344.248       20.933      855.536
06/10/2013  07:27:00      -45.830        4.777        4.751       33.069       21.755       22.784     1093.534      473.290      519.125        0.212        0.104       46.078       15.851        0.118      344.381       21.160      855.529
06/10/2013  07:28:00      -37.052        2.722       -4.101       25.402       22.343       19.916      645.239      499.220      396.639        0.147        0.077       37.151       12.810        0.119      344.348       21.104      855.531
06/10/2013  07:29:00      -36.133       -0.489       -3.178       28.289       21.654       15.005      800.283      468.907      225.153        0.140        0.075       36.136       11.409        0.100      344.396       21.186      855.541
06/10/2013  07:30:00      -67.268       14.644      -13.977       25.582       12.613       10.221      654.463      159.099      104.466        0.293        0.046       68.844        8.104        0.014      344.404       21.198      855.550
06/10/2013  07:31:00      -16.062        1.701       14.981       33.424       15.634       17.984     1117.140      244.407      323.406        0.108        0.084       16.152       19.918        1.521      344.925       22.089      855.559
06/10/2013  07:32:00      -43.526       -8.696        3.341       17.035       12.005       12.409      290.185      144.121      153.978        0.128        0.029       44.386        7.928        0.032      344.528       21.411      855.561
06/10/2013  07:33:00      -37.680       26.581        4.118       16.436       19.441       19.808      270.154      377.961      392.344        0.159        0.052       46.112       14.922        0.105      344.563       21.471      855.571
06/10/2013  07:34:00      -28.004       -0.342       -0.547       15.618       20.845       18.802      243.936      434.515      353.501        0.091        0.052       28.006       16.017        0.327      344.688       21.685      855.567
06/10/2013  07:35:00       11.714      -28.603       -0.849       29.340       27.326       20.623      860.859      746.686      425.291        0.149        0.102       30.908       13.136        0.181      344.482       21.332      855.565
06/10/2013  07:36:00        6.415      -35.954      -12.207       27.997       29.432       16.633      783.811      866.221      276.665        0.170        0.096       36.522        7.085        0.038      344.466       21.305      855.570
06/10/2013  07:37:00       18.702      -40.471       -5.457       25.062       22.103       20.562      628.110      488.523      422.813        0.178        0.077       44.583       15.959        0.128      344.620       21.568      855.576
06/10/2013  07:38:00      -43.136      -48.883        4.595       26.431       30.943       15.535      698.572      957.444      241.335        0.308        0.095       65.194       17.076        0.069      344.714       21.729      855.587
06/10/2013  07:39:00      -42.361      -29.245       -7.956       38.190       36.481       22.783     1458.472     1330.855      519.064        0.301        0.165       51.476       27.923        0.294      344.749       21.788      855.597
06/10/2013  07:40:00      -36.186       38.776       20.898       25.173       22.328       17.703      633.677      498.544      313.384        0.235        0.072       53.038       12.990        0.060      344.962       22.154      855.597
06/10/2013  07:41:00       17.938        4.634       35.535       27.873       22.335       21.469      776.891      498.848      460.906        0.167        0.087       18.527       15.562        0.706      345.384       22.878      855.611
06/10/2013  07:42:00       25.776        9.998       10.644       29.793       30.315       28.524      887.648      918.984      813.643        0.175        0.131       27.647       12.304        0.198      344.593       21.521      855.614
06/10/2013  07:43:00       -1.610       17.306        2.999       21.259       14.997       13.931      451.944      224.906      194.073        0.059        0.044       17.380        8.618        0.246      344.900       22.047      855.628
06/10/2013  07:44:00      -28.158        0.219       -1.462       14.464       14.265       13.408      209.209      203.477      179.765        0.069        0.030       28.159        9.395        0.111      344.720       21.739      855.643
06/10/2013  07:45:00      -37.569      -19.072       -5.846       19.832       12.611        8.229      393.306      159.028       67.717        0.121        0.031       42.133        4.438        0.011      344.704       21.712      855.651
06/10/2013  07:46:00      -26.265      -21.692       14.144       37.536       28.643       21.279     1408.981      820.397      452.792        0.202        0.134       34.064       17.675        0.269      345.176       22.519      855.667
06/10/2013  07:47:00     -100.538     -120.673       -6.634       32.301       34.260       25.037     1043.375     1173.756      626.830        1.378        0.142      157.066       20.069        0.016      344.721       21.739      855.681
06/10/2013  07:48:00      -45.689      -81.914       -2.889       34.558       29.102       23.546     1194.286      846.944      554.397        0.570        0.130       93.795       11.627        0.015      344.850       21.961      855.689
06/10/2013  07:49:00      -24.684      -52.451       -1.012       26.274       29.432       16.089      690.343      866.225      258.851        0.259        0.091       57.969       11.048        0.036      344.901       22.049      855.698
06/10/2013  07:50:00      -95.682      -55.678        6.136       56.112       59.698       24.424     3148.534     3563.857      596.539        0.980        0.365      110.703       23.969        0.047      344.830       21.927      855.709
06/10/2013  07:51:00     -103.535      -58.718        1.255       74.431       54.168       35.290     5539.901     2934.173     1245.389        1.194        0.486      119.027       45.161        0.144      344.920       22.081      855.710
06/10/2013  07:52:00      -98.507     -118.628       -3.018       52.259       58.820       27.889     2730.978     3459.759      777.811        1.538        0.348      154.195       34.134        0.049      344.767       21.818      855.722
06/10/2013  07:53:00      -34.877      -18.717        4.442       49.073       48.396       25.851     2408.169     2342.182      668.250        0.350        0.271       39.582        7.528        0.036      345.001       22.221      855.712
06/10/2013  07:54:00      -32.289      -20.209      -15.956       44.504       41.933       20.722     1980.572     1758.354      429.393        0.294        0.208       38.091       22.487        0.349      344.927       22.093      855.713
06/10/2013  07:55:00      -43.893      -31.021        8.647       46.956       32.329       26.826     2204.847     1045.148      719.640        0.347        0.198       53.748       31.190        0.337      345.215       22.589      855.708
06/10/2013  07:56:00      -59.380       -8.602       -1.779       36.710       30.615       24.548     1347.629      937.265      602.620        0.324        0.144       60.000       16.999        0.080      345.057       22.317      855.710
06/10/2013  07:57:00      -53.163      -13.727       14.534       43.473       38.444       27.300     1889.898     1477.976      745.311        0.367        0.206       54.906       23.250        0.179      345.119       22.422      855.710
06/10/2013  07:58:00      -48.903      -56.539       -2.256       45.197       40.162       18.873     2042.804     1612.961      356.200        0.480        0.201       74.754       16.096        0.046      344.910       22.065      855.703
06/10/2013  07:59:00      -92.134      -65.964        3.576       50.592       39.745       25.692     2559.549     1579.673      660.102        0.883        0.240      113.314       16.502        0.021      344.948       22.131      855.704
06/10/2013  08:00:00      -87.242      -63.101       -3.576       28.105       23.526       26.541      789.895      553.490      704.444        0.683        0.102      107.671       20.125        0.035      344.903       22.054      855.708
06/10/2013  08:01:00     -123.684     -109.709       -9.907       57.400       47.196       31.999     3294.784     2227.434     1023.945        1.699        0.327      165.329       30.906        0.035      344.886       22.023      855.690
06/10/2013  08:02:00      -57.853      -64.995        6.912       53.328       44.305       24.702     2843.909     1962.950      610.178        0.652        0.271       87.014       26.856        0.095      344.992       22.204      855.680
06/10/2013  08:03:00      -70.512      -49.983        9.390       44.896       45.920       25.046     2015.607     2108.652      627.289        0.615        0.238       86.431       27.881        0.104      344.989       22.199      855.687
06/10/2013  08:04:00      -77.027      -54.093       -2.306       33.430       33.798       18.880     1117.585     1142.285      356.449        0.574        0.131       94.123       19.446        0.043      344.973       22.172      855.696
06/10/2013  08:05:00      -62.869      -73.320       -3.121       33.575       25.662       21.613     1127.301      658.547      467.110        0.580        0.113       96.584       16.930        0.031      344.900       22.048      855.690
06/10/2013  08:06:00      -84.224       -0.423      -10.480       28.805       14.213       17.190      829.725      202.009      295.486        0.427        0.066       84.225       12.348        0.021      344.901       22.048      855.688
06/10/2013  08:07:00      -35.816      -16.543        1.519       28.646       25.996       16.827      820.613      675.785      283.146        0.167        0.089       39.452       16.370        0.172      345.304       22.740      855.699
06/10/2013  08:08:00      -46.464      -10.186        3.402       23.249       20.416       18.115      540.497      416.824      328.155        0.178        0.064       47.568       11.085        0.054      345.146       22.469      855.702
06/10/2013  08:09:00      -38.832      -35.279        5.934       18.048       27.835       16.977      325.722      774.805      288.230        0.209        0.069       52.465       14.274        0.074      345.178       22.524      855.706
06/10/2013  08:10:00      -25.459      -31.320       17.592       22.222       31.513       18.425      493.812      993.056      339.463        0.188        0.091       40.363       11.296        0.078      345.499       23.076      855.707
06/10/2013  08:11:00      -24.164      -43.735      -15.686       19.151       22.664       12.849      366.745      513.665      165.104        0.189        0.052       49.967       10.345        0.043      345.131       22.442      855.703
06/10/2013  08:12:00      -33.345      -27.926        3.045       26.852       26.817       18.052      721.010      719.151      325.861        0.183        0.088       43.494       15.666        0.130      345.502       23.078      855.711
06/10/2013  08:13:00      -56.012        0.520        6.909       39.201       25.866       26.094     1536.716      669.057      680.907        0.304        0.144       56.014       24.366        0.189      345.399       22.902      855.709
06/10/2013  08:14:00      -69.883      -38.924        0.439       33.144       32.881       22.031     1098.512     1081.148      485.378        0.453        0.133       79.992       21.815        0.074      345.335       22.794      855.705
06/10/2013  08:15:00      -46.838      -21.665        7.581       46.569       24.130       21.724     2168.663      582.276      471.918        0.297        0.161       51.606       21.372        0.172      345.573       23.202      855.707
06/10/2013  08:16:00      -79.149      -53.994        5.649       42.228       53.864       32.696     1783.227     2901.332     1069.034        0.748        0.288       95.812       35.914        0.140      345.347       22.813      855.713
06/10/2013  08:17:00      -71.896      -50.685       -3.446       18.986       16.839       11.852      360.485      283.563      140.466        0.427        0.039       87.966        7.944        0.008      345.121       22.426      855.729
06/10/2013  08:18:00      -10.089      -10.046       16.828       14.623       13.389       23.386      213.831      179.272      546.882        0.071        0.047       14.238       17.089        1.441      346.044       24.010      855.727
06/10/2013  08:19:00      -27.943        8.162        3.601       14.448       12.186       14.531      208.754      148.504      211.146        0.071        0.028       29.110       11.319        0.151      345.500       23.074      855.718
06/10/2013  08:20:00      -63.432       -8.198        3.304       14.891       27.035       15.683      221.733      730.890      245.953        0.265        0.060       63.960        9.532        0.022      345.268       22.677      855.727
06/10/2013  08:21:00      -20.731       23.327       25.955       43.803       49.495       32.485     1918.669     2449.803     1055.254        0.353        0.271       31.208       30.606        0.962      345.839       23.657      855.700
06/10/2013  08:22:00       -2.740      -10.498       23.573       25.342       29.463       27.447      642.233      868.087      753.322        0.147        0.113       10.850       12.140        1.252      346.060       24.037      855.699
06/10/2013  08:23:00        0.869       13.534       50.367       18.264       47.236       24.872      333.592     2231.246      618.627        0.295        0.159       13.562       13.373        0.972      346.324       24.490      855.699
06/10/2013  08:24:00        3.353        3.806       31.383       26.860       24.465       22.741      721.469      598.560      517.155        0.142        0.092        5.072       16.146       10.134      346.426       24.667      855.691
06/10/2013  08:25:00      -49.681      -39.210       -0.757       25.766       31.885       15.176      663.870     1016.683      230.302        0.296        0.096       63.290       19.386        0.094      345.699       23.418      855.704
06/10/2013  08:26:00      -52.645      -53.309        0.521       23.869       34.535       14.827      569.747     1192.648      219.828        0.380        0.099       74.923       13.141        0.031      345.511       23.092      855.712
06/10/2013  08:27:00     -118.129     -110.553      -10.533       44.314       32.551       22.133     1963.720     1059.540      489.890        1.490        0.176      161.791       18.530        0.013      345.434       22.961      855.716
06/10/2013  08:28:00     -126.531      -69.319       -3.303       31.241       30.218       19.105      975.981      913.116      365.005        1.154        0.113      144.275       17.580        0.015      345.401       22.904      855.720
06/10/2013  08:29:00      -17.761      -42.342       16.186       64.247       30.605       22.761     4127.690      936.688      518.074        0.398        0.279       45.916       12.934        0.079      345.895       23.753      855.716
06/10/2013  08:30:00       41.236      -13.540       29.457       41.346       42.531       31.789     1709.484     1808.869     1010.539        0.364        0.226       43.402       32.878        0.574      346.115       24.130      855.721
06/10/2013  08:31:00       -5.679       21.922        5.346       34.000       44.948       23.991     1155.989     2020.340      575.591        0.215        0.188       22.646       20.742        0.839      345.822       23.628      855.714
06/10/2013  08:32:00       14.011     -105.926        9.957       51.733       43.370       33.234     2676.287     1880.962     1104.474        0.859        0.283      106.848       25.689        0.058      345.630       23.296      855.705
06/10/2013  08:33:00       35.010      -62.063       14.364       43.249       50.835       36.865     1870.453     2584.211     1359.014        0.555        0.291       71.257       32.945        0.214      346.102       24.108      855.705
06/10/2013  08:34:00       20.285      -52.150        6.263       21.267       34.279       25.880      452.285     1175.019      669.783        0.273        0.115       55.956       19.807        0.125      346.039       24.000      855.697
06/10/2013  08:35:00       13.496       30.109       39.052       22.471       33.661       23.838      504.944     1133.059      568.268        0.241        0.110       32.996       21.133        0.410      346.362       24.554      855.688
06/10/2013  08:36:00       -0.230      -40.336       -0.268       20.082       29.641       19.653      403.277      878.579      386.227        0.165        0.083       40.337       10.986        0.074      346.088       24.083      855.698
06/10/2013  08:37:00        6.592      -70.432       24.011       22.255       44.184       28.331      495.282     1952.200      802.654        0.441        0.163       70.740       18.369        0.067      346.137       24.169      855.692
06/10/2013  08:38:00       16.709       26.898       17.118       44.718       35.342       28.457     1999.703     1249.090      809.777        0.268        0.203       31.665       16.275        0.264      346.414       24.644      855.664
06/10/2013  08:39:00       72.126       52.060       26.633       52.651       49.944       31.388     2772.109     2494.359      985.195        0.744        0.313       88.952       12.737        0.021      346.055       24.028      855.649
06/10/2013  08:40:00       97.857       67.458       34.091       39.241       34.623       32.145     1539.859     1198.735     1033.275        0.953        0.189      118.855       19.039        0.026      345.871       23.712      855.632
06/10/2013  08:41:00       58.281       57.114       45.584       23.789       37.609       21.422      565.916     1414.453      458.889        0.559        0.122       81.601       17.690        0.047      345.940       23.830      855.638
06/10/2013  08:42:00       25.378       -1.164       25.736       58.607       65.699       25.718     3434.773     4316.354      661.418        0.486        0.421       25.404       19.443        0.586      346.114       24.129      855.622
06/10/2013  08:43:00       55.028      -69.420        8.773       53.819       88.106       56.272     2896.516     7762.746     3166.490        1.087        0.691       88.585       57.795        0.426      346.348       24.530      855.615
06/10/2013  08:44:00       37.760      -55.967       34.545       63.687      104.156       65.633     4056.042    10848.541     4307.735        1.248        0.961       67.513       68.279        1.023      346.219       24.309      855.602
06/10/2013  08:45:00       59.546     -132.434      -13.520       60.522       85.454       63.360     3662.888     7302.403     4014.489        1.812        0.749      145.205       51.815        0.127      346.160       24.205      855.579
06/10/2013  08:46:00       68.968      -88.744        3.697       70.231       68.949       55.068     4932.452     4753.955     3032.448        1.268        0.636      112.393       51.534        0.210      346.175       24.233      855.576
06/10/2013  08:47:00       78.461     -111.592       -1.409       39.953       56.492       44.675     1596.226     3191.380     1995.852        1.270        0.339      136.414       38.694        0.080      346.066       24.046      855.584
06/10/2013  08:48:00       35.064      -68.984        4.125       49.499       48.626       42.280     2450.119     2364.504     1787.614        0.630        0.330       77.384       35.287        0.208      346.204       24.284      855.583
06/10/2013  08:49:00       21.275       -7.964       40.498       40.458       40.080       31.141     1636.850     1606.438      969.772        0.318        0.211       22.717       19.296        0.721      346.894       25.471      855.566
06/10/2013  08:50:00       -0.896        8.994       51.515       25.926       29.849       22.853      672.158      890.964      522.267        0.241        0.104        9.039       20.521        5.154      347.478       26.477      855.557
06/10/2013  08:51:00      -19.545      -26.460       29.612       38.079       44.991       30.545     1450.041     2024.181      932.981        0.318        0.220       32.896       28.477        0.749      346.720       25.171      855.542
06/10/2013  08:52:00      -20.649      -44.810       -0.720       30.038       29.206       16.754      902.287      852.964      280.688        0.223        0.102       49.339        9.691        0.039      346.362       24.557      855.553
06/10/2013  08:53:00      -27.996      -97.932        2.930       28.956       45.592       31.593      838.428     2078.614      998.117        0.715        0.196      101.855       19.028        0.035      346.308       24.462      855.543
06/10/2013  08:54:00      -13.365      -49.412        7.881       27.454       34.144       25.991      753.748     1165.843      675.558        0.264        0.130       51.188       18.624        0.132      346.466       24.734      855.537
06/10/2013  08:55:00      -16.220      -51.176       -3.244       31.251       53.453       22.509      976.599     2857.256      506.663        0.362        0.217       53.685       19.937        0.138      346.333       24.504      855.530
06/10/2013  08:56:00        4.369      -25.092       29.439       36.212       43.191       34.521     1311.296     1865.428     1191.729        0.294        0.218       25.470       17.559        0.475      346.678       25.099      855.527
06/10/2013  08:57:00      -13.970      -25.488       19.853       27.925       30.209       24.710      779.796      912.580      610.608        0.177        0.115       29.065       12.698        0.191      346.668       25.082      855.518
06/10/2013  08:58:00      -43.743     -115.201        3.533       44.461       45.804       36.954     1976.809     2098.016     1365.598        1.032        0.272      123.226       13.750        0.012      346.257       24.374      855.523
06/10/2013  08:59:00       -6.046      -55.427       16.143       38.815       44.973       24.337     1506.598     2022.589      592.287        0.374        0.206       55.756       22.088        0.157      346.668       25.082      855.519
06/10/2013  09:00:00      -52.994      -84.695        0.790       52.983       49.290       22.461     2807.215     2429.521      504.475        0.786        0.287       99.908       24.303        0.059      346.265       24.389      855.528
06/10/2013  09:01:00        0.724      -27.723       27.403       46.765       60.958       40.746     2186.972     3715.880     1660.273        0.454        0.378       27.733       13.228        0.228      346.763       25.245      855.485
06/10/2013  09:02:00       99.760     -112.949      -17.121       64.300       84.620       48.044     4134.441     7160.557     2308.230        1.830        0.680      150.697       43.959        0.085      346.317       24.477      855.459
06/10/2013  09:03:00       72.723      -62.106        3.675       51.627       64.143       46.462     2665.354     4114.329     2158.738        0.905        0.447       95.634       31.858        0.111      346.412       24.641      855.439
06/10/2013  09:04:00      123.663     -112.553       12.299       83.422       70.929       53.995     6959.148     5030.862     2915.510        2.151        0.745      167.215       53.049        0.101      346.476       24.749      855.429
06/10/2013  09:05:00      120.714      -93.052        3.307       97.990       66.898       47.040     9601.978     4475.296     2212.807        1.976        0.815      152.415       44.505        0.085      346.589       24.943      855.415
06/10/2013  09:06:00       48.507      -37.588       46.177       47.759       55.482       44.497     2280.918     3078.228     1979.952        0.662        0.367       61.366       35.749        0.339      347.074       25.781      855.424
06/10/2013  09:07:00       81.154     -100.012      -11.946       59.311       82.466       49.132     3517.759     6800.635     2413.963        1.473        0.637      128.796       45.785        0.126      346.797       25.303      855.419
06/10/2013  09:08:00        9.404      -64.821       23.201       37.255       67.534       36.901     1387.932     4560.889     1361.652        0.607        0.366       65.500       42.362        0.418      346.749       25.221      855.425
06/10/2013  09:09:00       30.741      -45.564       20.424       30.894       54.955       28.272      954.462     3020.050      799.313        0.411        0.239       54.964       32.953        0.359      346.703       25.141      855.422
06/10/2013  09:10:00       26.906      -52.462       26.396       56.213       48.987       34.001     3159.905     2399.747     1156.088        0.544        0.336       58.959       28.613        0.236      347.001       25.657      855.416
06/10/2013  09:11:00       53.769      -66.926       17.090       46.515       76.332       51.912     2163.624     5826.579     2694.829        0.917        0.534       85.850       41.681        0.236      346.882       25.450      855.397
06/10/2013  09:12:00       38.326      -41.325        3.303       38.722       46.914       31.995     1499.429     2200.880     1023.651        0.395        0.236       56.362       32.311        0.329      346.603       24.969      855.410
06/10/2013  09:13:00       47.305      -43.310        1.701       32.508       45.229       30.076     1056.774     2045.619      904.574        0.406        0.200       64.137       30.193        0.222      346.604       24.972      855.421
06/10/2013  09:14:00       17.887      -23.321       32.383       28.599       39.175       23.841      817.909     1534.661      568.413        0.242        0.146       29.391       19.216        0.427      347.347       26.251      855.413
06/10/2013  09:15:00      -10.028       -1.199       22.264       22.292       37.442       19.798      496.935     1401.898      391.948        0.144        0.115       10.099       18.411        3.324      346.881       25.448      855.414
06/10/2013  09:16:00        4.670      -41.138       16.619       32.646       34.511       29.963     1065.792     1191.006      897.804        0.257        0.158       41.402       25.194        0.370      346.959       25.581      855.390
06/10/2013  09:17:00       12.527       12.999       34.169       32.328       30.786       36.225     1045.123      947.783     1312.236        0.240        0.165       18.053       14.562        0.651      347.411       26.362      855.373
06/10/2013  09:18:00      -12.786      -29.504       18.909       23.604       35.622       25.007      557.133     1268.953      625.354        0.192        0.123       32.155       22.219        0.477      347.327       26.218      855.376
06/10/2013  09:19:00      -21.138        8.229       13.619       45.958       39.254       29.372     2112.139     1540.855      862.725        0.261        0.226       22.684       18.154        0.640      347.222       26.037      855.355
06/10/2013  09:20:00      -12.034       31.939       43.781       45.758       39.261       25.649     2093.773     1541.407      657.889        0.369        0.215       34.131       19.654        0.332      347.021       25.688      855.345
06/10/2013  09:21:00       -1.782      -67.828       -1.562       25.328       46.491       24.650      641.528     2161.420      607.598        0.401        0.171       67.851       26.632        0.154      346.815       25.333      855.324
06/10/2013  09:22:00        8.348      -17.362       29.998       23.752       21.104       21.709      564.173      445.374      471.295        0.138        0.074       19.265       16.175        0.705      347.688       26.838      855.312
06/10/2013  09:23:00      -49.367       21.990       13.475       68.532       36.313       27.344     4696.658     1318.668      747.711        0.493        0.338       54.043       37.252        0.475      347.095       25.816      855.292
06/10/2013  09:24:00     -126.361      -43.468       -2.850       69.024       69.533       36.892     4764.249     4834.776     1360.985        1.441        0.548      133.628       32.972        0.061      346.933       25.537      855.323
06/10/2013  09:25:00     -172.565     -128.206       -3.944       90.996       57.773       31.876     8280.323     3337.723     1016.092        2.943        0.632      214.978       31.054        0.021      346.799       25.303      855.326
06/10/2013  09:26:00     -248.057     -173.174       -1.779      142.823      135.848       60.257    20398.435    18454.811     3630.881        6.700        2.124      302.525       68.065        0.051      346.955       25.571      855.313
06/10/2013  09:27:00     -340.840     -224.822       -0.922      157.087      117.040       84.180    24676.325    13698.320     7086.197       10.608        2.273      408.309       91.352        0.050      346.997       25.645      855.289
06/10/2013  09:28:00     -199.098     -209.598       -3.910      147.850       93.168       65.745    21859.515     8680.327     4322.456        5.922        1.743      289.087       66.856        0.053      346.959       25.579      855.287
06/10/2013  09:29:00     -163.922     -161.500        3.601      138.160      106.164       58.520    19088.050    11270.805     3424.632        4.337        1.689      230.114       45.819        0.040      347.123       25.862      855.286
06/10/2013  09:30:00     -317.794     -203.770      -17.895      111.456      103.427       55.445    12422.469    10697.072     3074.180        8.451        1.310      377.512       40.084        0.011      346.877       25.438      855.280
06/10/2013  09:31:00      -99.030      -81.394       16.143       98.677       81.117       47.874     9737.074     6579.900     2291.876        1.765        0.930      128.187       47.710        0.139      347.294       26.158      855.270
06/10/2013  09:32:00     -140.059      -67.139        8.756      129.029      127.038       56.192    16648.579    16138.758     3157.564        3.007        1.797      155.320       62.777        0.163      347.354       26.261      855.259
06/10/2013  09:33:00     -433.338     -291.272      -21.449      181.339      127.427       85.884    32883.818    16237.651     7376.078       16.478        2.825      522.131       90.262        0.030      347.020       25.682      855.243
06/10/2013  09:34:00     -309.760     -219.968       -5.180      159.728      133.077       79.649    25512.908    17709.447     6343.916        9.695        2.478      379.917       83.970        0.049      346.873       25.428      855.279
06/10/2013  09:35:00     -233.910     -147.805       -1.144      142.567      124.734       70.360    20325.309    15558.615     4950.541        5.869        2.042      276.694       79.360        0.082      347.047       25.731      855.252
06/10/2013  09:36:00     -246.565     -158.920       16.713      203.673      158.853       83.469    41482.565    25234.412     6967.135        7.999        3.684      293.343      100.941        0.118      347.239       26.063      855.251
06/10/2013  09:37:00     -264.806     -190.978       16.037      180.770      142.174       76.102    32677.615    20213.401     5791.582        8.276        2.934      326.489       71.458        0.048      347.144       25.897      855.232
06/10/2013  09:38:00     -205.587      -72.979        8.857      154.510      119.748       69.400    23873.243    14339.584     4816.339        4.534        2.151      218.155       72.739        0.111      347.179       25.957      855.209
06/10/2013  09:39:00     -158.385      -73.968      -17.304       72.082       56.148       41.561     5195.850     3152.627     1727.335        2.046        0.504      174.806       21.966        0.016      347.104       25.829      855.194
06/10/2013  09:40:00     -180.245      -52.107        3.062      153.088      127.878       76.056    23435.877    16352.795     5784.572        4.038        2.279      187.625       76.438        0.166      347.367       26.282      855.172
06/10/2013  09:41:00     -344.981     -106.523       -5.940      141.772      129.542       71.020    20099.277    16781.154     5043.802        8.615        2.096      361.053       72.733        0.041      347.285       26.139      855.164
06/10/2013  09:42:00     -394.420      -81.257      -13.257      133.120       82.606       59.101    17720.954     6823.796     3492.936        9.519        1.402      402.704       58.298        0.021      347.087       25.797      855.158
06/10/2013  09:43:00     -173.796      -50.137       -5.478      133.199      120.347       59.657    17742.011    14483.478     3559.017        3.426        1.789      180.883       72.266        0.160      347.303       26.173      855.161
06/10/2013  09:44:00     -169.520     -162.731       12.169      147.028      124.503       67.427    21617.205    15501.118     4546.436        4.851        2.083      234.986       77.333        0.108      347.434       26.397      855.147
06/10/2013  09:45:00     -293.895     -253.086       -9.201      138.101      138.887       75.147    19071.911    19289.526     5647.108        9.725        2.200      387.848       72.051        0.035      347.343       26.240      855.128
06/10/2013  09:46:00     -452.676     -296.745      -22.373      179.240      179.943       95.263    32126.880    32379.570     9075.070       18.351        3.679      541.270      103.638        0.037      347.100       25.821      855.103
06/10/2013  09:47:00     -276.529     -160.684        1.289      156.883      119.723       72.995    24612.399    14333.644     5328.279        7.327        2.214      319.825       77.863        0.059      347.192       25.982      855.128
06/10/2013  09:48:00     -356.056     -182.281      -14.115      122.179      133.925       62.487    14927.740    17936.012     3904.571        9.848        1.838      400.002       59.497        0.022      347.032       25.704      855.098
06/10/2013  09:49:00     -301.384     -197.663      -11.071      137.432      123.509       63.824    18887.524    15254.361     4073.564        8.411        1.911      360.421       65.234        0.033      347.089       25.802      855.090
06/10/2013  09:50:00     -265.733     -149.587      -13.605      145.099      107.474       61.488    21053.657    11550.712     3780.757        6.477        1.819      304.943       64.168        0.044      347.266       26.105      855.098
06/10/2013  09:51:00     -311.143      -42.532       -4.278      152.105      139.837       64.774    23136.009    19554.518     4195.669        7.275        2.344      314.037       50.295        0.026      347.405       26.345      855.108
06/10/2013  09:52:00     -447.727      -76.002       -9.882      189.941      151.920       68.025    36077.634    23079.570     4627.439       13.505        3.189      454.132       64.233        0.020      347.191       25.979      855.095
06/10/2013  09:53:00     -354.666      -95.488      -38.997      108.876       91.645       57.673    11854.046     8398.807     3326.170        8.000        1.179      367.295       59.058        0.026      347.108       25.834      855.127
06/10/2013  09:54:00     -219.121     -141.422      -11.784      116.559       87.800       60.661    13586.081     7708.812     3679.745        4.656        1.249      260.795       54.276        0.043      347.308       26.179      855.119
06/10/2013  09:55:00     -278.424      -63.896      -11.520      183.850      109.676       85.495    33800.641    12028.805     7309.374        6.743        2.657      285.662      103.891        0.132      347.420       26.374      855.129
06/10/2013  09:56:00     -295.736      -43.999      -18.502      189.468       98.434       51.418    35898.303     9689.177     2643.777        6.897        2.412      298.992       67.891        0.052      347.196       25.986      855.110
06/10/2013  09:57:00      -30.616      -25.427       25.399       58.564       41.934       34.688     3429.784     1758.424     1203.275        0.431        0.320       39.798       36.837        0.857      347.836       27.095      855.066
06/10/2013  09:58:00     -157.015      -40.686        5.238      149.057       85.179       47.003    22218.034     7255.388     2209.316        2.900        1.584      162.201       49.747        0.094      347.759       26.959      855.052
06/10/2013  09:59:00     -372.066     -125.857       -9.974      139.874      135.932       75.583    19564.859    18477.634     5712.827        9.906        2.188      392.776       82.231        0.044      347.334       26.225      855.052
06/10/2013  10:00:00     -211.911      -94.895        5.380      134.561       98.895       54.203    18106.536     9780.264     2937.941        4.238        1.541      232.188       51.965        0.050      347.479       26.475      855.029
06/10/2013  10:01:00     -161.043     -203.662       13.850      116.478       94.323       64.374    13567.098     8896.813     4144.050        4.710        1.330      259.640       64.856        0.062      347.562       26.618      855.015
06/10/2013  10:02:00     -228.446     -118.281       -6.386      112.212      116.690       56.063    12591.597    13616.666     3143.079        4.778        1.468      257.251       37.303        0.021      347.564       26.621      855.002
06/10/2013  10:03:00     -282.411     -179.238        0.572      175.550      138.157       78.431    30817.878    19087.484     6151.485        8.396        2.803      334.488       69.710        0.043      347.575       26.640      855.009
06/10/2013  10:04:00     -347.039     -224.843       -4.171      149.797      149.584       82.138    22439.054    22375.490     6746.643       11.127        2.578      413.510       78.655        0.036      347.306       26.176      854.991
06/10/2013  10:05:00     -237.924     -128.437        6.652      143.153      112.182       67.379    20492.804    12584.766     4539.900        5.538        1.881      270.378       71.380        0.070      347.486       26.487      855.004
06/10/2013  10:06:00     -174.014     -118.400       10.508      189.382      166.215       91.619    35865.424    27627.316     8394.056        5.813        3.594      210.474       96.563        0.210      347.715       26.884      855.007
06/10/2013  10:07:00     -161.360       23.671       -4.655      122.906       99.683       55.274    15105.821     9936.641     3055.249        2.735        1.405      163.087       44.298        0.074      347.651       26.774      855.024
06/10/2013  10:08:00      -52.376       -5.177       18.069      151.241       92.365       65.618    22873.901     8531.282     4305.709        1.940        1.786       52.631       60.195        1.308      347.832       27.088      855.013
06/10/2013  10:09:00      -19.646       -5.018       35.546       86.884       77.210       49.688     7548.791     5961.362     2468.920        0.882        0.799       20.277       31.732        2.449      348.101       27.551      855.002
06/10/2013  10:10:00     -474.817     -132.931      -28.446      208.743      152.101       66.740    43573.482    23134.588     4454.216       15.753        3.558      493.074       77.809        0.025      347.394       26.328      855.002
06/10/2013  10:11:00     -212.570      -99.289       -7.337      138.796      127.376       62.195    19264.389    16224.771     3868.272        4.722        1.968      234.616       72.292        0.095      347.614       26.707      854.984
06/10/2013  10:12:00     -220.713       12.321        3.629      210.958      121.544       63.437    44503.328    14772.837     4024.236        5.608        3.165      221.056       80.930        0.134      348.015       27.402      854.989
06/10/2013  10:13:00     -447.309      -41.084      -26.026      180.361      167.850       82.142    32530.240    28173.500     6747.344       13.494        3.373      449.191       83.821        0.035      347.519       26.544      854.967
06/10/2013  10:14:00     -273.855      -37.597       -4.981      249.198      156.486       73.121    62099.709    24487.750     5346.620        8.417        4.597      276.424       82.935        0.090      347.627       26.731      854.941
06/10/2013  10:15:00     -261.631       82.327      -11.628      125.862      182.559       80.490    15841.233    33327.968     6478.565        6.549        2.782      274.278       53.915        0.039      347.452       26.426      854.909
06/10/2013  10:16:00     -391.678      -80.708      -19.096      182.520      158.749       81.186    33313.630    25201.373     6591.166       11.268        3.255      399.907       83.027        0.043      347.610       26.700      854.949
06/10/2013  10:17:00     -234.394       -9.473        3.842      157.415      127.616       63.431    24779.362    16285.926     4023.517        5.006        2.254      234.585       76.115        0.105      347.913       27.225      855.002
06/10/2013  10:18:00     -365.134      -87.103        9.378      268.041      209.041       89.345    71846.110    43697.954     7982.581       13.224        6.176      375.379      124.313        0.110      347.767       26.972      855.010
06/10/2013  10:19:00     -300.332     -126.263      -22.598      165.079      149.003       77.812    27250.925    22201.895     6054.753        8.107        2.775      325.794       56.624        0.030      347.462       26.446      855.035
06/10/2013  10:20:00     -284.363       13.867      -17.512      181.270      103.674       67.523    32858.733    10748.260     4559.358        6.475        2.408      284.701       84.716        0.089      347.625       26.727      855.030
06/10/2013  10:21:00     -327.314      -45.512       14.258      207.274      129.055       88.368    42962.410    16655.297     7808.838        8.840        3.371      330.463      108.744        0.108      347.640       26.752      855.015
06/10/2013  10:22:00     -492.599     -116.966      -18.073      198.852      137.061       84.302    39542.108    18785.645     7106.798       16.103        3.272      506.295      103.985        0.042      347.318       26.198      855.012
06/10/2013  10:23:00     -325.575      -66.423       -1.304      146.780       93.583       55.653    21544.369     8757.869     3097.232        7.190        1.670      332.282       69.583        0.044      347.449       26.422      855.021
06/10/2013  10:24:00     -501.046      -90.905      -25.891      201.815      118.640       66.717    40729.123    14075.341     4451.129       15.961        2.963      509.226       79.846        0.025      347.469       26.458      855.026
06/10/2013  10:25:00     -252.922     -160.415       26.394      210.018      152.538       93.672    44107.688    23267.975     8774.435        8.326        3.808      299.504      115.467        0.149      347.523       26.550      855.028
06/10/2013  10:26:00     -160.204      -14.652       12.128      176.942      117.170       75.507    31308.531    13728.835     5701.371        3.837        2.537      160.873       84.405        0.275      347.718       26.887      855.023
06/10/2013  10:27:00     -357.154       38.130      -19.187      172.309      124.399       79.342    29690.242    15475.188     6295.202        9.041        2.573      359.183       77.485        0.047      347.656       26.781      855.051
06/10/2013  10:28:00     -328.152      -25.379      -16.920      145.930      146.028       57.320    21295.519    21324.048     3285.597        7.725        2.295      329.132       61.579        0.035      347.651       26.772      855.040
06/10/2013  10:29:00     -503.186     -134.853      -18.188      173.937      137.697       82.246    30253.974    18960.329     6764.474       16.383        2.799      520.943       87.941        0.028      347.606       26.694      855.049
06/10/2013  10:30:00     -462.356     -139.585       -4.882      175.172      128.168       80.248    30685.344    16427.141     6439.696       14.341        2.678      482.967       97.785        0.041      347.449       26.423      855.067
06/10/2013  10:31:00     -160.946     -143.406        1.363      126.041      152.593       59.865    15886.365    23284.473     3583.789        4.460        2.138      215.566       81.951        0.145      347.562       26.618      855.054
06/10/2013  10:32:00     -242.123       -3.999      -11.303      123.319      142.521       60.508    15207.530    20312.111     3661.196        4.897        1.959      242.157       65.332        0.073      347.605       26.692      855.046
06/10/2013  10:33:00     -308.607       -6.736      -24.108      185.006      121.084       67.737    34227.230    14661.236     4588.325        7.466        2.674      308.680       85.241        0.076      347.596       26.677      855.051
06/10/2013  10:34:00     -425.539     -134.795       -4.364      144.953      107.362       64.849    21011.453    11526.630     4205.352       11.800        1.837      446.378       67.987        0.023      347.519       26.544      855.054
06/10/2013  10:35:00     -438.938      -36.423      -41.816      157.282      139.312       79.318    24737.504    19407.970     6291.364       12.308        2.522      440.447       73.236        0.028      347.398       26.335      855.031
06/10/2013  10:36:00     -451.269     -159.706      -24.293      170.423      129.683       71.249    29043.921    16817.794     5076.414       14.033        2.547      478.696       72.773        0.023      347.430       26.390      855.013
06/10/2013  10:37:00     -268.224      -52.681       -2.281      134.049      122.869       68.566    17969.201    15096.744     4701.336        5.624        1.888      273.349       61.222        0.050      347.677       26.816      855.041
06/10/2013  10:38:00     -321.918       81.807      -24.844      137.418       81.506       72.222    18883.681     6643.266     5216.059        7.084        1.537      332.150       66.870        0.041      347.599       26.681      855.061
06/10/2013  10:39:00     -148.211      -74.166       -0.572      115.907       83.258       48.177    13434.396     6931.852     2321.008        2.507        1.134      165.732       47.692        0.083      347.833       27.087      855.062
06/10/2013  10:40:00     -122.114      -86.816        9.179      142.418      107.974       70.177    20282.949    11658.471     4924.852        2.969        1.843      149.829       72.524        0.234      347.620       26.720      855.048
06/10/2013  10:41:00     -265.698      -37.057      -13.774      138.111       91.486       62.207    19074.588     8369.651     3869.674        5.173        1.566      268.270       64.090        0.057      347.667       26.799      855.037
06/10/2013  10:42:00     -247.055      -76.365        5.292      178.917      134.058       72.817    32011.451    17971.675     5302.346        6.108        2.764      258.588       74.802        0.084      347.581       26.651      855.032
06/10/2013  10:43:00     -213.085      -89.843       -1.500      167.019      123.172       74.405    27895.466    15171.274     5536.124        5.103        2.430      231.251       85.679        0.137      347.603       26.689      855.023
06/10/2013  10:44:00     -276.733      -57.427      -15.520      165.329      117.058       66.855    27333.616    13702.602     4469.603        6.280        2.275      282.629       80.350        0.081      347.667       26.800      855.040
06/10/2013  10:45:00     -362.886      -82.102       -2.683      177.491      115.501       69.216    31503.048    13340.493     4790.915        9.402        2.482      372.058       80.105        0.046      347.401       26.340      855.023
06/10/2013  10:46:00     -485.977      -44.029      -53.079      170.462      120.721       73.397    29057.362    14573.539     5387.110       14.496        2.451      487.968       76.410        0.025      347.350       26.251      855.025
06/10/2013  10:47:00     -303.554      -96.269       -9.172      123.433      119.171       65.217    15235.766    14201.613     4253.209        6.759        1.685      318.454       51.084        0.026      347.348       26.249      854.997
06/10/2013  10:48:00     -187.734      -75.391        3.253      127.923       97.911       53.126    16364.232     9586.548     2822.384        3.485        1.439      202.306       60.695        0.090      347.485       26.486      854.991
06/10/2013  10:49:00     -293.686       -0.743      -19.124      190.732      129.664       59.625    36378.523    16812.828     3555.169        7.167        2.837      293.687       73.753        0.063      347.619       26.716      854.997
06/10/2013  10:50:00     -325.479        9.155      -28.250      145.269      109.828       69.326    21103.009    12062.189     4806.127        7.239        1.899      325.608       56.873        0.031      347.548       26.592      855.004
06/10/2013  10:51:00     -414.231     -106.620       -8.159      187.108      135.308       83.801    35009.448    18308.362     7022.597       12.167        3.017      427.732       86.329        0.041      347.489       26.492      855.001
06/10/2013  10:52:00     -393.500      -76.201      -41.193      156.395      152.698       63.835    24459.375    23316.819     4074.928       10.709        2.593      400.810       61.486        0.024      347.437       26.401      854.991
06/10/2013  10:53:00     -321.385     -140.658       -3.066      196.050      146.298       73.945    38435.703    21403.069     5467.813        9.418        3.265      350.817       89.785        0.066      347.531       26.564      855.014
06/10/2013  10:54:00     -275.157     -118.990      -14.328      199.171      137.080       80.298    39669.003    18790.867     6447.782        7.748        3.245      299.783       89.200        0.089      347.422       26.376      854.993
06/10/2013  10:55:00     -148.728      -21.666        7.167      122.277       89.761       55.413    14951.602     8056.983     3070.563        2.435        1.304      150.298       56.683        0.142      347.584       26.657      854.961
06/10/2013  10:56:00     -226.710       24.000      -18.013       98.681       76.355       49.376     9738.001     5830.034     2437.954        3.515        0.900      227.977       48.784        0.046      347.526       26.557      854.944
06/10/2013  10:57:00     -367.975      -41.347       -6.728      162.945      127.906       67.787    26551.215    16360.024     4595.130        9.232        2.375      370.290       76.992        0.043      347.463       26.448      854.928
06/10/2013  10:58:00     -397.857        3.138      -16.166      149.530      129.930       64.839    22359.164    16881.754     4204.157       10.099        2.172      397.869       71.677        0.032      347.566       26.623      854.926
06/10/2013  10:59:00     -237.969       48.212      -12.020      179.208      114.523       60.189    32115.434    13115.557     3622.694        5.397        2.443      242.804       70.859        0.085      347.799       27.027      854.921
06/10/2013  11:00:00     -327.500      -51.829       -5.745      157.971      151.392       70.937    24954.982    22919.673     5032.072        8.143        2.645      331.575       75.720        0.052      347.902       27.207      854.924
06/10/2013  11:01:00     -320.359     -157.870        5.677      209.435      143.351       87.307    43862.917    20549.507     7622.562        9.980        3.602      357.145      107.741        0.091      347.862       27.136      854.921
06/10/2013  11:02:00     -204.600      -60.458       -2.541      168.332      200.499       78.185    28335.635    40199.795     6112.899        6.007        3.732      213.346       66.649        0.098      347.726       26.901      854.910
06/10/2013  11:03:00     -271.107      -26.234        2.978      181.276       93.212       63.032    32861.059     8688.463     3973.049        5.985        2.276      272.374       73.238        0.072      347.805       27.037      854.897
06/10/2013  11:04:00     -171.518      -45.912       10.377      115.508      107.769       60.078    13342.116    11614.120     3609.323        3.009        1.428      177.556       69.877        0.155      348.053       27.466      854.863
06/10/2013  11:05:00     -124.928     -151.332       26.783      161.317      107.289       75.534    26023.311    11510.886     5705.362        4.122        2.162      196.235       88.233        0.202      348.129       27.596      854.858
06/10/2013  11:06:00     -331.594     -249.964       -0.232      189.464      157.655       99.156    35896.425    24855.033     9831.892       12.150        3.529      415.255      100.902        0.059      347.978       27.337      854.844
06/10/2013  11:07:00     -279.522     -244.438        2.177      193.658      149.763       91.802    37503.548    22429.086     8427.606       10.311        3.418      371.325      101.483        0.075      347.822       27.066      854.845
06/10/2013  11:08:00     -275.242     -210.861        2.384      184.202      121.625       88.542    33930.204    14792.646     7839.692        8.838        2.828      346.729      107.218        0.096      347.863       27.135      854.835
06/10/2013  11:09:00     -228.480      -61.858       -4.534      178.284      103.024       83.455    31785.179    10613.959     6964.700        5.270        2.468      236.706       84.022        0.126      348.056       27.470      854.815
06/10/2013  11:10:00     -389.950     -122.990        0.881      213.550      157.630       83.065    45603.695    24847.139     6899.821       12.225        3.868      408.885       95.784        0.055      347.887       27.179      854.806
06/10/2013  11:11:00     -278.532      -28.931        2.188      155.046      139.907       73.945    24039.385    19574.069     5467.797        6.374        2.454      280.031       81.589        0.085      348.091       27.530      854.780
06/10/2013  11:12:00     -417.111     -148.541      -12.205      208.825      136.821       68.213    43608.073    18720.042     4653.033       13.157        3.349      442.771       77.443        0.031      347.944       27.276      854.784
06/10/2013  11:13:00     -282.627     -129.299        7.305      178.511       97.024       79.948    31866.074     9413.719     6391.640        7.215        2.384      310.800       85.146        0.075      348.046       27.452      854.800
06/10/2013  11:14:00     -460.496     -227.972      -27.582      248.476      258.987      105.701    61740.306    67074.115    11172.763       20.236        6.999      513.836      110.322        0.046      347.719       26.889      854.778
06/10/2013  11:15:00     -341.180      -60.992       -6.955      197.541      127.462       82.653    39022.374    16246.687     6831.480        9.112        3.105      346.589       99.542        0.082      347.885       27.175      854.797
06/10/2013  11:16:00     -441.088        1.279        2.202      203.417      161.074       92.026    41378.344    25944.914     8468.857       13.516        3.790      441.090       94.571        0.046      347.811       27.047      854.779
06/10/2013  11:17:00     -358.449     -155.601       -4.764      231.628      172.372      104.453    53651.403    29712.046    10910.430       12.348        4.714      390.766      109.894        0.079      347.734       26.914      854.769
06/10/2013  11:18:00     -403.822     -280.137        0.352      258.818      225.490      113.441    66986.919    50845.816    12868.903       18.610        6.535      491.476      142.677        0.084      347.758       26.956      854.747
06/10/2013  11:19:00     -436.763     -295.374       -7.180      291.102      219.811      124.531    84740.325    48317.090    15507.995       21.328        7.428      527.264      163.902        0.097      347.633       26.741      854.742
06/10/2013  11:20:00     -458.627     -287.040        0.974      240.394      165.870      106.623    57789.108    27512.964    11368.452       19.468        4.834      541.046      113.717        0.044      347.773       26.981      854.756
06/10/2013  11:21:00     -356.551     -235.845        0.399      245.848      186.420      104.490    60441.386    34752.390    10918.080       14.441        5.306      427.495      119.678        0.078      347.891       27.185      854.771
06/10/2013  11:22:00     -439.988     -310.278      -19.805      259.674      248.323       93.044    67430.761    61664.308     8657.179       21.398        6.888      538.388      121.629        0.051      347.750       26.943      854.764
06/10/2013  11:23:00     -540.634     -175.119      -45.886      239.473      159.204       88.325    57347.129    25345.772     7801.295       20.776        4.525      568.288      113.756        0.040      347.670       26.803      854.810
06/10/2013  11:24:00     -375.358     -307.640       -9.124      260.789      151.402       78.026    68011.079    22922.450     6087.986       16.630        4.851      485.320       75.885        0.024      347.590       26.666      854.802
06/10/2013  11:25:00     -255.446     -133.271       -2.338      202.844      188.741       88.367    41145.872    35623.114     7808.780        8.378        4.229      288.121       84.231        0.085      348.063       27.483      854.782
06/10/2013  11:26:00     -265.044     -197.485       14.378      242.601      184.614      116.012    58855.391    34082.237    13458.885       10.790        5.320      330.528      129.146        0.153      347.844       27.103      854.763
06/10/2013  11:27:00     -277.435     -126.143        7.709      178.069      118.631       77.863    31708.611    14073.287     6062.673        7.238        2.592      304.766       71.132        0.054      347.728       26.903      854.765
06/10/2013  11:28:00     -466.214     -122.380       -3.442      262.702      203.922      103.626    69012.086    41584.319    10738.442       17.682        6.067      482.008      122.701        0.065      347.850       27.116      854.735
06/10/2013  11:29:00     -556.492      -49.805      -20.134      211.195      153.201       98.680    44603.403    23470.479     9737.772       19.517        3.891      558.716      104.090        0.035      347.545       26.587      854.747
06/10/2013  11:30:00     -497.869     -103.616      -26.256      188.086      141.530       81.305    35376.394    20030.858     6610.575       16.065        3.101      508.537       85.242        0.028      347.793       27.017      854.721
06/10/2013  11:31:00     -374.782     -167.730       -7.336      189.511      173.651       84.753    35914.511    30154.765     7183.035       12.094        3.663      410.603      103.733        0.064      347.871       27.149      854.726
06/10/2013  11:32:00     -318.742     -103.023       -5.884      144.139      146.600       69.991    20776.185    21491.430     4898.722        7.970        2.358      334.978       66.157        0.039      347.937       27.264      854.721
06/10/2013  11:33:00     -473.229     -354.311       16.367      244.534      171.109      107.345    59797.084    29278.253    11523.010       22.515        5.030      591.169      125.052        0.045      347.673       26.809      854.691
06/10/2013  11:34:00     -426.116     -308.989       -6.406      245.932      178.186      113.504    60482.339    31750.183    12883.097       19.108        5.256      526.354      122.130        0.054      347.673       26.809      854.696
06/10/2013  11:35:00     -601.283     -392.082      -21.246      255.472      245.635      106.576    65265.973    60336.393    11358.453       32.631        6.848      717.823      113.840        0.025      347.347       26.247      854.653
06/10/2013  11:36:00     -527.501     -147.228        2.885      262.196      155.389       91.959    68746.776    24145.646     8456.405       20.062        5.067      547.662      110.285        0.041      347.476       26.468      854.628
06/10/2013  11:37:00     -401.624      -43.911      -15.046      175.695      138.077       72.657    30868.826    19065.361     5279.078       10.932        2.761      404.017       74.423        0.034      347.867       27.143      854.645
06/10/2013  11:38:00     -507.008     -144.052      -15.832      297.672      200.257      114.179    88608.855    40103.026    13036.891       20.988        7.087      527.075      128.807        0.060      347.773       26.981      854.668
06/10/2013  11:39:00     -665.293     -162.428      -53.793      275.799      251.632      108.574    76065.012    63318.497    11788.271       31.150        7.559      684.834      131.257        0.037      347.612       26.703      854.647
06/10/2013  11:40:00     -331.765     -114.757       -3.077      221.604      207.936      105.994    49108.546    43237.461    11234.661       11.339        5.179      351.052      105.797        0.091      347.686       26.831      854.666
06/10/2013  11:41:00     -407.200     -302.908       -9.459      184.676      197.905      110.598    34105.406    39166.435    12231.947       17.156        4.275      507.509      106.221        0.044      347.364       26.276      854.688
06/10/2013  11:42:00     -237.529      -85.114        3.756      158.519      135.862       77.293    25128.202    18458.578     5974.222        5.661        2.478      252.318       81.814        0.105      347.493       26.499      854.632
06/10/2013  11:43:00     -448.484     -234.526       -7.821      186.375      173.584       74.000    34735.550    30131.512     5475.959       16.326        3.517      506.103       77.932        0.024      347.398       26.335      854.626
06/10/2013  11:44:00     -426.901     -212.670       -5.656      193.835      131.596       77.682    37572.023    17317.550     6034.426       14.420        3.046      476.942       91.199        0.037      347.511       26.530      854.594
06/10/2013  11:45:00     -350.486     -191.110        2.894      230.372      207.000       95.713    53071.309    42848.807     9160.920       13.221        5.254      399.203      119.172        0.089      347.595       26.676      854.593
06/10/2013  11:46:00     -479.342     -331.584      -19.702      226.423      205.014      105.487    51267.192    42030.666    11127.493       22.224        5.221      582.853      124.811        0.046      347.483       26.480      854.536
06/10/2013  11:47:00     -554.387     -393.271      -25.164      304.411      245.938      129.646    92665.884    60485.299    16808.119       31.627        8.498      679.711      141.843        0.044      347.360       26.269      854.495
06/10/2013  11:48:00     -369.073     -218.324        3.257      259.631      180.528      105.673    67408.499    32590.407    11166.842       14.751        5.558      428.813      126.460        0.087      347.520       26.546      854.512
06/10/2013  11:49:00     -394.165     -212.813        0.379      219.196      189.303       88.954    48046.837    35835.622     7912.879       14.621        4.590      447.946      101.628        0.051      347.489       26.491      854.530
06/10/2013  11:50:00     -376.988     -311.455       -9.051      223.960      219.542       92.689    50158.082    48198.567     8591.271       17.306        5.347      489.003      105.207        0.046      347.443       26.413      854.488
06/10/2013  11:51:00     -339.912     -301.118       -9.944      198.848      177.642       97.948    39540.665    31556.641     9593.845       14.348        4.035      454.106       78.903        0.030      347.471       26.460      854.473
06/10/2013  11:52:00     -487.288     -391.669      -37.112      231.878      189.508      103.673    53767.365    35913.319    10748.024       24.631        5.021      625.183      108.852        0.030      347.377       26.299      854.434
06/10/2013  11:53:00     -433.551     -270.263       -7.591      234.933      169.211      106.648    55193.700    28632.357    11373.852       17.811        4.760      510.890      114.766        0.050      347.505       26.520      854.430
06/10/2013  11:54:00     -596.825     -335.036      -35.467      253.704      251.044      107.332    64365.965    63023.317    11520.054       30.428        6.945      684.433      118.776        0.030      347.538       26.576      854.477
06/10/2013  11:55:00     -476.346     -293.076      -13.461      279.577      240.847      127.054    78163.456    58007.504    16142.704       23.262        7.616      559.284      155.507        0.077      347.447       26.419      854.475
06/10/2013  11:56:00     -421.156     -260.647        8.650      221.342      243.233      120.115    48992.446    59162.080    14427.711       18.396        6.129      495.287      127.430        0.066      347.474       26.466      854.531
06/10/2013  11:57:00     -310.551     -268.166        3.678      220.399      145.216       92.561    48575.821    21087.742     8567.511       12.328        3.912      410.310       82.628        0.041      347.426       26.383      854.574
06/10/2013  11:58:00     -496.301     -368.366       13.187      291.410      185.995      108.740    84919.828    34594.101    11824.451       25.673        6.567      618.069      113.274        0.034      347.312       26.187      854.530
06/10/2013  11:59:00     -235.454     -229.581        6.578      198.984      173.908      104.246    39594.436    30244.127    10867.290        9.443        4.035      328.856      111.404        0.115      347.400       26.338      854.503
06/10/2013  12:00:00     -545.972     -298.937      -12.874      301.317      232.102      119.125    90791.897    53871.159    14190.750       27.320        7.943      622.453      142.895        0.053      347.412       26.358      854.539
06/10/2013  12:01:00     -625.859     -307.952      -17.933      383.008      270.437      146.792   146695.421    73136.195    21548.013       36.407       12.069      697.520      192.682        0.076      347.274       26.121      854.462
06/10/2013  12:02:00     -553.098     -328.802        0.835      322.988      279.593      145.057   104321.463    78172.464    21041.472       30.874       10.177      643.450      164.491        0.065      347.202       25.996      854.500
06/10/2013  12:03:00     -453.817     -247.296      -12.379      259.448      173.247      113.241    67313.161    30014.634    12823.555       18.868        5.508      516.822      116.498        0.051      347.243       26.067      854.518
06/10/2013  12:04:00     -367.197      -97.148       14.371      218.144      179.332       92.584    47586.805    32160.044     8571.838       11.638        4.416      379.831      113.713        0.090      347.350       26.252      854.509
06/10/2013  12:05:00     -471.096     -312.935      -19.675      275.322      189.010      116.885    75802.149    35724.784    13662.068       22.269        6.259      565.562      136.913        0.059      347.316       26.193      854.510
06/10/2013  12:06:00     -634.012     -405.543      -32.805      328.790      230.845      108.347   108102.865    53289.617    11739.026       37.029        8.657      752.620      147.348        0.038      347.099       25.819      854.445
06/10/2013  12:07:00     -587.649     -352.837        9.286      278.359      205.771      124.587    77483.948    42341.779    15522.028       30.260        6.767      685.437      119.293        0.030      347.129       25.872      854.479
06/10/2013  12:08:00     -472.584     -324.301       -8.685      295.375      252.231      117.811    87246.560    63620.639    13879.546       24.663        8.237      573.155      144.913        0.064      347.158       25.921      854.488
06/10/2013  12:09:00     -463.665     -183.576      -23.030      249.473      196.783      106.982    62236.853    38723.419    11445.201       18.079        5.620      498.683      124.240        0.062      347.183       25.964      854.436
06/10/2013  12:10:00     -531.534     -325.557      -23.934      268.194      239.304      108.114    71928.083    57266.419    11688.531       26.496        7.044      623.311      116.550        0.035      347.143       25.895      854.402
06/10/2013  12:11:00     -515.369     -351.151       -3.211      267.535      218.899      118.320    71574.898    47916.647    13999.617       26.118        6.675      623.628      130.583        0.044      347.169       25.940      854.391
06/10/2013  12:12:00     -439.076     -309.996       -4.648      278.734      197.216      113.587    77692.520    38894.049    12902.024       20.917        6.474      537.480      142.624        0.070      347.151       25.908      854.385
06/10/2013  12:13:00     -420.918     -317.225        0.349      209.734      182.810       95.624    43988.379    33419.584     9143.873       18.216        4.328      527.071      108.859        0.043      347.110       25.837      854.368
06/10/2013  12:14:00     -382.263     -190.724       13.928      236.768      197.344      107.971    56059.001    38944.652    11657.803       14.466        5.333      427.201      112.724        0.070      347.095       25.812      854.354
06/10/2013  12:15:00     -597.769     -460.876      -11.542      299.896      260.275      141.301    89937.693    67742.953    19965.940       37.372        8.882      754.807      151.761        0.040      346.948       25.559      854.291
06/10/2013  12:16:00     -624.289     -333.696        0.079      296.589      188.608      126.405    87964.856    35573.021    15978.236       32.027        6.976      707.877      144.147        0.041      347.029       25.699      854.279
06/10/2013  12:17:00     -518.696     -248.143      -15.484      264.058      189.631      112.479    69726.783    35959.819    12651.491       22.458        5.917      574.996      111.752        0.038      347.089       25.802      854.291
06/10/2013  12:18:00     -438.810     -217.065        0.939      274.660      205.267      109.736    75438.046    42134.555    12042.011       18.462        6.481      489.562      135.446        0.077      347.116       25.849      854.289
06/10/2013  12:19:00     -422.710     -209.702      -24.673      237.607      247.309      110.166    56456.970    61161.799    12136.570       17.649        6.488      471.867      123.493        0.068      347.115       25.846      854.281
06/10/2013  12:20:00     -465.958     -325.386       -8.631      304.115      243.201      105.360    92485.881    59146.801    11100.775       24.287        8.137      568.325      137.242        0.058      347.046       25.728      854.240
06/10/2013  12:21:00     -530.053     -398.324      -23.689      256.410      275.931      131.378    65746.026    76137.812    17260.062       29.963        7.957      663.037      139.618        0.044      347.010       25.665      854.220
06/10/2013  12:22:00     -430.501     -209.418        6.777      246.045      227.257      103.417    60538.122    51645.773    10695.057       17.603        6.144      478.735      120.833        0.064      347.080       25.786      854.205
06/10/2013  12:23:00     -408.260     -269.288        4.252      240.009      189.664      113.865    57604.358    35972.496    12965.175       17.286        5.327      489.073      108.539        0.049      347.071       25.772      854.165
06/10/2013  12:24:00     -417.041     -200.316      -12.201      168.926      168.442       80.630    28535.963    28372.626     6501.238       13.879        3.170      462.655       78.746        0.029      347.144       25.897      854.180
06/10/2013  12:25:00     -349.305     -205.072      -18.084      195.051      213.393       97.266    38044.886    45536.408     9460.755       12.870        4.652      405.054       98.767        0.059      347.191       25.977      854.176
06/10/2013  12:26:00     -508.712     -273.519        8.701      293.346      244.426      135.306    86051.764    59743.881    18307.612       24.886        8.205      577.581      157.368        0.074      347.108       25.834      854.161
06/10/2013  12:27:00     -228.728     -145.067       10.084      202.889      205.080      106.619    41163.946    42057.923    11367.630        8.401        4.729      270.852       98.024        0.131      347.125       25.865      854.166
06/10/2013  12:28:00     -443.462     -234.861       -2.755      254.246      203.736       97.528    64641.187    41508.214     9511.683       18.372        5.783      501.814      113.525        0.051      347.074       25.776      854.163
06/10/2013  12:29:00     -539.079     -292.104      -30.193      327.315      173.505      113.710   107135.366    30104.015    12930.076       26.348        7.508      613.132      138.235        0.051      347.017       25.680      854.185
06/10/2013  12:30:00     -614.259     -146.665      -46.306      277.861      205.706      110.009    77206.920    42314.998    12101.972       26.627        6.581      631.526      123.062        0.038      346.948       25.560      854.209
06/10/2013  12:31:00     -630.426     -168.875      -33.947      279.757      208.046      118.287    78264.243    43283.250    13991.787       28.130        6.777      652.653      148.476        0.052      346.943       25.551      854.243
06/10/2013  12:32:00     -749.309     -165.040      -46.291      284.759      234.369      114.375    81087.444    54928.628    13081.665       36.994        7.455      767.269      125.073        0.027      346.815       25.329      854.216
06/10/2013  12:33:00     -638.640     -368.285      -24.620      323.926      257.020      115.972   104928.056    66059.417    13449.574       36.423        9.222      737.221      140.695        0.036      346.800       25.305      854.245
06/10/2013  12:34:00     -485.265     -253.453       -1.787      306.751      230.547      128.165    94096.400    53151.746    16426.374       23.167        8.184      547.467      152.312        0.077      346.840       25.373      854.277
06/10/2013  12:35:00     -545.415     -161.243       -4.276      291.631      164.829      110.578    85048.588    27168.581    12227.526       22.395        6.222      568.750      145.958        0.066      346.848       25.386      854.331
06/10/2013  12:36:00     -518.015     -110.585      -24.217      225.914      180.784      101.606    51037.313    32682.969    10323.865       18.758        4.702      529.687      107.875        0.041      346.878       25.437      854.357
06/10/2013  12:37:00     -406.732     -364.581      -11.155      277.506      221.733      123.624    77009.310    49165.663    15282.777       21.994        7.073      546.215      131.812        0.058      346.872       25.430      854.423
06/10/2013  12:38:00     -270.369     -183.456        5.342      201.320      187.462       91.819    40529.781    35141.881     8430.729        9.543        4.205      326.734      105.603        0.104      346.962       25.582      854.481
06/10/2013  12:39:00     -414.957     -122.323      -13.202      199.440      180.259       80.269    39776.192    32493.408     6443.119       13.300        3.936      432.610       91.860        0.045      346.915       25.502      854.522
06/10/2013  12:40:00     -445.156      -43.419      -10.283      196.192      156.213       94.446    38491.276    24402.589     8919.964       13.597        3.591      447.268       90.192        0.041      346.896       25.469      854.559
06/10/2013  12:41:00     -561.849     -153.810      -21.217      269.595      204.653      107.299    72681.256    41882.673    11513.103       23.290        6.304      582.522      110.633        0.036      346.811       25.323      854.554
06/10/2013  12:42:00     -477.412     -276.628        7.911      304.292      274.393      117.633    92593.720    75291.513    13837.505       24.308        9.086      551.765      122.623        0.049      346.759       25.235      854.571
06/10/2013  12:43:00     -580.350     -311.894      -21.214      277.052      249.156      141.423    76757.991    62078.846    20000.471       29.665        7.942      658.850      145.121        0.049      346.695       25.123      854.567
06/10/2013  12:44:00     -421.895     -256.132       -7.177      295.061      225.022      114.796    87061.040    50634.956    13178.145       19.723        7.544      493.557      147.161        0.089      346.731       25.188      854.591
06/10/2013  12:45:00     -449.130     -357.898       10.779      344.046      309.624      129.230   118367.485    95866.771    16700.428       28.038       11.547      574.290      172.554        0.090      346.726       25.176      854.606
06/10/2013  12:46:00     -517.729     -329.416      -38.877      267.440      247.202      114.082    71523.889    61108.964    13014.795       26.183        7.282      613.643      120.600        0.039      346.604       24.968      854.586
06/10/2013  12:47:00     -382.546     -227.992       20.107      274.420      236.846      107.923    75306.597    56096.041    11647.347       17.086        7.152      445.333      123.795        0.077      346.646       25.041      854.597
06/10/2013  12:48:00     -589.486     -378.498       -5.592      289.019      185.090      121.750    83532.053    34258.221    14823.014       31.167        6.631      700.539      143.695        0.042      346.613       24.983      854.604
06/10/2013  12:49:00     -568.302     -365.190      -37.966      197.588      172.953       99.124    39041.192    29912.593     9825.579       26.826        3.939      675.523       94.522        0.020      346.643       25.034      854.630
06/10/2013  12:50:00     -327.118     -129.079      -12.299      204.945      158.827       82.122    42002.468    25226.042     6743.958        9.888        3.699      351.664       85.962        0.060      346.734       25.191      854.681
06/10/2013  12:51:00     -314.336     -211.074      -19.552      189.941      195.579       74.356    36077.655    38251.247     5528.862       11.178        3.993      378.629       95.469        0.064      346.704       25.138      854.663
06/10/2013  12:52:00     -539.317     -438.966       -6.642      347.624      204.071      140.242   120842.687    41644.910    19667.682       33.284        9.108      695.381      160.463        0.053      346.580       24.927      854.613
06/10/2013  12:53:00     -543.190     -370.505      -13.164      303.138      213.326      109.912    91892.714    45508.152    12080.584       29.096        7.474      657.518      116.986        0.032      346.571       24.910      854.672
06/10/2013  12:54:00     -554.812     -384.589      -33.207      283.515      232.285      109.156    80381.033    53956.129    11915.069       30.151        7.313      675.074      121.622        0.032      346.573       24.915      854.723
06/10/2013  12:55:00     -499.482     -282.161      -18.630      251.422      189.517      100.984    63212.789    35916.707    10197.737       21.936        5.466      573.670      104.474        0.033      346.592       24.947      854.751
06/10/2013  12:56:00     -383.590     -295.910       -5.000      256.355      198.748      113.764    65717.829    39500.869    12942.262       17.642        5.908      484.463      126.411        0.068      346.606       24.972      854.793
06/10/2013  12:57:00     -321.101     -332.159       14.944      242.206      174.422      115.866    58663.506    30422.963    13425.043       15.806        5.126      461.990      124.876        0.073      346.621       24.997      854.827
06/10/2013  12:58:00     -282.890     -197.266        8.340      225.818      171.610       96.180    50993.615    29450.057     9250.531       10.433        4.485      344.878      106.399        0.095      346.654       25.053      854.903
06/10/2013  12:59:00     -489.079     -162.261      -17.236      301.276      208.916      111.201    90767.051    43645.765    12365.767       20.627        7.339      515.293      119.931        0.054      346.601       24.963      854.912
06/10/2013  13:00:00     -368.171     -200.906      -31.078      221.651      179.946       92.266    49128.964    32380.701     8513.043       13.343        4.501      419.420      104.215        0.062      346.585       24.936      854.921
06/10/2013  13:01:00     -356.342     -172.314       19.035      232.833      147.049       98.430    54211.399    21623.543     9688.413       12.126        4.276      395.817      101.782        0.066      346.590       24.943      854.971
06/10/2013  13:02:00     -285.143     -250.847      -13.804      202.682      188.661       77.991    41080.122    35592.963     6082.590       11.357        4.138      379.778       71.140        0.035      346.609       24.977      855.042
06/10/2013  13:03:00     -458.840     -329.309       11.299      299.992      217.967      107.924    89995.187    47509.423    11647.573       23.410        7.458      564.782      132.511        0.055      346.525       24.833      855.064
06/10/2013  13:04:00     -279.222     -209.021        7.454      221.209      146.857       81.334    48933.442    21567.101     6615.286        9.940        3.856      348.791       94.124        0.073      346.541       24.860      855.075
06/10/2013  13:05:00     -285.239     -226.320       -0.569      203.880      173.314       87.287    41566.858    30037.760     7619.077       10.589        3.961      364.118       86.313        0.056      346.556       24.886      855.116
06/10/2013  13:06:00     -377.356     -279.782       -3.998      208.009      133.796       73.507    43267.636    17901.485     5403.254       14.362        3.329      469.761       71.669        0.023      346.541       24.859      855.143
06/10/2013  13:07:00     -490.038     -316.760      -19.478      276.435      230.074      114.547    76416.234    52934.036    13120.921       24.163        7.124      583.502      124.286        0.045      346.529       24.839      855.192
06/10/2013  13:08:00     -263.469     -419.448      -34.578      221.839      253.374      108.186    49212.704    64198.605    11704.183       18.581        6.256      495.331       87.357        0.031      346.545       24.867      855.204
06/10/2013  13:09:00     -313.659     -210.604        9.076      174.683      147.809       77.781    30514.138    21847.643     6049.916       10.060        2.921      377.804       85.462        0.051      346.569       24.907      855.241
06/10/2013  13:10:00     -275.477     -198.743       -4.847      188.923      141.630       72.288    35691.898    20059.164     5225.497        8.818        3.049      339.685       77.109        0.052      346.534       24.847      855.277
06/10/2013  13:11:00     -311.171     -133.864      -21.174      151.970      102.831       73.817    23094.824    10574.167     5448.925        7.715        1.956      338.743       77.849        0.053      346.481       24.755      855.266
06/10/2013  13:12:00     -209.269     -218.044      -11.965      141.581      125.468       68.130    20045.215    15742.337     4641.677        6.595        2.021      302.219       69.489        0.053      346.501       24.792      855.305
06/10/2013  13:13:00     -126.725     -152.542        3.159      167.613      110.481       77.216    28094.266    12206.139     5962.357        4.279        2.313      198.313       77.196        0.152      346.515       24.815      855.297
06/10/2013  13:14:00      -45.820     -129.306       -4.851      152.268      118.686       72.219    23185.518    14086.259     5215.559        3.066        2.124      137.184       60.993        0.198      346.484       24.763      855.320
06/10/2013  13:15:00      -83.860     -226.788       -8.397      104.827      166.966       61.722    10988.686    27877.699     3809.664        5.060        2.134      241.796       42.212        0.030      346.498       24.786      855.375
06/10/2013  13:16:00     -191.462     -243.805        1.926      173.769      153.091       70.376    30195.502    23436.781     4952.800        7.733        2.929      309.998       67.261        0.047      346.485       24.763      855.387
06/10/2013  13:17:00     -206.732     -266.577       -4.351      157.713      181.861       66.906    24873.368    33073.542     4476.411        8.811        3.121      337.345       56.266        0.028      346.466       24.730      855.422
06/10/2013  13:18:00     -155.893     -269.015      -12.779      108.510      119.442       52.165    11774.451    14266.328     2721.214        6.279        1.438      310.921       47.326        0.023      346.480       24.757      855.469
06/10/2013  13:19:00     -146.723     -143.255        9.192      114.735      112.479       52.027    13164.160    12651.494     2706.777        3.532        1.426      205.060       52.060        0.064      346.486       24.765      855.463
06/10/2013  13:20:00     -134.335     -121.770        9.924      101.687       99.501       54.461    10340.243     9900.496     2966.013        2.808        1.160      181.311       52.232        0.083      346.532       24.848      855.525
06/10/2013  13:21:00      -81.308      -87.453       16.194      100.707       63.445       41.157    10141.830     4025.246     1693.890        1.519        0.793      119.411       44.174        0.137      346.562       24.899      855.561
06/10/2013  13:22:00      -59.631     -154.166      -15.188       99.930       99.029       58.907     9986.094     9806.741     3470.083        2.540        1.163      165.297       46.300        0.078      346.531       24.844      855.606
06/10/2013  13:23:00      -38.419      -91.691        9.586       79.500      116.213       71.832     6320.201    13505.363     5159.847        1.748        1.249       99.415       80.498        0.656      346.549       24.876      855.627
06/10/2013  13:24:00      -16.894     -200.602      -10.600      187.153      132.958       71.044    35026.278    17677.891     5047.187        4.918        2.888      201.312       43.677        0.047      346.475       24.746      855.640
06/10/2013  13:25:00     -159.007     -133.127        0.204       96.663      121.348       50.560     9343.656    14725.332     2556.364        3.481        1.331      207.379       52.651        0.064      346.462       24.723      855.659
06/10/2013  13:26:00     -221.403     -233.281       13.294      162.387      161.454       77.969    26369.525    26067.309     6079.199        8.105        2.926      321.620       82.168        0.065      346.457       24.714      855.702
06/10/2013  13:27:00     -257.424     -222.287        5.670      147.145      132.270       67.088    21651.597    17495.228     4500.864        7.967        2.182      340.115       66.214        0.038      346.446       24.696      855.764
06/10/2013  13:28:00     -170.895     -181.424      -11.324       76.047       92.798       41.199     5783.114     8611.498     1697.394        3.917        0.805      249.238       45.486        0.033      346.464       24.726      855.801
06/10/2013  13:29:00     -112.002      -79.347        3.735      108.158       68.509       46.068    11698.193     4693.488     2122.240        1.868        0.926      137.260       55.694        0.165      346.456       24.715      855.825
06/10/2013  13:30:00      -29.154      -53.100       -1.077       64.574       70.016       42.978     4169.774     4902.278     1847.097        0.729        0.546       60.577       34.700        0.328      346.493       24.779      855.857
06/10/2013  13:31:00      -18.303      -96.676       10.392       55.091       99.940       45.223     3034.980     9988.045     2045.149        1.243        0.753       98.393       47.744        0.235      346.458       24.720      855.872
06/10/2013  13:32:00       61.782     -154.670       -0.659      112.108      122.772       75.844    12568.139    15073.083     5752.298        3.056        1.670      166.553       75.820        0.207      346.412       24.640      855.867
06/10/2013  13:33:00       16.850      -71.508       -2.157       68.733       90.774       50.673     4724.200     8239.921     2567.803        1.046        0.777       73.466       50.470        0.472      346.378       24.583      855.894
06/10/2013  13:34:00       37.494      -63.133       19.205       49.616       92.703       49.582     2461.714     8593.839     2458.335        0.963        0.676       73.428       55.379        0.569      346.377       24.581      855.900
06/10/2013  13:35:00       45.618     -162.536       -0.345      136.957      138.619       64.491    18757.351    19215.324     4159.082        3.531        2.107      168.816       72.968        0.187      346.379       24.583      855.946
06/10/2013  13:36:00       79.050     -120.479        4.325       87.702       88.739       50.234     7691.709     7874.598     2523.445        1.943        0.904      144.098       39.547        0.075      346.337       24.511      855.975
06/10/2013  13:37:00       77.704     -121.105       19.117       83.472       93.230       41.824     6967.615     8691.926     1749.237        1.924        0.870      143.890       42.281        0.086      346.339       24.514      855.993
06/10/2013  13:38:00       79.130      -63.326       17.599       80.162       81.328       57.838     6426.013     6614.320     3345.279        1.348        0.819      101.350       55.906        0.304      346.334       24.507      856.032
06/10/2013  13:39:00       53.679      -88.299       10.801       79.197       63.565       42.141     6272.154     4040.568     1775.855        1.144        0.604      103.336       33.906        0.108      346.355       24.542      856.059
06/10/2013  13:40:00      167.615     -192.790       -4.242       81.038       84.417       50.009     6567.179     7126.155     2500.859        4.073        0.810      255.465       45.650        0.032      346.297       24.439      856.109
06/10/2013  13:41:00      -45.045      -83.875        1.146       70.827       71.306       44.186     5016.445     5084.601     1952.396        1.056        0.603       95.206       48.565        0.260      346.318       24.476      856.179
06/10/2013  13:42:00       32.233       -5.257       37.166       69.189       65.720       42.674     4787.055     4319.085     1821.036        0.669        0.546       32.659       36.143        1.225      346.160       24.207      856.185
06/10/2013  13:43:00       -9.210      -13.598        0.699       33.789       34.925       28.133     1141.684     1219.782      791.479        0.171        0.158       16.424       19.617        1.427      346.040       24.001      856.239
06/10/2013  13:44:00      -10.450       15.755       14.803       31.722       25.429       20.968     1006.303      646.611      439.642        0.133        0.105       18.906       11.972        0.401      346.166       24.220      856.303
06/10/2013  13:45:00       31.339      -17.072        7.457       42.370       54.251       36.815     1795.211     2943.207     1355.350        0.371        0.305       35.687       31.050        0.757      346.061       24.037      856.371
06/10/2013  13:46:00       17.856      -50.631       10.824       62.702       76.731       44.386     3931.598     5887.602     1970.146        0.739        0.589       53.688       43.965        0.671      346.249       24.361      856.468
06/10/2013  13:47:00      -49.718      -97.803      -14.009      132.257       77.435       62.987    17491.820     5996.163     3967.352        1.984        1.373      109.715       42.348        0.149      346.289       24.427      856.537
06/10/2013  13:48:00      -56.530      -28.679       21.879       69.911       45.396       35.677     4887.546     2060.792     1272.827        0.636        0.411       63.389       30.243        0.228      346.334       24.507      856.646
06/10/2013  13:49:00      -27.478      -80.281        3.973       53.339       87.088       33.813     2845.067     7584.358     1143.325        0.939        0.579       84.853       29.866        0.124      346.243       24.350      856.722
06/10/2013  13:50:00      185.578       68.467       41.035      119.138       51.854       47.112    14193.958     2688.789     2219.521        2.995        0.955      197.806       50.602        0.065      346.148       24.185      856.751
06/10/2013  13:51:00      158.007       87.177       84.854      118.710      106.349       94.864    14092.113    11310.096     8999.190        3.708        1.720      180.461       79.002        0.192      346.118       24.133      856.826
06/10/2013  13:52:00      165.793      127.364       83.240      126.108       94.256       73.447    15903.186     8884.113     5394.422        4.040        1.509      209.067       28.878        0.019      345.923       23.798      856.909
06/10/2013  13:53:00      164.876      129.152       42.654      109.007       74.457       63.544    11882.533     5543.898     4037.829        3.357        1.073      209.438       35.013        0.028      345.759       23.518      856.963
06/10/2013  13:54:00      228.530      188.751       24.503      112.157       80.112       69.441    12579.129     6417.982     4821.996        5.613        1.191      296.400       53.578        0.033      345.656       23.338      856.979
06/10/2013  13:55:00      158.426      166.646       16.751      115.396      100.574       77.672    13316.266    10115.226     6032.900        4.130        1.473      229.934       62.773        0.075      345.351       22.817      857.015
06/10/2013  13:56:00      283.876      189.299       34.188      142.528      126.747       83.247    20314.254    16064.911     6930.011        8.044        2.165      341.203       32.928        0.009      344.492       21.346      856.990
06/10/2013  13:57:00      356.927      237.578       39.429      180.484      131.266      114.940    32574.297    17230.800    13211.285       12.419        3.151      428.766       63.066        0.022      344.412       21.208      856.972
06/10/2013  13:58:00      240.501      121.176       54.549      141.624      119.899       92.142    20057.235    14375.818     8490.094        5.920        2.146      269.303       49.419        0.034      344.434       21.248      856.964
06/10/2013  13:59:00      295.068      194.101       11.544      145.774      114.687       92.326    21249.927    13153.091     8524.081        8.389        2.146      353.186       69.634        0.039      344.256       20.942      856.982
06/10/2013  14:00:00      252.246      167.982       58.051      164.393      118.636       90.284    27025.061    14074.455     8151.131        7.222        2.463      303.061       79.465        0.069      344.251       20.933      857.016
06/10/2013  14:01:00      124.423       93.188       21.394      109.420       91.494       77.119    11972.741     8371.147     5947.409        2.545        1.315      155.452       53.242        0.117      344.187       20.828      857.056
06/10/2013  14:02:00      198.319      171.543        8.380      123.071       95.764       91.714    15146.382     9170.649     8411.371        5.077        1.636      262.217       51.582        0.039      344.192       20.832      857.038
06/10/2013  14:03:00       53.259      310.689      -47.173       74.617      125.565       48.254     5567.695    15766.459     2328.417        6.262        1.183      315.221       56.125        0.032      344.108       20.690      857.010
06/10/2013  14:04:00       71.494      257.512       -4.830      112.095      153.658       91.995    12565.349    23610.879     8463.035        5.803        2.232      267.253       93.403        0.122      344.197       20.842      856.982
06/10/2013  14:05:00      161.689      229.205        5.967      151.437      132.698       74.566    22933.030    17608.731     5560.075        6.240        2.305      280.497       80.514        0.082      344.129       20.726      856.979
06/10/2013  14:06:00      -22.156      366.136      -53.211       83.681       83.850       46.592     7002.432     7030.849     2170.770        7.679        0.810      366.806       40.436        0.012      343.968       20.451      856.977
06/10/2013  14:07:00       20.416      465.029      -61.823       94.986      126.172       62.014     9022.248    15919.342     3845.718       12.463        1.439      465.477       61.565        0.017      343.769       20.111      856.960
06/10/2013  14:08:00      -68.264      206.803       -8.104      120.813      160.894       85.017    14595.863    25886.751     7227.830        4.759        2.386      217.779       99.950        0.211      343.892       20.322      856.954
06/10/2013  14:09:00      -43.672      294.096      -12.629      113.982      159.555       73.480    12991.792    25457.713     5399.368        6.620        2.192      297.321       84.303        0.080      343.829       20.213      857.004
06/10/2013  14:10:00     -111.595      339.103      -40.989      108.302      157.953       60.663    11729.385    24949.223     3679.986        8.473        2.018      356.994       78.544        0.048      343.784       20.136      857.030
06/10/2013  14:11:00       14.381      146.686      -17.345       67.219       70.612       43.361     4518.346     4986.057     1880.206        1.670        0.569      147.389       38.436        0.068      343.909       20.352      857.047
06/10/2013  14:12:00       36.653      145.736        7.868       77.715      119.726       67.591     6039.652    14334.259     4568.575        2.379        1.247      150.275       71.598        0.227      343.908       20.349      857.074
06/10/2013  14:13:00       11.691      221.594      -36.420       78.764      121.034       57.778     6203.740    14649.293     3338.347        3.737        1.210      221.902       69.001        0.097      343.833       20.221      857.099
06/10/2013  14:14:00       54.602      143.772      -11.583       84.348       73.215       47.145     7114.531     5360.408     2222.623        1.924        0.735      153.791       41.910        0.074      343.920       20.370      857.111
06/10/2013  14:15:00      154.095      170.678       -4.469      150.534       96.018       71.675    22660.395     9219.389     5137.367        4.495        1.851      229.949       56.677        0.061      343.829       20.214      857.142
06/10/2013  14:16:00      128.751      142.191       24.719      126.764      112.736       82.368    16069.126    12709.342     6784.450        3.648        1.778      191.820       60.558        0.100      343.844       20.241      857.146
06/10/2013  14:17:00     -161.823      230.464      -19.845      156.792      159.196       98.379    24583.737    25343.259     9678.515        6.964        2.980      281.603      101.434        0.130      343.786       20.139      857.122
06/10/2013  14:18:00      -42.443      249.266       -0.617       94.133      189.650       84.144     8861.083    35967.236     7080.281        5.791        2.595      252.853       91.865        0.132      343.758       20.093      857.095
06/10/2013  14:19:00      -45.168      398.870      -24.282      136.738      192.583       97.955    18697.331    37088.314     9595.088       11.354        3.269      401.419       92.997        0.054      343.787       20.143      857.110
06/10/2013  14:20:00       12.332      472.265      -51.071      129.317      191.181       95.413    16722.982    36550.260     9103.703       14.407        3.119      472.426      101.755        0.046      343.722       20.032      857.125
06/10/2013  14:21:00       50.176      269.571      -14.344      115.665      238.033       75.647    13378.291    56659.713     5722.440        7.556        3.788      274.201       92.776        0.114      343.644       19.899      857.092
06/10/2013  14:22:00       70.999      162.794        6.187       93.715      101.185       76.777     8782.523    10238.417     5894.653        2.824        1.246      177.603       41.686        0.055      343.716       20.021      857.013
06/10/2013  14:23:00      425.613      222.198       65.358      202.399      113.294       93.488    40965.407    12835.483     8740.069       14.865        3.127      480.123       58.725        0.015      343.599       19.822      856.990
06/10/2013  14:24:00      358.291      178.111       64.044      200.949      141.817      133.307    40380.507    20112.021    17770.647       12.121        3.913      400.120       97.371        0.059      343.572       19.775      856.946
06/10/2013  14:25:00      200.700      173.694       18.780      152.202      101.163       93.568    23165.523    10233.995     8754.888        5.647        2.108      265.425       69.339        0.068      343.662       19.928      856.915
06/10/2013  14:26:00      154.813       76.841       16.653       96.544       64.384       58.795     9320.663     4145.304     3456.860        2.353        0.846      172.834       26.791        0.024      343.710       20.010      856.856
06/10/2013  14:27:00      182.512      230.188        6.225      189.742      169.400       98.014    36002.161    28696.501     9606.797        8.031        3.715      293.764       85.085        0.084      343.693       19.982      856.837
06/10/2013  14:28:00      268.836      163.663       19.662      142.498      100.749       87.770    20305.551    10150.290     7703.588        6.879        1.908      314.735       61.502        0.038      343.734       20.050      856.810
06/10/2013  14:29:00      335.104      227.139       30.580      141.861      104.383       86.241    20124.558    10895.793     7437.576       10.163        1.923      404.830       52.920        0.017      343.651       19.909      856.757
06/10/2013  14:30:00      264.014      186.741       61.136      175.456      141.111      110.207    30784.812    19912.259    12145.656        8.557        3.142      323.382       53.709        0.028      343.720       20.027      856.705
06/10/2013  14:31:00      410.010      224.151       46.928      160.880      114.631      103.239    25882.244    13140.334    10658.250       13.511        2.484      467.281       68.550        0.022      343.715       20.017      856.702
06/10/2013  14:32:00      259.445      141.517       52.573       97.315       93.816       86.220     9470.183     8801.499     7433.898        5.790        1.285      295.531       44.451        0.023      343.716       20.020      856.708
06/10/2013  14:33:00      279.850      151.274       28.119      146.703      119.668       91.916    21521.893    14320.526     8448.614        7.313        2.215      318.119       56.289        0.031      343.712       20.012      856.702
06/10/2013  14:34:00      212.964      119.627       38.878      142.615      108.337       88.610    20338.967    11736.803     7851.690        5.054        1.996      244.263       59.970        0.060      343.683       19.964      856.713
06/10/2013  14:35:00      165.571       75.318       51.161      130.355       92.316       71.569    16992.366     8522.292     5122.070        3.316        1.532      181.897       51.844        0.081      343.684       19.966      856.725
06/10/2013  14:36:00      266.450      192.966       25.786      157.057      115.238       93.853    24666.805    13279.792     8808.298        7.782        2.338      328.985       63.701        0.037      343.599       19.821      856.745
06/10/2013  14:37:00      247.465      197.773       16.335      140.036      108.707       87.069    19610.031    11817.309     7580.970        6.981        1.950      316.786       48.811        0.024      343.519       19.683      856.768
06/10/2013  14:38:00      251.483      140.853       28.507      114.466       90.462       65.233    13102.406     8183.339     4255.351        5.471        1.277      288.242       23.603        0.007      343.547       19.732      856.777
06/10/2013  14:39:00      194.649      168.295       30.214      165.379      133.889       91.786    27350.330    17926.280     8424.698        6.040        2.685      257.316       53.065        0.043      343.568       19.768      856.789
06/10/2013  14:40:00      292.683      193.561       23.877      125.238       98.035       86.954    15684.542     9610.829     7561.008        7.827        1.643      350.897       57.783        0.027      343.561       19.755      856.819
06/10/2013  14:41:00      326.358      230.133       31.650      114.738       89.035       80.926    13164.738     7927.208     6549.076        9.405        1.382      399.338       48.855        0.015      343.550       19.737      856.848
06/10/2013  14:42:00      343.567      201.665       39.253       96.010       78.449       67.676     9217.952     6154.255     4580.065        9.010        0.998      398.381       29.033        0.005      343.587       19.800      856.860
06/10/2013  14:43:00      174.829       94.778       32.721       86.111       57.498       47.865     7415.025     3305.983     2291.018        2.681        0.651      198.867       34.264        0.030      343.602       19.826      856.874
06/10/2013  14:44:00      180.487      157.282       39.133      132.189      110.874       78.288    17473.999    12292.963     6128.971        4.736        1.795      239.401       63.101        0.069      343.503       19.658      856.899
06/10/2013  14:45:00      130.756      202.488        0.427      117.169      133.800       86.738    13728.676    17902.471     7523.437        4.862        1.958      241.036       77.324        0.103      343.424       19.522      856.889
06/10/2013  14:46:00      113.902      153.482        9.491      107.802       98.736       78.908    11621.198     9748.801     6226.496        3.210        1.380      191.129       67.513        0.125      343.400       19.482      856.892
06/10/2013  14:47:00      146.308      145.881       -9.636       98.727      100.843       55.149     9746.993    10169.308     3041.372        3.286        1.148      206.609       53.328        0.067      343.392       19.467      856.888
06/10/2013  14:48:00      151.105       97.860       21.696       65.689       63.877       42.233     4314.985     4080.277     1783.654        2.153        0.509      180.026       33.369        0.034      343.386       19.459      856.882
06/10/2013  14:49:00      156.099       78.112       21.740       97.885       60.558       53.115     9581.570     3667.321     2821.184        2.350        0.804      174.552       20.457        0.014      343.370       19.432      856.884
06/10/2013  14:50:00      216.062      153.017       25.792       85.033       70.371       60.214     7230.669     4952.143     3625.729        4.328        0.790      264.759       27.331        0.011      343.265       19.251      856.890
06/10/2013  14:51:00      246.391      118.504       23.534      111.591       86.773       68.501    12452.575     7529.548     4692.389        4.999        1.234      273.408       29.279        0.011      343.301       19.311      856.885
06/10/2013  14:52:00      156.930      126.840       14.442      116.316       80.744       59.650    13529.423     6519.530     3558.153        3.226        1.180      201.780       50.884        0.064      343.286       19.288      856.880
06/10/2013  14:53:00      100.822      167.837       -2.182       84.439      105.578       69.156     7129.932    11146.652     4782.584        3.069        1.153      195.791       70.069        0.128      343.198       19.137      856.894
06/10/2013  14:54:00      124.427      131.809        8.598       80.748       86.050       48.583     6520.220     7404.571     2360.287        2.460        0.814      181.261       46.808        0.067      343.166       19.085      856.909
06/10/2013  14:55:00      181.100      119.098       40.247       78.274       59.583       49.534     6126.875     3550.104     2453.602        3.036        0.607      216.753       10.139        0.002      343.214       19.164      856.922
06/10/2013  14:56:00      183.274      129.261       18.738       84.341       83.851       70.825     7113.464     7030.948     5016.166        3.490        0.958      224.272       53.329        0.057      343.177       19.100      856.935
06/10/2013  14:57:00      214.902      143.331       33.008       86.508       61.065       52.643     7483.677     3728.905     2771.291        4.090        0.699      258.315       18.116        0.005      343.165       19.078      856.958
06/10/2013  14:58:00      141.531      102.234        2.661      106.135       85.188       65.716    11264.571     7257.071     4318.611        2.666        1.142      174.593       50.072        0.082      343.150       19.057      856.969
06/10/2013  14:59:00      153.672       77.705        4.933       88.738       60.639       41.402     7874.461     3677.034     1714.095        2.147        0.663      172.201       18.252        0.011      343.179       19.105      856.990
06/10/2013  15:00:00      146.987       91.010        7.787       92.715       79.631       50.666     8596.130     6341.063     2567.052        2.372        0.875      172.881       29.821        0.030      343.127       19.018      857.016
06/10/2013  15:01:00      129.008       70.603       13.143      100.849       64.800       55.332    10170.571     4199.006     3061.619        1.961        0.872      147.064       38.788        0.070      343.120       19.005      857.045
06/10/2013  15:02:00      137.907      110.640       18.218       79.986       59.262       45.782     6397.723     3511.983     2095.999        2.180        0.600      176.804       34.630        0.038      343.104       18.978      857.093
06/10/2013  15:03:00      250.133      146.864       66.006      113.728       79.113       64.302    12934.117     6258.881     4134.804        5.591        1.166      290.061       55.850        0.037      343.081       18.937      857.141
06/10/2013  15:04:00       94.970       73.835       27.189       93.309       52.937       50.605     8706.493     2802.363     2560.853        1.464        0.703      120.295       32.075        0.071      343.112       18.993      857.211
06/10/2013  15:05:00       48.629       77.261        2.465       47.791       56.066       35.995     2284.026     3143.398     1295.614        0.753        0.336       91.291       32.669        0.128      343.117       19.003      857.291
06/10/2013  15:06:00      128.776       92.300       32.029       58.618       53.312       41.440     3436.074     2842.180     1717.292        1.706        0.400      158.438       15.146        0.009      343.087       18.950      857.393
06/10/2013  15:07:00       21.613      203.016      -25.287       50.269      136.272       40.048     2527.012    18570.031     1603.803        3.251        1.135      204.163       55.225        0.073      343.051       18.889      857.519
06/10/2013  15:08:00      -21.544      215.175       -8.615       72.359       91.377       55.956     5235.795     8349.826     3131.085        3.177        0.836      216.250       58.502        0.073      343.066       18.914      857.648
06/10/2013  15:09:00      -28.585      335.605      -36.028       61.390       95.402       40.297     3768.704     9101.533     1623.853        6.462        0.725      336.820       37.671        0.013      343.110       18.986      857.772
06/10/2013  15:10:00      -54.697      315.757      -35.660       86.994      101.996       57.718     7567.984    10403.156     3331.385        6.263        1.065      320.459       54.337        0.029      343.174       19.097      857.845
06/10/2013  15:11:00       -2.200      402.940      -43.574       98.357      165.321       78.706     9674.053    27331.042     6194.685       10.372        2.160      402.946       85.069        0.045      343.039       18.867      857.878
06/10/2013  15:12:00      -37.422      428.615      -48.327      129.530      132.215       77.265    16778.140    17480.831     5969.829       11.383        2.011      430.245       72.118        0.028      342.971       18.750      857.895
06/10/2013  15:13:00      -29.997      442.737      -55.360       77.638      125.400       49.588     6027.612    15725.220     2458.957       11.209        1.211      443.752       58.177        0.017      342.904       18.638      857.908
06/10/2013  15:14:00       26.881      153.814       15.157       99.390      116.372       74.606     9878.387    13542.458     5566.054        2.679        1.449      156.145       75.475        0.234      343.003       18.807      857.933
06/10/2013  15:15:00       72.362      252.433      -19.001       97.965      126.258       70.379     9597.169    15941.053     4953.273        4.990        1.525      262.600       70.203        0.071      342.995       18.791      857.924
06/10/2013  15:16:00       94.400      244.692      -11.780      128.169      151.745       86.848    16427.416    23026.695     7542.620        5.795        2.350      262.270       91.383        0.121      342.974       18.757      857.900
06/10/2013  15:17:00      180.344      190.166       11.832      143.666      132.423      107.499    20640.040    17535.921    11556.113        5.927        2.487      262.082       89.795        0.117      342.977       18.761      857.870
06/10/2013  15:18:00      120.478      196.830        5.070      103.363      153.031      103.238    10683.932    23418.569    10658.052        4.901        2.238      230.775       81.286        0.124      343.011       18.820      857.849
06/10/2013  15:19:00      110.284      135.554        8.783       92.242       96.653       58.228     8508.531     9341.734     3390.552        2.592        1.062      174.750       55.558        0.101      343.020       18.835      857.831
06/10/2013  15:20:00      115.301      152.577       -3.148      104.086       92.730       65.553    10833.922     8598.792     4297.259        3.015        1.186      191.244       52.952        0.077      342.969       18.748      857.850
06/10/2013  15:21:00      183.457      147.761       19.656      139.265      103.190       87.274    19394.701    10648.235     7616.761        4.676        1.883      235.562       55.413        0.055      342.897       18.626      857.850
06/10/2013  15:22:00       75.812      173.260      -19.754       82.856       79.999       50.512     6865.150     6399.765     2551.507        2.598        0.791      189.120       41.556        0.048      342.928       18.678      857.863
06/10/2013  15:23:00      123.359      110.707       10.757       94.820       71.960       56.788     8990.882     5178.247     3224.853        2.249        0.870      165.751       44.400        0.072      342.942       18.703      857.876
06/10/2013  15:24:00       97.107      172.527        9.001      100.479      131.919       87.955    10095.940    17402.556     7736.115        3.725        1.762      197.978       78.075        0.156      342.909       18.647      857.899
06/10/2013  15:25:00      116.239      219.053       -0.223      113.645      106.740       78.883    12915.284    11393.385     6222.582        4.601        1.527      247.984       70.776        0.081      342.850       18.545      857.917
06/10/2013  15:26:00      116.614      166.593       11.023      119.526      125.301       89.886    14286.435    15700.460     8079.474        3.976        1.903      203.352       80.857        0.158      342.833       18.516      857.918
06/10/2013  15:27:00      148.910      128.412       10.873      110.016       77.487       67.344    12103.529     6004.234     4535.233        3.071        1.132      196.631       46.787        0.057      342.793       18.447      857.906
06/10/2013  15:28:00       95.338      126.607        5.935       73.432       80.415       59.917     5392.196     6466.645     3590.033        2.030        0.772      158.489       52.995        0.112      342.845       18.539      857.921
06/10/2013  15:29:00       47.414       60.880       17.882       58.194       48.109       47.483     3386.522     2314.486     2254.675        0.711        0.398       77.165       25.491        0.109      342.905       18.641      857.936
06/10/2013  15:30:00       49.082      136.934       -5.333       84.110       72.854       56.533     7074.478     5307.674     3196.032        1.838        0.779      145.465       55.125        0.144      342.951       18.718      857.969
06/10/2013  15:31:00       20.506      192.034      -11.142       51.668       93.218       44.306     2669.596     8689.512     1963.009        2.537        0.666      193.126       49.730        0.066      342.969       18.747      857.992
06/10/2013  15:32:00      -14.411      185.160      -17.061       67.576      132.613       39.793     4566.468    17586.212     1583.466        2.925        1.187      185.720       47.897        0.067      343.019       18.835      858.006
06/10/2013  15:33:00      -34.983      227.757      -25.790      101.037      101.456       42.388    10208.395    10293.247     1796.768        3.803        1.115      230.428       46.750        0.041      343.065       18.911      858.032
06/10/2013  15:34:00      -30.752      306.189      -23.562       75.401       74.732       47.778     5685.257     5584.942     2282.692        5.440        0.678      307.730       35.966        0.014      343.063       18.906      858.067
06/10/2013  15:35:00      -98.622      262.721      -33.220      125.454      105.421       52.953    15738.611    11113.658     2803.975        5.475        1.483      280.622       54.817        0.038      343.030       18.851      858.086
06/10/2013  15:36:00     -141.544      321.178      -45.171      102.616      125.326       68.147    10530.030    15706.604     4644.023        7.805        1.544      350.984       63.598        0.033      342.978       18.763      858.106
06/10/2013  15:37:00     -116.499      362.949      -32.255       93.847      149.851       73.313     8807.275    22455.374     5374.847        9.148        1.832      381.188       74.687        0.038      342.846       18.538      858.106
06/10/2013  15:38:00      -86.540      325.993      -37.312       99.234       96.869       60.467     9847.429     9383.579     3656.270        6.902        1.144      337.284       49.056        0.021      342.772       18.410      858.109
06/10/2013  15:39:00     -141.148      363.463      -43.354      117.253      138.588       55.968    13748.274    19206.532     3132.370        9.499        1.804      389.908       64.685        0.028      342.688       18.270      858.082
06/10/2013  15:40:00      -24.454      298.008      -28.105       90.351       92.853       56.102     8163.325     8621.726     3147.386        5.506        0.997      299.009       48.394        0.026      342.695       18.282      858.073
06/10/2013  15:41:00      -57.997      262.510      -31.339      105.109      120.874       52.874    11047.801    14610.568     2795.673        5.085        1.423      268.840       55.531        0.043      342.723       18.330      858.048
06/10/2013  15:42:00     -114.499      275.887      -24.165      123.495      106.646       59.208    15250.975    11373.265     3505.539        5.996        1.506      298.703       65.814        0.049      342.712       18.310      858.048
06/10/2013  15:43:00     -151.858      280.146      -35.979       90.043      132.943       70.019     8107.798    17673.952     4902.609        6.675        1.534      318.658       80.208        0.063      342.677       18.251      858.040
06/10/2013  15:44:00      -94.783      307.918      -28.254       90.435      131.701       60.355     8178.473    17345.193     3642.691        6.688        1.458      322.176       66.556        0.043      342.731       18.344      858.053
06/10/2013  15:45:00      -73.161      382.771      -47.198      101.466      154.072       57.963    10295.447    23738.111     3359.694        9.574        1.870      389.700       60.602        0.024      342.648       18.201      858.053
06/10/2013  15:46:00     -139.765      386.145      -43.403      127.656      126.961       64.231    16296.128    16118.990     4125.627       10.353        1.827      410.661       57.848        0.020      342.642       18.192      858.062
06/10/2013  15:47:00     -103.688      311.683      -40.954       98.505      116.368       51.803     9703.179    13541.422     2683.522        6.775        1.296      328.478       56.126        0.029      342.689       18.271      858.060
06/10/2013  15:48:00       -4.370      268.873      -24.644       66.195      151.239       69.909     4381.762    22873.112     4887.334        5.252        1.607      268.908       66.843        0.062      342.719       18.322      858.030
06/10/2013  15:49:00      -32.815      339.210      -16.035       99.973      178.753       87.540     9994.585    31952.675     7663.204        8.299        2.481      340.793      101.029        0.088      342.700       18.289      858.026
06/10/2013  15:50:00      -71.817      331.250      -30.446      108.715      142.313       54.557    11818.847    20252.871     2976.501        7.542        1.752      338.946       56.522        0.028      342.651       18.208      858.042
06/10/2013  15:51:00        7.557      412.383      -49.862       95.711      142.459       77.831     9160.607    20294.455     6057.628       10.405        1.776      412.452       84.905        0.042      342.585       18.094      858.021
06/10/2013  15:52:00      -55.806      391.652      -41.930       81.008      121.109       58.195     6562.284    14667.498     3386.670        9.144        1.231      395.608       46.965        0.014      342.514       17.974      858.022
06/10/2013  15:53:00      -22.149      430.692      -48.706      101.029      170.131       71.205    10206.796    28944.710     5070.125       11.628        2.211      431.261       79.533        0.034      342.475       17.905      858.057
06/10/2013  15:54:00      -76.287      514.028      -67.769       80.661      119.158       53.886     6506.213    14198.593     2903.684       14.912        1.180      519.658       52.210        0.010      342.422       17.816      858.069
06/10/2013  15:55:00      -59.636      399.659      -45.882       76.941      101.719       49.034     5919.988    10346.825     2404.353        9.203        0.934      404.084       45.301        0.013      342.411       17.798      858.080
06/10/2013  15:56:00     -128.077      387.687      -34.914      132.730      181.959       69.616    17617.155    33108.897     4846.432       11.174        2.779      408.295       75.785        0.034      342.457       17.878      858.090
06/10/2013  15:57:00      -55.234      337.494      -35.331       85.541       93.751       53.203     7317.312     8789.278     2830.548        6.857        0.947      341.984       49.121        0.021      342.442       17.850      858.102
06/10/2013  15:58:00     -102.620      354.481      -43.072      116.303      139.900       57.810    13526.363    19572.144     3342.042        8.723        1.822      369.036       64.904        0.031      342.421       17.817      858.092
06/10/2013  15:59:00      -70.587      351.473      -33.389       89.777       97.219       51.384     8059.983     9451.489     2640.340        7.489        1.008      358.491       33.175        0.009      342.375       17.736      858.082
06/10/2013  16:00:00      -31.080      249.549      -21.508       80.978      131.655       61.851     6557.439    17333.137     3825.604        4.570        1.386      251.477       72.961        0.084      342.380       17.747      858.072
06/10/2013  16:01:00      -71.791      430.574      -47.921      130.003      178.083       72.428    16900.829    31713.717     5245.879       12.334        2.693      436.518       86.417        0.039      342.352       17.698      858.084
06/10/2013  16:02:00      -85.034      446.380      -41.701      130.885      144.552       84.646    17130.888    20895.178     7164.983       12.670        2.260      454.407       88.840        0.038      342.396       17.773      858.072
06/10/2013  16:03:00      -62.251      432.622      -58.125      133.786      143.314       73.712    17898.656    20539.024     5433.447       11.913        2.194      437.078       76.262        0.030      342.554       18.042      858.083
06/10/2013  16:04:00     -140.331      338.169      -36.007      129.445      168.895       78.355    16756.122    28525.496     6139.497        9.337        2.571      366.130       80.062        0.048      342.419       17.812      858.090
06/10/2013  16:05:00     -126.862      363.742      -43.249      116.301      146.089       68.752    13525.985    21342.102     4726.830        9.493        1.980      385.230       60.298        0.025      342.333       17.667      858.076
06/10/2013  16:06:00      -55.420      274.824       -7.355      159.830      135.633       83.688    25545.781    18396.364     7003.613        6.479        2.547      280.356       93.555        0.111      342.290       17.592      858.085
06/10/2013  16:07:00      -20.912       45.485        9.147       63.645       80.109       48.112     4050.702     6417.475     2314.754        0.768        0.639       50.062       43.209        0.745      342.255       17.537      858.053
06/10/2013  16:08:00     -142.054       91.913      -23.040      135.488      149.877       62.385    18356.982    22463.187     3891.836        3.693        2.236      169.196       76.912        0.207      342.408       17.794      858.074
06/10/2013  16:09:00      -59.231      159.874      -15.320       73.983       82.806       52.023     5473.457     6856.783     2706.433        2.217        0.752      170.493       48.311        0.080      342.522       17.990      858.122
06/10/2013  16:10:00      -47.294       87.463      -12.402       72.311       86.293       38.330     5228.911     7446.432     1469.206        1.209        0.707       99.430       22.721        0.052      342.589       18.105      858.159
06/10/2013  16:11:00      -54.756      -60.452       -7.821       43.944       55.964       29.220     1931.106     3131.934      853.807        0.631        0.296       81.564       19.632        0.058      342.645       18.199      858.202
06/10/2013  16:12:00       17.364     -108.374      -11.875       49.002       72.045       42.467     2401.163     5190.424     1803.471        1.079        0.470      109.756       40.861        0.139      342.556       18.047      858.237
06/10/2013  16:13:00       -0.827     -128.462      -12.943       89.602       73.087       55.889     8028.432     5341.654     3123.612        1.658        0.825      128.465       33.236        0.067      342.563       18.060      858.261
06/10/2013  16:14:00       38.309     -155.865      -14.796      111.876      101.133       61.839    12516.346    10227.974     3824.121        2.627        1.328      160.504       48.403        0.091      342.510       17.968      858.297
06/10/2013  16:15:00      -28.221     -126.553      -15.396       70.896       54.046       33.932     5026.186     2921.002     1151.414        1.307        0.455      129.662       21.128        0.027      342.606       18.133      858.326
06/10/2013  16:16:00       28.440     -181.162        3.174       93.860       80.682       47.304     8809.746     6509.648     2237.702        2.559        0.878      183.381        5.117        0.001      342.582       18.091      858.332
06/10/2013  16:17:00      -51.515     -143.447        6.321       73.288       68.854       48.252     5371.201     4740.902     2328.233        1.785        0.622      152.417       42.084        0.076      342.629       18.172      858.330
06/10/2013  16:18:00       31.115     -113.506       14.155       84.525       98.342       73.694     7144.406     9671.119     5430.776        1.814        1.112      117.693       68.162        0.335      342.567       18.065      858.328
06/10/2013  16:19:00       84.213     -127.991      -12.746       66.900       86.657       64.347     4475.591     7509.460     4140.582        1.988        0.806      153.211       59.474        0.151      342.516       17.979      858.331
06/10/2013  16:20:00       44.974      -24.250       59.677       75.902       95.928       47.390     5761.104     9202.092     2245.783        1.169        0.860       51.095       59.380        1.351      342.519       17.986      858.333
06/10/2013  16:21:00      120.309     -245.816      -15.649       81.627      119.072       60.665     6663.026    14178.076     3680.214        4.983        1.226      273.678       49.836        0.033      342.501       17.952      858.329
06/10/2013  16:22:00       32.374     -150.154        5.930       77.312      108.469       69.689     5977.095    11765.445     4856.583        2.311        1.130      153.604       63.776        0.172      342.538       18.017      858.312
06/10/2013  16:23:00       39.043     -118.695       21.739       81.792       73.783       73.861     6689.952     5444.003     5455.418        1.683        0.879      124.952       48.343        0.150      342.594       18.111      858.301
06/10/2013  16:24:00       77.863     -169.889       -0.328       80.081       67.067       53.657     6412.962     4498.042     2879.091        2.435        0.690      186.882       48.568        0.068      342.479       17.915      858.324
06/10/2013  16:25:00       31.542     -126.556        6.916       76.265      122.014       59.646     5816.338    14887.531     3557.636        2.066        1.213      130.427       58.896        0.204      342.486       17.927      858.350
06/10/2013  16:26:00      134.974     -236.141      -20.419       82.683       83.897       53.285     6836.479     7038.786     2839.334        4.555        0.836      271.994       46.476        0.029      342.363       17.717      858.378
06/10/2013  16:27:00       71.701     -234.604       -3.871       70.927       76.164       48.380     5030.704     5800.880     2340.604        3.668        0.659      245.316       31.463        0.016      342.375       17.737      858.407
06/10/2013  16:28:00        9.326     -189.998       -4.133      102.895       96.851       46.179    10587.420     9380.030     2132.490        2.915        1.105      190.227       45.114        0.056      342.373       17.735      858.454
06/10/2013  16:29:00      111.140     -283.215      -16.046      100.834      116.610       68.067    10167.403    13597.848     4633.176        6.060        1.420      304.242       64.921        0.046      342.285       17.584      858.483
06/10/2013  16:30:00       97.177     -138.235       20.584       82.499      100.770       59.624     6806.098    10154.615     3555.001        2.474        1.026      168.974       58.352        0.119      342.344       17.686      858.528
06/10/2013  16:31:00       85.729     -165.398       -6.865       81.784      110.201       54.290     6688.616    12144.302     2947.451        2.826        1.089      186.296       56.962        0.093      342.340       17.677      858.586
06/10/2013  16:32:00      115.123     -220.823      -12.942       74.454       81.904       44.626     5543.398     6708.206     1991.451        3.821        0.712      249.030       23.713        0.009      342.291       17.594      858.642
06/10/2013  16:33:00       67.723      -60.415       65.684      152.729      115.846       75.690    23326.253    13420.181     5728.912        2.750        2.124       90.755       76.698        0.714      342.275       17.569      858.658
06/10/2013  16:34:00       52.693      -98.812       -4.905       59.291       41.228       44.425     3515.375     1699.747     1973.579        0.988        0.359      111.983       40.394        0.130      342.311       17.633      858.689
06/10/2013  16:35:00       89.066      -41.376       31.970       86.277       93.078       62.474     7443.700     8663.435     3902.945        1.533        1.001       98.207       67.204        0.468      342.278       17.575      858.691
06/10/2013  16:36:00       42.854       30.776       77.990       80.820      126.296       58.983     6531.878    15950.596     3478.975        1.741        1.298       52.760       72.412        1.884      342.160       17.374      858.679
06/10/2013  16:37:00       98.949      -56.966       50.344       88.896      106.205       71.477     7902.498    11279.576     5109.029        1.993        1.215      114.176       68.415        0.359      342.161       17.377      858.681
06/10/2013  16:38:00      113.203      -35.341       69.498      124.705      123.963      103.905    15551.458    15366.855    10796.340        3.030        2.086      118.592      115.040        0.941      342.085       17.247      858.689
06/10/2013  16:39:00      110.193      -48.778       52.077      119.023      120.290       61.312    14166.384    14469.674     3759.182        2.481        1.620      120.506       84.881        0.496      342.025       17.143      858.706
06/10/2013  16:40:00      117.721      -92.605       40.192      102.188       63.894       53.257    10442.350     4082.502     2836.359        2.070        0.868      149.780       42.654        0.081      341.960       17.033      858.715
06/10/2013  16:41:00      119.020      -89.761       17.247       75.759      100.420       62.621     5739.429    10084.220     3921.401        2.113        0.987      149.073       62.842        0.178      341.988       17.082      858.735
06/10/2013  16:42:00       95.420      -36.139       42.783      102.769       98.502       54.180    10561.466     9702.578     2935.505        1.772        1.160      102.034       70.038        0.471      342.003       17.107      858.744
06/10/2013  16:43:00      100.475     -119.585       -4.301       62.184       92.158       47.518     3866.873     8493.014     2257.967        1.951        0.731      156.192       47.796        0.094      342.045       17.178      858.761
06/10/2013  16:44:00       46.165      -58.330       20.752       51.608       75.758       30.906     2663.361     5739.281      955.188        0.766        0.468       74.388       33.456        0.202      342.065       17.213      858.783
06/10/2013  16:45:00       38.999        4.519       39.531       33.941       71.952       32.755     1151.973     5177.071     1072.886        0.525        0.370       39.260       26.274        0.448      342.063       17.211      858.792
06/10/2013  16:46:00       13.594       17.827       40.467       52.099       52.673       30.259     2714.342     2774.481      915.632        0.427        0.320       22.419       15.743        0.493      341.954       17.024      858.802
06/10/2013  16:47:00       10.214        4.031       35.585       52.806       50.086       36.825     2788.430     2508.612     1356.086        0.402        0.333       10.981       40.966       13.918      341.916       16.959      858.815
06/10/2013  16:48:00       41.977       39.802       60.272       72.267       65.776       34.782     5222.449     4326.461     1209.822        0.887        0.538       57.846       35.369        0.374      341.840       16.831      858.823
06/10/2013  16:49:00       56.589       65.321       67.814       63.095       45.774       31.913     3980.937     2095.277     1018.458        0.958        0.355       86.424       25.215        0.085      341.801       16.765      858.841
06/10/2013  16:50:00       83.514       70.298       46.776       83.736       55.941       55.116     7011.799     3129.374     3037.775        1.364        0.659      109.162       54.069        0.245      341.749       16.676      858.856
06/10/2013  16:51:00       76.627       59.896       55.217       79.078       66.299       46.178     6253.378     4395.517     2132.401        1.264        0.639       97.259       40.842        0.176      341.734       16.651      858.863
06/10/2013  16:52:00      122.864       91.436       58.681       53.686       36.952       37.331     2882.178     1365.475     1393.605        1.627        0.282      153.154       28.122        0.034      341.673       16.548      858.859
06/10/2013  16:53:00      128.731       60.848       18.398       59.354       52.097       47.416     3522.886     2714.049     2248.277        1.455        0.424      142.387       31.874        0.050      341.643       16.496      858.860
06/10/2013  16:54:00      103.700       94.184       53.383       57.556       39.889       38.268     3312.711     1591.145     1464.460        1.442        0.318      140.087       28.462        0.041      341.618       16.455      858.865
06/10/2013  16:55:00      105.233       96.622       62.722       67.987       42.045       54.339     4622.202     1767.812     2952.699        1.684        0.467      142.862       33.605        0.055      341.594       16.415      858.892
06/10/2013  16:56:00      146.413       80.534       36.859       38.617       35.285       35.708     1491.248     1245.037     1275.065        1.665        0.201      167.100       17.947        0.012      341.570       16.373      858.924
06/10/2013  16:57:00       96.143       77.122       36.633       40.599       28.609       22.403     1648.259      818.489      501.912        0.975        0.148      123.253       15.036        0.015      341.596       16.418      858.956
06/10/2013  16:58:00       49.094       38.056       14.163       44.488       29.432       31.020     1979.160      866.265      962.227        0.393        0.190       62.117       28.503        0.211      341.587       16.403      859.006
06/10/2013  16:59:00       40.638       41.538       55.733       23.779       22.240       18.927      565.452      494.610      358.249        0.395        0.071       58.111       18.095        0.097      341.556       16.349      859.034
06/10/2013  17:00:00       12.218       45.694       10.953       22.443       18.621       19.444      503.668      346.735      378.083        0.179        0.061       47.300        6.845        0.021      341.575       16.384      859.048
06/10/2013  17:01:00        9.822       65.230       -9.578       14.872       28.379        8.666      221.169      805.373       75.101        0.277        0.055       65.966        8.812        0.018      341.552       16.343      859.050
06/10/2013  17:02:00       21.344       72.499      -14.038       18.210       48.698       15.259      331.588     2371.534      232.851        0.442        0.147       75.576       22.922        0.092      341.513       16.276      859.040
06/10/2013  17:03:00       42.470       37.716        3.581       26.067       22.960       18.839      679.467      527.162      354.892        0.240        0.078       56.800       13.786        0.059      341.510       16.271      859.016
06/10/2013  17:04:00       27.623       26.586        1.919       28.658       19.353       16.698      821.293      374.535      278.830        0.147        0.074       38.338        8.663        0.051      341.544       16.332      858.976
06/10/2013  17:05:00       39.930       38.573        8.257       22.520       26.331       21.271      507.148      693.326      452.476        0.240        0.083       55.518       12.705        0.052      341.503       16.261      858.933
06/10/2013  17:06:00       53.461       39.299       16.914       22.409       23.325       23.208      502.177      544.050      538.605        0.314        0.079       66.351       18.518        0.078      341.486       16.233      858.897
06/10/2013  17:07:00       39.496       57.563       47.600       25.852       22.938       22.263      668.336      526.162      495.653        0.441        0.085       69.810        8.637        0.015      341.495       16.246      858.852
06/10/2013  17:08:00       48.916       53.955       68.489       38.713       40.466       25.605     1498.680     1637.522      655.617        0.689        0.190       72.828       24.786        0.116      341.517       16.284      858.803
06/10/2013  17:09:00       86.047       49.368       46.074       44.818       38.732       33.500     2008.638     1500.133     1122.245        0.830        0.232       99.203       31.139        0.099      341.450       16.170      858.759
06/10/2013  17:10:00       39.623       45.663       65.789       42.139       29.477       25.501     1775.661      868.902      650.317        0.564        0.165       60.457       13.859        0.053      341.550       16.339      858.713
06/10/2013  17:11:00        8.664       29.403       55.322       43.382       35.600       21.031     1881.959     1267.386      442.307        0.380        0.180       30.653       22.132        0.521      341.803       16.769      858.666
06/10/2013  17:12:00      -11.787      -56.779       37.316       28.095       39.664       34.763      789.336     1573.252     1208.471        0.416        0.179       57.990       14.525        0.063      341.754       16.685      858.639
06/10/2013  17:13:00       59.222     -124.611      -12.516       30.814       36.634       22.279      949.477     1342.027      496.350        1.099        0.139      137.968       14.546        0.011      341.602       16.427      858.635
06/10/2013  17:14:00       50.026     -156.517       -5.421       28.939       23.220       19.929      837.453      539.168      397.145        1.440        0.089      164.317       15.732        0.009      341.388       16.066      858.636
06/10/2013  17:15:00       43.455     -147.787       -1.967       26.625       18.547       21.654      708.892      343.985      468.901        1.263        0.076      154.043        6.165        0.002      341.493       16.244      858.633
06/10/2013  17:16:00       41.006     -114.451       -7.144       24.674       21.348       18.483      608.806      455.716      341.622        0.812        0.070      121.575        9.650        0.006      341.497       16.251      858.626
06/10/2013  17:17:00       51.827      -70.381       -8.936       32.685       37.397       21.805     1068.313     1398.512      475.471        0.533        0.147       87.404       23.911        0.075      341.427       16.131      858.624
06/10/2013  17:18:00       45.542      -32.331       27.213       52.275       61.418       40.393     2732.723     3772.161     1631.582        0.600        0.407       55.851       43.677        0.612      341.503       16.260      858.608
06/10/2013  17:19:00       31.026      -27.608       35.502       40.769       57.005       42.057     1662.133     3249.603     1768.790        0.483        0.334       41.531       32.812        0.624      341.511       16.274      858.589
06/10/2013  17:20:00       43.710      -66.372        7.081       42.150       60.944       35.328     1776.584     3714.193     1248.093        0.655        0.337       79.472       39.725        0.250      341.540       16.324      858.568
06/10/2013  17:21:00       21.501     -100.549      -11.319       33.655       20.655       20.604     1132.654      426.642      424.521        0.634        0.099      102.823       14.639        0.020      341.567       16.370      858.566
06/10/2013  17:22:00       -5.381      -41.317       13.849       23.185       30.691       28.556      537.528      941.960      815.469        0.211        0.115       41.666       25.063        0.362      341.715       16.621      858.559
06/10/2013  17:23:00        9.476      -32.000       20.249       18.232       41.635       30.694      332.418     1733.506      942.128        0.227        0.150       33.374       26.789        0.644      341.734       16.652      858.538
06/10/2013  17:24:00       21.099      -64.962       11.985       29.204       42.395       29.478      852.875     1797.342      868.979        0.416        0.176       68.303       17.493        0.066      341.762       16.700      858.522
06/10/2013  17:25:00       51.878      -59.411       -2.629       21.698       25.814       21.680      470.794      666.345      470.002        0.392        0.080       78.873       17.164        0.047      341.513       16.277      858.491
06/10/2013  17:26:00       43.747      -71.822        0.521       42.405       38.683       30.352     1798.216     1496.378      921.228        0.564        0.211       84.096       23.321        0.077      341.584       16.396      858.446
06/10/2013  17:27:00       53.517      -75.053       -4.745       45.015       41.608       31.877     2026.374     1731.263     1016.149        0.665        0.239       92.179       25.836        0.079      341.570       16.374      858.424
06/10/2013  17:28:00       36.761      -50.812       11.264       45.471       56.301       38.855     2067.588     3169.767     1509.716        0.540        0.337       62.715       37.498        0.358      341.609       16.441      858.402
06/10/2013  17:29:00       46.300      -96.203      -11.888       46.757       34.247       26.944     2186.221     1172.878      726.002        0.781        0.204      106.765       15.826        0.022      341.530       16.306      858.383
06/10/2013  17:30:00       80.338     -108.933      -13.918       26.341       29.140       20.380      693.855      849.131      415.349        1.024        0.098      135.354       15.575        0.013      341.536       16.316      858.381
06/10/2013  17:31:00       16.909        1.910       24.322       35.005       35.881       26.944     1225.384     1287.421      725.985        0.206        0.162       17.017       28.012        2.710      341.671       16.546      858.366
06/10/2013  17:32:00        0.958        9.730       15.312       32.749       20.237       17.892     1072.475      409.538      320.137        0.107        0.090        9.777       12.043        1.517      341.705       16.602      858.336
06/10/2013  17:33:00       -3.756       39.677       65.994       22.751       43.387       26.961      517.625     1882.392      726.881        0.453        0.156       39.855       24.105        0.366      341.704       16.601      858.296
06/10/2013  17:34:00      -15.531       34.824       76.273       15.552       40.302       22.977      241.862     1624.227      527.939        0.483        0.120       38.130       24.133        0.401      341.739       16.662      858.259
06/10/2013  17:35:00       42.323       13.875       48.636       45.343       43.870       32.262     2056.010     1924.564     1040.811        0.468        0.251       44.539       22.092        0.246      341.721       16.629      858.226
06/10/2013  17:36:00       14.201        2.057       35.560       37.465       46.501       37.280     1403.653     2162.305     1389.781        0.321        0.248       14.349       30.308        4.461      341.692       16.581      858.196
06/10/2013  17:37:00        9.254      -35.376       26.334       26.486       51.067       28.219      701.506     2607.868      796.319        0.307        0.205       36.566       16.897        0.214      341.756       16.690      858.167
06/10/2013  17:38:00        9.218      -39.255       12.179       30.017       40.744       21.240      901.046     1660.088      451.144        0.239        0.151       40.322       16.564        0.169      341.772       16.716      858.146
06/10/2013  17:39:00       21.309      -96.904        8.436       20.744       26.175       22.582      430.320      685.105      509.932        0.577        0.081       99.219       15.404        0.024      341.751       16.681      858.130
06/10/2013  17:40:00       28.501      -80.271       -1.397       33.626       20.632       23.172     1130.683      425.676      536.964        0.468        0.105       85.181       10.427        0.015      341.793       16.752      858.134
06/10/2013  17:41:00      -15.086      -29.445        5.331       51.786       21.727       22.497     2681.779      472.076      506.126        0.239        0.183       33.085       19.530        0.348      341.744       16.669      858.143
06/10/2013  17:42:00      -26.023      -10.933        7.638       47.367       33.299       17.126     2243.652     1108.834      293.290        0.225        0.182       28.226       19.778        0.491      341.805       16.773      858.136
06/10/2013  17:43:00      -15.237        2.748       19.841       25.004       18.417       18.527      625.217      339.184      343.265        0.097        0.065       15.483       10.117        0.427      341.810       16.779      858.125
06/10/2013  17:44:00      -49.765      -20.725        7.529       34.254       19.159       15.721     1173.310      367.049      247.140        0.237        0.089       53.908       15.531        0.083      341.806       16.773      858.103
06/10/2013  17:45:00      -25.350      -17.710       10.728       23.386       14.734       10.207      546.922      217.095      104.183        0.097        0.043       30.924       11.665        0.142      341.762       16.699      858.085
06/10/2013  17:46:00      -41.221      -14.262       12.656       33.923       23.370       17.616     1150.768      546.155      310.339        0.203        0.100       43.618       13.398        0.094      341.776       16.723      858.064
06/10/2013  17:47:00      -28.996      -16.546        4.281       27.843       26.391       16.604      775.241      696.472      275.677        0.144        0.087       33.385       19.760        0.350      341.684       16.567      858.048
06/10/2013  17:48:00      -60.815      -14.158       -1.148       15.637       13.496       14.055      244.530      182.141      197.548        0.226        0.031       62.441        3.344        0.003      341.625       16.467      858.033
06/10/2013  17:49:00      -16.492        3.175       12.898       29.369       15.540       10.431      862.536      241.486      108.812        0.083        0.061       16.794        5.582        0.110      341.785       16.739      858.026
06/10/2013  17:50:00       53.073       42.519        8.243       14.561       16.793       20.157      212.009      282.005      406.312        0.280        0.045       68.004        8.472        0.016      341.751       16.680      858.019
06/10/2013  17:51:00       46.607       39.034        1.761       36.855       20.571       18.315     1358.319      423.165      335.453        0.291        0.106       60.794       13.479        0.049      341.758       16.693      858.009
06/10/2013  17:52:00       28.987       61.431       -3.830       25.996       44.160       28.976      675.766     1950.085      839.615        0.405        0.173       67.927       24.855        0.134      341.696       16.587      858.002
06/10/2013  17:53:00       42.629       42.530        8.438       31.849       33.014       29.460     1014.367     1089.954      867.915        0.333        0.149       60.216       20.995        0.122      341.701       16.596      857.998
06/10/2013  17:54:00       56.140       36.546        3.168       39.049       36.846       26.102     1524.859     1357.603      681.291        0.403        0.178       66.988       11.567        0.030      341.643       16.497      858.009
06/10/2013  17:55:00       41.892       44.811        0.811       45.060       28.337       20.725     2030.437      802.998      429.539        0.351        0.163       61.343       18.277        0.089      341.636       16.485      858.017
06/10/2013  17:56:00       45.193      110.875      -26.222       36.775       53.005       22.065     1352.378     2809.542      486.868        0.984        0.232      119.731       20.204        0.028      341.572       16.377      858.022
06/10/2013  17:57:00       38.891       99.998      -23.742       31.939       52.751       23.770     1020.093     2782.637      565.012        0.822        0.218      107.295       27.109        0.064      341.565       16.366      858.025
06/10/2013  17:58:00        4.569       85.447      -14.657       33.418       65.102       30.461     1116.756     4238.236      927.899        0.691        0.314       85.569       33.165        0.150      341.641       16.495      858.021
06/10/2013  17:59:00       32.711       99.665      -14.876       22.868       63.239       24.601      522.935     3999.234      605.193        0.817        0.256      104.896       31.330        0.089      341.590       16.406      858.013
06/10/2013  18:00:00       28.048       57.084      -15.494       32.061       43.603       18.006     1027.903     1901.255      324.232        0.377        0.163       63.602       17.305        0.074      341.612       16.446      857.979
06/10/2013  18:01:00        3.710       61.535       -6.306       28.086       30.542       24.870      788.812      932.829      618.494        0.309        0.117       61.647       23.207        0.142      341.680       16.562      857.967
06/10/2013  18:02:00        1.134       68.525      -18.584       26.820       27.102       10.544      719.317      734.519      111.185        0.330        0.078       68.535        9.271        0.018      341.773       16.718      857.960
06/10/2013  18:03:00      -37.111      110.316      -17.237       36.717       26.376       16.963     1348.124      695.717      287.759        0.809        0.117      116.390       12.720        0.012      341.772       16.716      857.953
06/10/2013  18:04:00       32.494      110.125      -11.085       33.261       53.799       27.843     1106.289     2894.364      775.231        0.904        0.239      114.819       27.316        0.057      341.731       16.648      857.963
06/10/2013  18:05:00        0.870      117.834      -19.429       51.340       34.251       21.744     2635.783     1173.109      472.801        0.927        0.214      117.837       17.127        0.021      341.709       16.609      857.966
06/10/2013  18:06:00      -34.150      153.667      -30.752       37.798       36.804       19.569     1428.698     1354.565      382.933        1.445        0.158      157.416       19.255        0.015      341.697       16.590      857.979
06/10/2013  18:07:00       43.966      133.590      -18.151       50.900       67.428       34.522     2590.839     4546.510     1191.762        1.422        0.416      140.639       41.214        0.086      341.721       16.630      857.986
06/10/2013  18:08:00       34.500      148.103      -20.488       40.480       48.407       31.296     1638.651     2343.241      979.450        1.425        0.248      152.069       34.139        0.050      341.678       16.559      858.023
06/10/2013  18:09:00      -44.294      124.623      -24.804       47.956       35.418       22.848     2299.762     1254.411      522.034        1.109        0.204      132.260       18.867        0.020      341.835       16.824      858.026
06/10/2013  18:10:00     -129.095       79.980      -31.300       53.377       52.616       31.609     2849.143     2768.395      999.110        1.533        0.331      151.863       32.574        0.046      341.864       16.873      858.066
06/10/2013  18:11:00     -159.715       22.128      -11.093       53.907       65.602       36.225     2905.982     4303.632     1312.224        1.732        0.426      161.240       19.653        0.015      341.969       17.050      858.096
06/10/2013  18:12:00     -176.464      -15.797      -28.041       99.650       86.467       40.253     9930.087     7476.483     1620.281        2.560        0.951      177.169       35.545        0.040      341.922       16.969      858.122
06/10/2013  18:13:00     -167.096     -127.070       -6.530       96.057       78.209       46.250     9226.977     6116.676     2139.063        3.079        0.874      209.923       43.847        0.044      341.805       16.769      858.136
06/10/2013  18:14:00     -192.003      -69.140       -8.388       56.042       78.695       31.551     3140.715     6192.960      995.450        2.602        0.516      204.073       31.716        0.024      341.800       16.762      858.139
06/10/2013  18:15:00     -161.156        1.281       -6.571       72.118       60.157       32.423     5200.957     3618.893     1051.266        1.794        0.494      161.161       31.544        0.038      341.891       16.918      858.117
06/10/2013  18:16:00     -143.356      -40.812       -4.928       56.865       58.083       32.774     3233.650     3373.594     1074.125        1.496        0.384      149.052       31.808        0.046      341.760       16.695      858.085
06/10/2013  18:17:00     -121.555      -84.400        8.646       79.429       44.953       35.095     6308.914     2020.745     1231.685        1.577        0.478      147.983       38.775        0.069      341.827       16.808      858.044
06/10/2013  18:18:00     -132.026      -39.947        3.462       79.631       57.481       38.315     6341.154     3304.041     1468.038        1.507        0.556      137.937       41.048        0.089      341.801       16.764      858.016
06/10/2013  18:19:00     -103.676      -97.694       -3.149       43.385       43.608       30.272     1882.224     1901.675      916.395        1.250        0.235      142.453       25.941        0.033      341.680       16.560      858.003
06/10/2013  18:20:00      -92.728      -56.000        2.912       65.202       51.536       31.643     4251.328     2656.011     1001.258        0.982        0.395      108.326       34.132        0.099      341.724       16.637      858.003
06/10/2013  18:21:00     -175.488      -87.408      -10.504       56.716       37.504       24.322     3216.738     1406.539      591.584        2.188        0.261      196.052       25.262        0.017      341.719       16.626      858.017
06/10/2013  18:22:00     -173.337      -73.796      -12.299       70.741       39.843       30.978     5004.295     1587.437      959.654        2.160        0.378      188.392       28.342        0.023      341.762       16.697      858.056
06/10/2013  18:23:00      -28.627      -48.050       18.647       71.902       41.529       34.750     5169.917     1724.698     1207.575        0.579        0.405       55.931       35.437        0.401      341.856       16.859      858.083
06/10/2013  18:24:00      -99.919      -21.762       -4.022       59.221       36.019       29.053     3507.138     1297.354      844.073        0.806        0.282      102.262       34.257        0.112      341.752       16.683      858.103
06/10/2013  18:25:00     -105.709      -53.215        4.247       74.360       43.383       28.033     5529.367     1882.089      785.846        1.111        0.410      118.348       37.394        0.100      341.768       16.710      858.112
06/10/2013  18:26:00     -110.208      -55.518        0.805       58.555       58.817       24.892     3428.736     3459.400      619.630        1.137        0.375      123.402       28.416        0.053      341.705       16.603      858.108
06/10/2013  18:27:00      -89.126      -38.298       -5.130       67.126       37.485       33.408     4505.963     1405.094     1116.111        0.823        0.351       97.006       37.821        0.152      341.770       16.714      858.100
06/10/2013  18:28:00     -108.500      -67.840      -10.278       38.442       38.053       20.797     1477.811     1448.018      432.516        0.992        0.168      127.963       20.521        0.026      341.724       16.634      858.114
06/10/2013  18:29:00     -146.424      -64.701       -2.585       57.115       34.246       22.168     3262.143     1172.815      491.435        1.528        0.246      160.082       21.441        0.018      341.776       16.723      858.159
06/10/2013  18:30:00     -219.837     -109.367      -20.314       69.294       47.354       29.059     4801.697     2242.369      844.402        3.429        0.394      245.539       25.955        0.011      341.777       16.720      858.240
06/10/2013  18:31:00     -206.407      -90.866       -8.643       61.986       59.483       39.567     3842.246     3538.202     1565.522        2.994        0.447      225.523       36.647        0.026      341.757       16.686      858.292
06/10/2013  18:32:00     -122.231      -39.187      -10.772       79.904       39.803       26.267     6384.581     1584.275      689.945        1.262        0.433      128.359       36.391        0.080      341.791       16.748      858.283
06/10/2013  18:33:00        8.355      -25.248       17.274       19.014       24.788       15.893      361.538      614.444      252.576        0.112        0.061       26.595       15.942        0.359      341.849       16.846      858.253
06/10/2013  18:34:00        4.768       27.862       28.531       12.237       15.236       15.381      149.736      232.148      236.590        0.112        0.031       28.268       10.982        0.151      341.972       17.055      858.199
06/10/2013  18:35:00       14.610       53.430       -5.187       20.704       17.059       13.682      428.640      291.002      187.204        0.200        0.045       55.391       10.709        0.037      341.957       17.031      858.179
06/10/2013  18:36:00       30.936       23.579       -3.076       22.684       20.232       19.104      514.552      409.348      364.978        0.141        0.064       38.898       12.671        0.106      341.902       16.938      858.156
06/10/2013  18:37:00        9.300       28.053      -13.234       15.799       15.166        9.771      249.603      230.015       95.471        0.081        0.029       29.555        7.428        0.063      341.898       16.930      858.136
06/10/2013  18:38:00       -6.577       31.225      -12.869        8.016       12.561        6.832       64.251      157.782       46.681        0.073        0.013       31.910        6.232        0.038      341.884       16.908      858.149
06/10/2013  18:39:00        2.839       51.676       -8.734       12.796       11.517        9.937      163.726      132.646       98.735        0.157        0.020       51.754        8.409        0.026      341.942       17.005      858.152
06/10/2013  18:40:00       21.014       45.442       -7.715       13.304       25.158       12.819      177.007      632.935      164.331        0.177        0.049       50.066       12.140        0.059      341.949       17.014      858.160
06/10/2013  18:41:00       13.821       75.863      -12.558       16.211       23.939       10.647      262.809      573.087      113.361        0.353        0.047       77.112       11.225        0.021      342.046       17.181      858.178
06/10/2013  18:42:00      -15.643       83.523      -19.877       11.816       23.940        6.670      139.612      573.105       44.484        0.419        0.038       84.976        8.966        0.011      342.110       17.289      858.191
06/10/2013  18:43:00      -62.000       27.445      -13.948       48.467       48.212       12.691     2349.026     2324.442      161.066        0.481        0.242       67.803        9.549        0.020      342.221       17.478      858.211
06/10/2013  18:44:00     -136.477      -54.003      -12.958       23.580       19.344       16.528      556.032      374.181      273.160        1.146        0.060      146.773        8.294        0.003      342.078       17.235      858.213
06/10/2013  18:45:00      -54.040      -33.858       -1.285       79.833       29.477       22.498     6373.255      868.912      506.160        0.591        0.387       63.771       15.130        0.056      342.178       17.405      858.214
06/10/2013  18:46:00      -88.663      -69.739       -2.675       45.588       43.738       27.674     2078.281     1912.982      765.828        0.874        0.238      112.803       23.526        0.043      342.176       17.403      858.216
06/10/2013  18:47:00      -76.438      -71.972        3.299       70.762       45.022       29.252     5007.298     2027.019      855.689        0.946        0.395      104.990       38.747        0.136      342.202       17.447      858.216
06/10/2013  18:48:00      -72.067      -73.778        0.860       45.117       41.413       29.770     2035.584     1715.038      886.240        0.764        0.232      103.135       22.380        0.047      342.157       17.370      858.228
06/10/2013  18:49:00      -70.497      -68.116      -10.053       38.776       31.325       18.725     1503.597      981.255      350.614        0.627        0.142       98.029        9.670        0.010      342.121       17.307      858.240
06/10/2013  18:50:00     -144.971      -82.580       -3.847       51.464       39.344       20.365     2648.588     1547.946      414.728        1.623        0.231      166.842       17.798        0.011      342.156       17.367      858.245
06/10/2013  18:51:00     -185.211      -52.870       -2.788       56.784       49.314       29.088     3224.440     2431.880      846.112        2.180        0.325      192.609       29.910        0.024      342.065       17.210      858.276
06/10/2013  18:52:00      -99.361       -4.483        5.100       43.499       41.733       21.425     1892.141     1741.644      459.036        0.700        0.205       99.462       19.237        0.037      342.155       17.366      858.261
06/10/2013  18:53:00      -90.330      -29.689       -7.349       44.914       21.695       18.094     2017.248      470.683      327.378        0.595        0.141       95.084       18.915        0.040      342.129       17.322      858.255
06/10/2013  18:54:00     -149.655      -56.307        1.147       52.038       37.849       24.946     2708.001     1432.580      622.296        1.516        0.238      159.897       24.277        0.023      342.086       17.248      858.258
06/10/2013  18:55:00     -167.015      -40.603      -10.368       48.897       45.184       27.182     2390.889     2041.593      738.857        1.741        0.259      171.879       24.836        0.021      342.006       17.113      858.258
06/10/2013  18:56:00     -143.807      -49.484       -4.737       42.217       42.633       26.814     1782.266     1817.589      719.017        1.373        0.216      152.083       23.835        0.025      341.980       17.070      858.293
06/10/2013  18:57:00     -105.732      -50.746       -5.779       35.217       26.881       14.850     1240.262      722.575      220.518        0.799        0.109      117.279        9.123        0.006      342.038       17.168      858.284
06/10/2013  18:58:00      -66.582      -46.022       -8.862       34.541       19.066       14.321     1193.100      363.496      205.099        0.420        0.088       80.940       11.236        0.019      342.079       17.237      858.257
06/10/2013  18:59:00      -38.205      -44.206        2.473       23.843       26.358       16.984      568.499      694.761      288.464        0.249        0.078       58.428       13.712        0.055      342.078       17.236      858.219
06/10/2013  19:00:00      -29.980      -42.704        2.858       44.202       27.043       21.687     1953.794      731.313      470.330        0.294        0.158       52.177       13.981        0.072      342.121       17.307      858.194
06/10/2013  19:01:00      -43.125      -32.567        1.785       32.590       26.429       21.169     1062.101      698.513      448.130        0.257        0.110       54.041       23.055        0.182      342.141       17.341      858.169
06/10/2013  19:02:00      -34.292      -16.627        1.085       22.662       33.038       12.796      513.556     1091.500      163.749        0.161        0.088       38.110       14.283        0.140      342.210       17.459      858.132
06/10/2013  19:03:00      -30.736      -11.463       -7.205       20.888       25.867       14.496      436.311      669.114      210.124        0.122        0.066       32.804       13.869        0.179      342.325       17.655      858.095
06/10/2013  19:04:00        4.051      -36.846       -2.986       12.893       21.492       14.189      166.241      461.892      201.330        0.111        0.041       37.068        5.495        0.022      342.473       17.908      858.057
06/10/2013  19:05:00        3.077      -16.153       11.522       12.628        9.994       10.825      159.462       99.878      117.190        0.039        0.019       16.444        6.859        0.174      342.565       18.063      858.031
06/10/2013  19:06:00        9.218      -21.699       20.695       25.170       16.675       17.051      633.529      278.064      290.735        0.109        0.060       23.576       16.930        0.516      342.507       17.964      858.015
06/10/2013  19:07:00      -18.712      -35.046        5.012       25.154       13.274       16.120      632.720      176.187      259.846        0.134        0.053       39.729       16.983        0.183      342.498       17.950      857.994
06/10/2013  19:08:00      -19.965      -32.157       -8.334       19.074       13.798       12.606      363.814      190.380      158.909        0.111        0.036       37.850        7.045        0.035      342.466       17.896      857.970
06/10/2013  19:09:00      -31.719      -30.278       -2.888       11.837       10.950        9.423      140.116      119.906       88.797        0.114        0.017       43.851        5.842        0.018      342.464       17.891      857.942
06/10/2013  19:10:00      -19.361      -31.321       -2.648       16.007       11.758       10.052      256.239      138.245      101.036        0.093        0.025       36.822        5.541        0.023      342.505       17.963      857.926
06/10/2013  19:11:00      -22.803      -42.930       -4.066        6.007       12.632        4.920       36.088      159.576       24.206        0.130        0.011       48.610        5.402        0.012      342.450       17.868      857.911
06/10/2013  19:12:00       -9.980        0.227        5.379        9.376        8.748        8.047       87.901       76.524       64.749        0.018        0.011        9.982        6.525        0.427      342.557       18.049      857.912
06/10/2013  19:13:00      -34.019       -8.330       -0.726       18.595       16.785        7.237      345.781      281.729       52.372        0.095        0.034       35.024        6.415        0.034      342.484       17.926      857.918
06/10/2013  19:14:00      -52.707      -22.948       -3.893       13.334       12.004       11.100      177.806      144.085      123.220        0.188        0.022       57.487        5.122        0.008      342.477       17.914      857.928
06/10/2013  19:15:00      -34.377      -12.264        3.443       23.858       19.774       14.603      569.193      391.000      213.234        0.126        0.059       36.499       11.869        0.106      342.547       18.033      857.952
06/10/2013  19:16:00      -30.206      -18.711        1.837       29.874       23.138       18.650      892.454      535.349      347.810        0.152        0.089       35.532       15.665        0.194      342.474       17.908      857.974
06/10/2013  19:17:00      -13.032      -35.819       -0.248       18.972       39.176       14.037      359.923     1534.772      197.037        0.177        0.105       38.116        6.961        0.033      342.499       17.953      857.994
06/10/2013  19:18:00      -71.213      -75.026       -1.042       41.815       28.775       19.504     1748.465      827.991      380.401        0.683        0.148      103.442       15.393        0.022      342.438       17.847      858.026
06/10/2013  19:19:00      -49.385      -91.701       -5.300       20.005       32.033       17.719      400.183     1026.099      313.953        0.631        0.087      104.153        8.961        0.007      342.401       17.784      858.051
06/10/2013  19:20:00      -85.735      -51.087       -8.205       42.041       27.468       19.168     1767.450      754.493      367.416        0.646        0.144       99.802       14.430        0.021      342.385       17.757      858.069
06/10/2013  19:21:00      -76.686      -72.331       -5.448       39.172       43.429       19.100     1534.458     1886.072      364.799        0.746        0.189      105.416       12.644        0.014      342.469       17.901      858.079
06/10/2013  19:22:00      -66.390      -68.073       -6.194       36.332       34.659       18.865     1320.000     1201.255      355.895        0.598        0.144       95.087       15.359        0.026      342.456       17.877      858.087
06/10/2013  19:23:00      -87.455      -91.032        1.334       63.577       51.258       35.461     4041.985     2627.425     1257.459        1.193        0.396      126.234       34.558        0.075      342.378       17.746      858.079
06/10/2013  19:24:00      -88.628      -67.517        2.633       59.264       52.421       28.463     3512.197     2747.910      810.160        0.974        0.354      111.416       25.481        0.052      342.392       17.769      858.080
06/10/2013  19:25:00      -57.448      -93.860       -4.591       51.148       63.409       24.343     2616.096     4020.744      592.580        0.968        0.361      110.045       23.021        0.044      342.304       17.621      858.081
06/10/2013  19:26:00      -50.509      -71.632       -9.239       46.483       30.914       29.818     2160.631      955.649      889.090        0.589        0.200       87.649       25.688        0.086      342.380       17.749      858.092
06/10/2013  19:27:00      -36.508      -39.040       18.360       48.571       45.446       23.573     2359.152     2065.372      555.678        0.409        0.249       53.451       30.856        0.333      342.356       17.708      858.114
06/10/2013  19:28:00      -49.839      -29.164       10.600       79.124       32.625       29.274     6260.633     1064.359      856.953        0.581        0.409       57.745       31.234        0.293      342.366       17.725      858.133
06/10/2013  19:29:00      -88.283     -110.189       -0.061       63.069       44.603       32.763     3977.703     1989.420     1073.393        1.349        0.352      141.193       20.717        0.022      342.247       17.521      858.166
06/10/2013  19:30:00      -93.173      -78.468        6.178       68.363       43.396       27.162     4673.438     1883.228      737.758        1.108        0.365      121.813       24.026        0.039      342.234       17.501      858.198
06/10/2013  19:31:00      -88.843      -81.008       -2.476       37.604       30.400       24.261     1414.050      924.134      588.579        0.869        0.146      120.231       14.183        0.014      342.199       17.443      858.221
06/10/2013  19:32:00      -91.173      -72.827        3.260       38.596       26.806       26.806     1489.649      718.555      718.550        0.828        0.146      116.689       22.331        0.037      342.236       17.505      858.244
06/10/2013  19:33:00      -88.824      -90.425       -4.825       46.349       35.566       24.722     2148.273     1264.945      611.157        1.006        0.201      126.753       22.345        0.031      342.158       17.372      858.283
06/10/2013  19:34:00      -48.147      -66.358      -10.785       29.237       42.225       15.524      854.821     1782.966      241.008        0.486        0.144       81.985       12.970        0.025      342.124       17.314      858.307
06/10/2013  19:35:00      -31.714      -36.265      -13.663       22.497       28.367       13.221      506.109      804.703      174.799        0.200        0.074       48.176        9.437        0.038      342.258       17.542      858.336
06/10/2013  19:36:00        6.822      -70.433       -3.849       25.112       28.937       18.415      630.624      837.358      339.109        0.341        0.090       70.762       15.026        0.045      342.222       17.481      858.341
06/10/2013  19:37:00      -41.512      -85.359       -0.082       21.139       50.954       17.115      446.870     2596.314      292.912        0.617        0.167       94.918       17.921        0.036      342.153       17.363      858.343
06/10/2013  19:38:00      -85.850      -31.800        0.877       22.183       34.823       21.911      492.091     1212.625      480.092        0.528        0.109       91.550       14.089        0.024      342.135       17.331      858.345
06/10/2013  19:39:00      -22.728       10.788       11.776       72.491       25.075       15.269     5254.873      628.759      233.149        0.344        0.306       25.158       20.836        0.686      342.208       17.456      858.351
06/10/2013  19:40:00       82.348       60.694       28.844       35.827       24.742       35.732     1283.589      612.170     1276.769        0.723        0.159      102.299       21.522        0.044      342.212       17.462      858.346
06/10/2013  19:41:00       51.559       52.077       41.888       64.083       35.777       32.346     4106.589     1280.020     1046.272        0.678        0.322       73.283       30.027        0.168      342.199       17.441      858.336
06/10/2013  19:42:00       81.133       59.633       35.930       47.382       45.490       34.247     2245.040     2069.310     1172.857        0.846        0.274      100.691       19.356        0.037      341.995       17.095      858.347
06/10/2013  19:43:00       99.554       73.256       23.465       59.347       27.339       32.806     3522.109      747.435     1076.247        1.059        0.267      123.602       34.064        0.076      341.913       16.956      858.338
06/10/2013  19:44:00      132.108       71.038       29.289       43.086       32.889       36.139     1856.439     1081.709     1306.009        1.380        0.212      149.996       22.459        0.022      341.894       16.923      858.322
06/10/2013  19:45:00       38.605       68.583       66.628       42.694       45.717       37.997     1822.736     2090.082     1443.765        0.799        0.268       78.702       31.880        0.164      341.950       17.021      858.311
06/10/2013  19:46:00       47.166       79.270       71.799       38.942       35.769       33.269     1516.494     1279.423     1106.821        0.878        0.195       92.241       20.307        0.048      341.884       16.907      858.300
06/10/2013  19:47:00       78.513       50.015       10.361       31.403       27.336       23.391      986.175      747.283      547.123        0.553        0.114       93.090       20.320        0.048      341.860       16.866      858.293
06/10/2013  19:48:00       50.734       41.827       27.942       36.177       24.276       17.174     1308.764      589.302      294.944        0.365        0.110       65.753        9.144        0.019      341.885       16.908      858.288
06/10/2013  19:49:00       61.083       64.259       64.229       48.111       29.528       28.342     2314.684      871.883      803.258        0.799        0.199       88.659       19.166        0.047      341.906       16.944      858.276
06/10/2013  19:50:00      150.147       99.384       42.554       35.271       26.855       34.129     1244.045      721.181     1164.813        1.868        0.157      180.059       23.532        0.017      341.948       17.013      858.215
06/10/2013  19:51:00      129.514       62.620       18.679       41.495       39.961       34.149     1721.829     1596.899     1166.135        1.276        0.224      143.858       28.737        0.040      341.856       16.859      858.189
06/10/2013  19:52:00       86.930       36.964       10.605       47.354       32.105       28.543     2242.416     1030.723      814.676        0.656        0.204       94.463       25.187        0.071      341.810       16.782      858.185
06/10/2013  19:53:00       96.713       31.784       -1.724       29.685       25.045       21.606      881.183      627.266      466.800        0.617        0.099      101.802       11.727        0.013      341.786       16.740      858.188
06/10/2013  19:54:00       74.554       62.947       50.133       51.344       30.576       42.734     2636.162      934.912     1826.176        0.871        0.270       97.573       34.063        0.122      341.906       16.943      858.164
06/10/2013  19:55:00       52.099       72.865       84.761       44.925       32.634       27.019     2018.235     1064.959      730.029        0.951        0.191       89.575       13.741        0.024      341.853       16.853      858.135
06/10/2013  19:56:00       -9.199       33.283       70.463       30.127       39.234       29.286      907.655     1539.339      857.691        0.473        0.165       34.531       27.997        0.657      341.952       17.021      858.094
06/10/2013  19:57:00      -21.381        9.501       24.326       31.512       31.442       21.832      993.018      988.579      476.620        0.180        0.123       23.397       14.573        0.388      341.954       17.025      858.074
06/10/2013  19:58:00       28.613      -21.410        3.669       22.144       30.416       17.680      490.374      925.148      312.576        0.151        0.086       35.737        9.423        0.070      342.003       17.109      858.070
06/10/2013  19:59:00       89.193       73.692       37.410       35.655       21.498       26.896     1271.278      462.159      723.389        0.862        0.123      115.697       13.709        0.014      341.793       16.753      858.045
06/10/2013  20:00:00       52.449       34.925       36.032       30.006       18.545       19.598      900.350      343.918      384.066        0.345        0.081       63.013       13.263        0.044      341.772       16.717      858.023
06/10/2013  20:01:00       12.478       17.886       23.190       30.796       28.670       14.654      948.377      821.944      214.744        0.150        0.099       21.808       16.358        0.563      341.857       16.861      858.008
06/10/2013  20:02:00      -45.224      -12.910       -8.465       36.188       17.228       12.105     1309.562      296.789      146.528        0.202        0.088       47.030        9.616        0.042      341.935       16.993      858.018
06/10/2013  20:03:00     -107.349       11.555       -3.480       37.687       34.347       19.662     1420.291     1179.709      386.595        0.733        0.149      107.970       17.754        0.027      341.753       16.685      858.040
06/10/2013  20:04:00      -45.799      -19.777        4.559       31.109       33.908       20.700      967.765     1149.769      428.472        0.253        0.127       49.887       16.236        0.106      341.762       16.700      858.044
06/10/2013  20:05:00      -70.108      -27.419       -8.179       24.285       24.944       17.511      589.755      622.184      306.650        0.363        0.076       75.279       16.418        0.048      341.798       16.759      858.039
06/10/2013  20:06:00     -113.095      -24.601      -22.327       17.302       25.200        9.330      299.358      635.042       87.044        0.746        0.051      115.740        2.834        0.001      341.809       16.780      858.039
06/10/2013  20:07:00     -110.319      -67.916        0.732       43.600       29.773       18.704     1900.918      886.433      349.857        0.996        0.157      129.549       18.365        0.020      341.816       16.791      858.053
06/10/2013  20:08:00      -24.714        2.330        6.202       27.792       17.937       17.411      772.384      321.733      303.152        0.103        0.070       24.824       17.515        0.498      341.857       16.862      858.016
06/10/2013  20:09:00      -36.698        6.928       -3.366       11.898       10.289        6.358      141.558      105.859       40.418        0.085        0.014       37.347        6.306        0.029      341.821       16.798      858.004
06/10/2013  20:10:00      -44.655      -28.675       -2.623       40.553       24.128       11.944     1644.555      582.169      142.652        0.260        0.118       53.069       15.050        0.080      341.909       16.948      858.012
06/10/2013  20:11:00      -40.328      -16.980        6.004       48.211       28.522       19.269     2324.287      813.478      371.290        0.273        0.175       43.757       26.629        0.370      341.978       17.066      857.998
06/10/2013  20:12:00     -186.613       29.749       -9.912       96.117       90.811       40.826     9238.425     8246.630     1666.776        2.748        0.958      188.970       37.207        0.039      342.039       17.167      857.985
06/10/2013  20:13:00     -139.466      -70.436        2.306       66.770       53.965       38.045     4458.220     2912.261     1447.400        1.662        0.441      156.243       37.869        0.059      342.085       17.246      857.985
06/10/2013  20:14:00     -120.814      -92.379       -0.950       71.449       75.783       41.078     5104.939     5743.023     1687.385        1.783        0.627      152.085       33.339        0.048      342.223       17.480      857.980
06/10/2013  20:15:00     -134.594      -85.729       -5.779       80.826       80.178       40.559     6532.850     6428.534     1645.043        2.005        0.730      159.578       32.379        0.041      342.256       17.537      857.969
06/10/2013  20:16:00     -108.975      -66.053       -4.240       79.338       86.172       36.355     6294.495     7425.576     1321.715        1.565        0.752      127.430       35.208        0.076      342.268       17.558      857.956
06/10/2013  20:17:00     -110.285      -57.660        2.729      114.941       84.909       49.626    13211.515     7209.572     2462.754        1.918        1.144      124.449       53.991        0.188      342.246       17.519      857.951
06/10/2013  20:18:00     -225.578     -134.207       -1.214      134.738       93.988       63.229    18154.400     8833.764     3997.965        4.994        1.549      262.482       59.533        0.051      342.356       17.706      857.936
06/10/2013  20:19:00     -260.220     -220.782      -14.378      160.521      156.949       63.723    25766.887    24632.864     4060.597        8.555        2.723      341.261       57.261        0.028      342.348       17.691      857.916
06/10/2013  20:20:00     -157.666     -125.465        0.167      106.625      100.066       61.263    11368.871    10013.220     3753.178        3.286        1.257      201.495       49.720        0.061      342.245       17.516      857.919
06/10/2013  20:21:00     -190.031     -130.320       -8.785       94.843       96.641       51.857     8995.274     9339.555     2689.191        3.709        1.051      230.424       46.808        0.041      342.202       17.442      857.925
06/10/2013  20:22:00     -193.421     -128.222       -2.987      114.971      107.908       56.059    13218.254    11644.036     3142.582        4.093        1.400      232.062       58.366        0.063      342.159       17.370      857.910
06/10/2013  20:23:00     -137.075      -72.744       -0.052       87.029       79.662       43.340     7574.086     6346.041     1878.375        1.994        0.790      155.181       35.284        0.052      342.082       17.242      857.913
06/10/2013  20:24:00     -244.899     -100.590       -5.011      156.552      128.052       61.239    24508.668    16397.196     3750.184        5.738        2.233      264.753       61.504        0.054      342.098       17.266      857.897
06/10/2013  20:25:00     -221.554     -153.443      -14.373      142.083      127.648       64.658    20187.513    16294.107     4180.657        5.674        2.033      269.501       62.493        0.054      342.097       17.265      857.888
06/10/2013  20:26:00     -301.886     -121.762       -4.281      232.760      141.996       78.549    54177.037    20162.917     6169.923        9.323        4.025      325.517      106.079        0.106      342.111       17.289      857.885
06/10/2013  20:27:00     -373.455     -137.811      -12.580      187.278      128.083       80.754    35073.094    16405.363     6521.132       10.830        2.900      398.071       99.656        0.063      342.092       17.257      857.878
06/10/2013  20:28:00     -512.899     -261.232      -41.974      202.313      153.624       89.699    40930.418    23600.344     8045.992       20.281        3.629      575.593       89.734        0.024      342.166       17.383      857.869
06/10/2013  20:29:00     -380.926     -147.748      -19.165      190.402      185.813       97.830    36252.894    34526.518     9570.724       12.381        4.018      408.576       90.994        0.050      342.179       17.404      857.838
06/10/2013  20:30:00     -342.892     -168.891       18.699      229.607      174.505      111.347    52719.593    30452.169    12398.146       12.099        4.778      382.229      117.022        0.094      342.176       17.399      857.823
06/10/2013  20:31:00     -298.347     -144.472      -11.584      189.444      137.401       87.208    35888.927    18879.107     7605.269        8.618        3.119      331.486       86.012        0.067      342.177       17.400      857.826
06/10/2013  20:32:00     -294.106     -110.566       -5.213      221.899      167.589       84.345    49239.130    28086.106     7114.002        9.158        4.222      314.202       91.565        0.085      342.137       17.333      857.807
06/10/2013  20:33:00     -263.877      -72.521        8.837      224.524      156.743       91.868    50411.169    24568.458     8439.733        7.918        4.171      273.661      106.282        0.151      342.193       17.426      857.784
06/10/2013  20:34:00     -440.574      -66.428      -35.112      241.338      143.437       93.979    58243.955    20574.236     8832.096       14.368        4.383      445.554      111.624        0.063      342.238       17.504      857.764
06/10/2013  20:35:00     -369.245     -120.605      -11.031      244.514      201.152      102.563    59787.332    40462.199    10519.162       13.087        5.538      388.442      111.538        0.082      342.205       17.450      857.758
06/10/2013  20:36:00     -345.755      -98.031      -15.133      174.204      122.755       72.907    30346.966    15068.736     5315.482        9.005        2.537      359.383       90.240        0.063      342.146       17.349      857.764
06/10/2013  20:37:00     -332.358     -153.882       -0.037      268.849      175.039      113.790    72279.554    30638.613    12948.151       12.498        5.793      366.253      142.897        0.152      342.169       17.388      857.750
06/10/2013  20:38:00     -383.486      -38.551      -28.083      208.714      160.622       85.211    43561.428    25799.406     7260.878       11.296        3.831      385.419       93.740        0.059      342.153       17.360      857.746
06/10/2013  20:39:00     -451.883     -141.897      -19.372      316.890      191.886      112.174   100419.470    36820.131    12582.931       18.724        7.491      473.638      136.676        0.083      342.278       17.572      857.718
06/10/2013  20:40:00     -471.046      -47.087        1.446      210.945      178.604      102.837    44497.595    31899.384    10575.412       15.552        4.349      473.394       94.043        0.039      342.228       17.488      857.743
06/10/2013  20:41:00     -463.642      -58.369      -17.388      243.560      182.511      110.037    59321.383    33310.231    12108.072       16.169        5.237      467.302      113.884        0.059      342.234       17.497      857.730
06/10/2013  20:42:00     -473.928      -39.499      -29.447      227.332      183.614       86.906    51679.965    33714.280     7552.609       15.997        4.647      475.572       87.715        0.034      342.234       17.498      857.748
06/10/2013  20:43:00     -394.337       25.460      -10.549      242.383      149.516       94.453    58749.701    22354.989     8921.299       12.313        4.501      395.158      111.838        0.080      342.183       17.412      857.772
06/10/2013  20:44:00     -428.763      -38.908      -10.031      193.843      139.338       79.428    37575.030    19415.183     6308.873       12.436        3.165      430.525       88.224        0.042      342.192       17.426      857.788
06/10/2013  20:45:00     -482.199     -127.749      -31.569      226.517      146.405       82.497    51310.028    21434.403     6805.778       16.468        3.978      498.835       82.412        0.027      342.191       17.425      857.810
06/10/2013  20:46:00     -453.121      -81.794      -24.606      247.285      215.154       95.741    61149.931    46291.286     9166.365       16.459        5.830      460.444      113.887        0.061      342.224       17.482      857.814
06/10/2013  20:47:00     -621.011     -133.125      -39.269      227.977      202.649       97.879    51973.508    41066.728     9580.388       25.375        5.131      635.120       87.931        0.019      342.301       17.611      857.817
06/10/2013  20:48:00     -509.022      -81.853      -14.810      291.806      157.763       97.076    85150.712    24889.152     9423.671       19.272        5.973      515.561      122.927        0.057      342.206       17.451      857.868
06/10/2013  20:49:00     -503.994      -71.109      -29.040      243.815      182.764      100.486    59445.700    33402.808    10097.456       18.141        5.147      508.986      117.938        0.054      342.213       17.462      857.889
06/10/2013  20:50:00     -678.247     -167.942      -16.857      211.255      176.612      103.589    44628.547    31191.678    10730.600       28.751        4.328      698.730      110.891        0.025      342.317       17.638      857.890
06/10/2013  20:51:00     -541.099      -89.008      -26.348      196.532      141.243       88.109    38624.977    19949.494     7763.276       18.386        3.317      548.371       84.748        0.024      342.260       17.541      857.934
06/10/2013  20:52:00     -562.562      -33.547      -40.343      195.602      166.960       82.827    38260.047    27875.639     6860.270       19.610        3.650      563.561       86.426        0.024      342.255       17.534      857.962
06/10/2013  20:53:00     -406.632     -113.528        0.207      197.589      123.370       92.525    39041.296    15220.209     8560.962       12.052        3.141      422.183       88.402        0.044      342.219       17.472      857.971
06/10/2013  20:54:00     -530.542      -33.730      -54.402      145.035      111.734       82.069    21035.228    12484.387     6735.294       16.291        2.013      531.613       74.564        0.020      342.236       17.503      857.980
06/10/2013  20:55:00     -453.566     -146.329      -19.460      135.665      141.831       67.338    18404.865    20116.048     4534.350       13.528        2.153      476.586       56.090        0.014      342.200       17.440      857.985
06/10/2013  20:56:00     -416.492      -78.258      -22.997      156.173      125.968       71.582    24389.935    15867.852     5123.960       11.274        2.269      423.780       81.224        0.037      342.209       17.454      857.992
06/10/2013  20:57:00     -399.541      -51.461      -22.933      189.917      158.564       67.024    36068.420    25142.419     4492.244       11.424        3.285      402.842       63.729        0.025      342.179       17.405      857.996
06/10/2013  20:58:00     -437.062      -18.796      -16.866      214.557      183.059       84.461    46034.875    33510.443     7133.706       13.915        4.334      437.466       95.819        0.048      342.243       17.512      857.990
06/10/2013  20:59:00     -321.542      -71.066      -15.355      122.796      104.121       54.563    15078.930    10841.282     2977.140        6.878        1.445      329.302       48.981        0.022      342.104       17.277      857.987
06/10/2013  21:00:00     -346.195      -80.858       -6.831      147.372      137.905       66.617    21718.494    19017.864     4437.819        8.580        2.259      355.512       60.384        0.029      342.125       17.311      857.986
06/10/2013  21:01:00     -381.015        3.785      -27.884      219.993      161.845       69.165    48396.852    26193.646     4783.773       11.265        3.969      381.034       84.408        0.049      342.165       17.380      857.974
06/10/2013  21:02:00     -377.808      -81.146      -26.565      205.111      159.702       87.206    42070.529    25504.632     7604.895       11.259        3.759      386.424       99.421        0.066      342.191       17.424      857.964
06/10/2013  21:03:00     -442.296       13.010      -13.928      189.641      141.991       89.329    35963.803    20161.475     7979.676       13.003        3.205      442.487       98.898        0.050      342.252       17.528      857.976
06/10/2013  21:04:00     -445.229      -60.307       -4.396      213.735      163.331       94.597    45682.553    26676.898     8948.654       14.158        4.065      449.295      106.416        0.056      342.269       17.558      857.951
06/10/2013  21:05:00     -382.474      -44.996       -8.033      180.197      149.197       80.612    32470.798    22259.604     6498.345       10.479        3.061      385.111       88.578        0.053      342.256       17.535      857.957
06/10/2013  21:06:00     -308.586     -143.333       -6.456      199.395      118.841       67.953    39758.215    14123.199     4617.611        8.714        2.925      340.250       77.292        0.052      342.239       17.507      857.960
06/10/2013  21:07:00     -469.641     -137.331      -19.617      183.633      115.670       68.041    33720.994    13379.487     4629.550       14.576        2.587      489.308       67.816        0.019      342.218       17.473      857.968
06/10/2013  21:08:00     -462.682      -30.354      -40.421      127.650      107.448       77.213    16294.517    11545.068     5961.910       12.521        1.690      463.677       71.936        0.024      342.226       17.484      857.975
06/10/2013  21:09:00     -463.998     -121.426      -15.488      150.733      121.457       67.393    22720.390    14751.734     4541.864       13.614        2.101      479.623       65.209        0.018      342.253       17.530      857.984
06/10/2013  21:10:00     -412.445      -84.688      -28.957      113.015       96.381       61.892    12772.426     9289.357     3830.643       10.200        1.295      421.050       61.854        0.022      342.215       17.467      857.970
06/10/2013  21:11:00     -311.138      -83.543      -17.357      109.752       90.395       44.885    12045.520     8171.274     2014.682        6.316        1.112      322.159       33.615        0.011      342.175       17.397      857.951
06/10/2013  21:12:00     -320.310      -98.573       -6.014      108.762      114.227       60.065    11829.215    13047.915     3607.811        7.041        1.424      335.134       52.301        0.024      342.168       17.386      857.934
06/10/2013  21:13:00     -320.130      -86.351       -0.465      119.642       92.043       68.174    14314.155     8471.892     4647.706        6.868        1.372      331.572       53.790        0.026      342.220       17.474      857.937
06/10/2013  21:14:00     -167.486      -17.375        9.522      152.456       99.450       60.127    23242.796     9890.244     3615.279        3.259        1.837      168.385       62.732        0.139      342.191       17.426      857.926
06/10/2013  21:15:00     -310.296        7.594      -26.041      166.825      124.925       56.127    27830.736    15606.284     3150.203        7.179        2.329      310.389       65.868        0.045      342.238       17.505      857.905
06/10/2013  21:16:00     -219.267        7.793      -22.271       89.938       95.884       44.863     8088.879     9193.738     2012.677        3.396        0.965      219.405       37.359        0.029      342.220       17.475      857.894
06/10/2013  21:17:00     -246.490      -79.297      -18.818       86.805      108.141       56.704     7535.115    11694.448     3215.327        4.492        1.122      258.931       28.198        0.012      342.200       17.440      857.878
06/10/2013  21:18:00     -260.146      -32.045      -30.964      178.356       75.862       56.283    31810.989     5755.103     3167.817        5.519        2.037      262.112       65.639        0.063      342.204       17.448      857.895
06/10/2013  21:19:00     -278.922     -123.130      -22.075      105.768       93.812       49.796    11186.863     8800.720     2479.678        5.795        1.123      304.891       40.676        0.018      342.229       17.489      857.914
06/10/2013  21:20:00     -159.350      -77.439       -7.813       86.249       61.779       48.853     7438.973     3816.650     2386.620        2.254        0.682      177.170       31.970        0.033      342.168       17.387      857.909
06/10/2013  21:21:00     -147.991      -34.867       -9.170       70.136      102.872       47.697     4919.003    10582.562     2275.025        2.049        0.889      152.043       34.209        0.051      342.191       17.425      857.905
06/10/2013  21:22:00     -170.093      -11.123      -23.150      123.670       71.786       60.346    15294.370     5153.194     3641.622        2.684        1.204      170.457       62.413        0.134      342.185       17.416      857.912
06/10/2013  21:23:00     -196.940       32.898       -4.944      179.709      134.068       62.559    32295.495    17974.298     3913.616        4.703        2.709      199.669       73.837        0.137      342.190       17.424      857.896
06/10/2013  21:24:00     -396.095     -170.733      -26.585      197.415      151.834       78.024    38972.874    23053.487     6087.697       12.742        3.406      431.325       84.448        0.038      342.329       17.659      857.876
06/10/2013  21:25:00     -357.928      -55.597      -29.123      172.151      126.141       55.226    29636.062    15911.505     3049.870        9.031        2.430      362.220       37.232        0.011      342.306       17.622      857.867
06/10/2013  21:26:00     -214.018       75.149      -17.235       85.287       79.050       40.208     7273.898     6248.948     1616.693        3.344        0.757      226.828       35.435        0.024      342.252       17.528      857.872
06/10/2013  21:27:00     -296.212      -81.299      -12.349      189.118      156.496       68.136    35765.727    24491.131     4642.517        7.969        3.245      307.167       67.077        0.048      342.304       17.617      857.877
06/10/2013  21:28:00     -352.546      -50.728      -22.764      105.666      137.131       55.782    11165.224    18804.883     3111.582        8.022        1.654      356.176       42.515        0.014      342.305       17.617      857.869
06/10/2013  21:29:00     -240.441      -57.714       -9.379      140.004      135.584       65.372    19601.033    18383.051     4273.537        5.174        2.113      247.271       66.964        0.073      342.294       17.601      857.861
06/10/2013  21:30:00     -336.651      -80.200      -32.173      159.707      110.515       60.801    25506.243    12213.554     3696.730        8.110        2.071      346.072       65.930        0.036      342.324       17.651      857.863
06/10/2013  21:31:00     -292.901      -19.490      -19.037      145.824      105.836       54.840    21264.537    11201.315     3007.431        6.100        1.774      293.549       66.411        0.051      342.283       17.581      857.874
06/10/2013  21:32:00     -149.716      -18.478        3.801      153.609      107.957       64.438    23595.578    11654.815     4152.315        3.108        1.970      150.852       74.181        0.242      342.262       17.547      857.897
06/10/2013  21:33:00     -319.565      -52.298      -13.089      185.513       82.051       60.072    34414.908     6732.419     3608.616        7.488        2.238      323.816       74.955        0.054      342.342       17.682      857.887
06/10/2013  21:34:00     -174.959      -31.514      -10.259       75.233       76.772       29.649     5659.942     5893.923      879.072        2.207        0.622      177.774       18.976        0.011      342.317       17.639      857.928
06/10/2013  21:35:00      -95.400     -104.800        4.573       98.676       75.592       43.841     9736.967     5714.173     1922.032        1.874        0.869      141.719       45.759        0.104      342.270       17.560      857.932
06/10/2013  21:36:00     -109.710      -52.789        9.268      122.359       91.806       51.878    14971.820     8428.420     2691.363        2.049        1.305      121.749       65.757        0.292      342.313       17.634      857.942
06/10/2013  21:37:00     -207.354      -55.683      -10.574       97.935      145.153       54.343     9591.272    21069.360     2953.203        3.990        1.681      214.700       40.184        0.035      342.357       17.708      857.961
06/10/2013  21:38:00     -266.263     -153.167      -12.901      156.131      139.848       70.029    24376.852    19557.398     4904.033        7.167        2.442      307.175       50.458        0.027      342.414       17.804      857.958
06/10/2013  21:39:00     -103.251      -41.618        6.649       89.134       93.413       33.860     7944.879     8725.926     1146.508        1.512        0.891      111.323       35.434        0.101      342.353       17.700      858.007
06/10/2013  21:40:00     -167.576     -196.664        9.705      130.061      103.047       60.314    16915.772    10618.618     3637.734        4.901        1.559      258.377       48.603        0.035      342.371       17.731      858.028
06/10/2013  21:41:00     -154.074      -94.577        9.002      104.160      109.595       63.535    10849.283    12010.980     4036.637        2.983        1.345      180.786       56.279        0.097      342.359       17.710      858.061
06/10/2013  21:42:00     -103.251      -59.903       45.201      144.363      130.980       89.152    20840.633    17155.793     7948.144        3.111        2.297      119.370      101.238        0.719      342.400       17.781      858.095
06/10/2013  21:43:00     -387.314     -139.997       -8.984      167.703      137.592       78.615    28124.311    18931.676     6180.337       11.145        2.662      411.839       73.466        0.032      342.477       17.911      858.147
06/10/2013  21:44:00     -287.788      -28.879      -28.987       90.661      130.756       39.421     8219.391    17097.124     1554.048        5.568        1.344      289.233       15.248        0.003      342.451       17.866      858.167
06/10/2013  21:45:00     -178.768      -37.511       -4.599       98.994       84.185       43.770     9799.867     7087.042     1915.819        2.609        0.940      182.661       43.300        0.056      342.401       17.782      858.202
06/10/2013  21:46:00      -42.636      -29.486        2.591       67.307       84.886       37.778     4530.184     7205.571     1427.148        0.793        0.658       51.839       29.432        0.322      342.381       17.749      858.222
06/10/2013  21:47:00     -161.927     -110.522        8.587      142.793      110.296       57.555    20389.746    12165.283     3312.557        3.718        1.793      196.050       54.002        0.076      342.431       17.834      858.233
06/10/2013  21:48:00      -62.147      -45.960        7.662       47.787       46.912       24.695     2283.631     2200.734      609.865        0.556        0.255       77.295       22.969        0.088      342.416       17.810      858.253
06/10/2013  21:49:00     -102.325     -119.568        5.586      104.174       70.800       42.859    10852.160     5012.634     1836.895        2.125        0.885      157.375       40.445        0.066      342.437       17.845      858.260
06/10/2013  21:50:00     -140.381     -107.177        4.510       94.164       91.583       39.551     8866.794     8387.367     1564.319        2.501        0.941      176.617       44.213        0.063      342.419       17.813      858.278
06/10/2013  21:51:00      -72.952     -151.564        1.542       80.268       72.191       36.310     6442.976     5211.506     1318.449        2.063        0.649      168.207       38.377        0.052      342.428       17.831      858.305
06/10/2013  21:52:00      -83.978     -112.884       12.872       85.791       66.864       48.097     7360.082     4470.802     2313.281        1.705        0.707      140.695       48.095        0.117      342.439       17.847      858.337
06/10/2013  21:53:00      -83.737     -110.676        0.342       76.404       73.567       45.407     5837.541     5412.087     2061.808        1.628        0.666      138.784       33.253        0.057      342.453       17.873      858.340
06/10/2013  21:54:00     -144.526     -116.726       -2.124       83.901       95.086       44.280     7039.346     9041.395     1960.707        2.628        0.902      185.776       33.908        0.033      342.434       17.838      858.377
06/10/2013  21:55:00       -6.515      -44.778        3.191       51.631       68.965       36.168     2665.710     4756.135     1308.149        0.539        0.436       45.249       34.324        0.575      342.301       17.616      858.365
06/10/2013  21:56:00        7.333      -39.755       13.295       34.924       86.058       34.121     1219.704     7405.991     1164.234        0.580        0.489       40.425       26.755        0.438      342.380       17.747      858.399
06/10/2013  21:57:00      -25.279     -130.124       10.414       45.801      129.542       45.099     2097.755    16781.249     2033.879        1.929        1.046      132.557       17.082        0.017      342.400       17.781      858.363
06/10/2013  21:58:00     -159.184        7.003      -18.192       95.290       95.296       38.697     9080.136     9081.421     1497.444        2.269        0.983      159.338       37.205        0.055      342.496       17.946      858.371
06/10/2013  21:59:00      -83.642       42.005       -3.625       69.057      100.004       39.798     4768.850    10000.735     1583.857        1.256        0.818       93.597       31.427        0.113      342.443       17.856      858.388
06/10/2013  22:00:00      -11.567      -61.956        4.051       31.252       50.013       20.772      976.687     2501.287      431.456        0.395        0.195       63.026       24.010        0.145      342.396       17.776      858.409
06/10/2013  22:01:00     -125.370       -8.015        5.057       72.703       54.540       28.001     5285.787     2974.638      784.043        1.242        0.452      125.625       28.812        0.053      342.388       17.762      858.418
06/10/2013  22:02:00     -228.114      -21.642      -32.352       94.709       49.204       42.421     8969.706     2421.071     1799.541        3.337        0.660      229.139       36.147        0.025      342.423       17.821      858.392
06/10/2013  22:03:00     -130.046       24.859      -23.315       49.696       36.212       15.993     2469.652     1311.337      255.780        1.105        0.202      132.401        9.239        0.005      342.422       17.818      858.419
06/10/2013  22:04:00      -34.949       40.313       -8.246       32.702       12.229       15.253     1069.448      149.543      232.664        0.218        0.073       53.353       14.043        0.069      342.368       17.729      858.415
06/10/2013  22:05:00      -56.090       65.137       -9.067       30.589       21.663       16.514      935.694      469.285      272.726        0.457        0.084       85.959       13.879        0.026      342.395       17.775      858.432
06/10/2013  22:06:00      -62.031       71.873      -10.818       26.753       34.187       19.280      715.746     1168.724      371.711        0.569        0.113       94.940       20.029        0.045      342.378       17.744      858.429
06/10/2013  22:07:00      -55.338       74.128      -15.437       29.683       28.527       17.675      881.090      813.767      312.395        0.540        0.100       92.505       12.637        0.019      342.359       17.713      858.415
06/10/2013  22:08:00      -89.836      102.476      -11.313       40.464       33.371       23.056     1637.328     1113.637      531.581        1.099        0.164      136.279       23.232        0.029      342.327       17.658      858.414
06/10/2013  22:09:00     -111.131       73.154      -11.129       39.419       48.447       29.221     1553.823     2347.082      853.863        1.129        0.238      133.047       29.064        0.048      342.301       17.614      858.391
06/10/2013  22:10:00      -79.551       90.695      -12.841       45.207       45.845       25.901     2043.694     2101.735      670.857        0.977        0.241      120.640       22.270        0.034      342.364       17.721      858.387
06/10/2013  22:11:00     -132.477       21.671      -14.376       71.915       54.003       31.961     5171.736     2916.281     1021.474        1.367        0.455      134.238       35.662        0.071      342.293       17.600      858.373
06/10/2013  22:12:00     -159.935       10.195      -11.674      103.430       70.753       39.922    10697.853     5005.993     1593.757        2.155        0.865      160.259       42.098        0.069      342.300       17.610      858.390
06/10/2013  22:13:00      -25.789       15.425        1.043       42.835       59.269       28.788     1834.813     3512.794      828.743        0.354        0.309       30.050       21.900        0.531      342.208       17.458      858.396
06/10/2013  22:14:00       -5.709       -4.043        6.423       34.439       40.143       28.394     1186.041     1611.453      806.243        0.185        0.180        6.996       24.317       12.083      342.235       17.503      858.371
06/10/2013  22:15:00      -92.610      -17.006        2.932       72.577       55.560       48.842     5267.414     3086.881     2385.531        0.980        0.537       94.159       48.350        0.264      342.301       17.615      858.368
06/10/2013  22:16:00      -17.501      -18.026       -5.943       50.603       38.188       36.531     2560.619     1458.309     1334.549        0.301        0.268       25.124       25.772        1.052      342.288       17.593      858.370
06/10/2013  22:17:00        4.500      -24.286       -6.651       24.001       44.298       26.708      576.054     1962.326      713.295        0.195        0.163       24.700       28.413        1.323      342.217       17.472      858.360
06/10/2013  22:18:00      -88.117      -36.157      -16.633      124.861       40.295       37.356    15590.277     1623.699     1395.456        1.398        0.930       95.247       50.181        0.278      342.210       17.460      858.364
06/10/2013  22:19:00     -251.890        4.534      -15.272       85.346       92.400       52.798     7283.955     8537.777     2787.587        4.115        0.930      251.931       42.995        0.029      342.244       17.513      858.368
06/10/2013  22:20:00      -80.961       -1.901       -1.722       80.283       44.332       24.392     6445.376     1965.332      594.950        0.778        0.450       80.984       31.672        0.153      342.206       17.453      858.336
06/10/2013  22:21:00     -141.098      -17.847      -13.730       58.254       52.604       28.316     3393.583     2767.192      801.778        1.369        0.348      142.223       19.580        0.019      342.216       17.471      858.349
06/10/2013  22:22:00     -136.389      -40.155      -12.455       59.806       49.653       26.366     3576.805     2465.394      695.157        1.355        0.337      142.177       27.347        0.037      342.200       17.442      858.339
06/10/2013  22:23:00     -156.354      -34.590       -6.728       61.796       74.873       36.124     3818.762     5606.035     1304.972        1.821        0.536      160.134       34.116        0.045      342.231       17.494      858.335
06/10/2013  22:24:00     -183.393      -18.721      -15.481       70.300       55.073       24.710     4942.126     3033.059      610.599        2.140        0.429      184.346       25.598        0.019      342.202       17.445      858.327
06/10/2013  22:25:00     -181.128      -64.413       -3.936       87.508       70.479       46.962     7657.682     4967.233     2205.415        2.590        0.742      192.241       49.300        0.066      342.254       17.532      858.331
06/10/2013  22:26:00     -198.780      -27.450      -13.692       76.813       72.772       35.705     5900.275     5295.808     1274.813        2.646        0.624      200.667       40.004        0.040      342.261       17.544      858.371
06/10/2013  22:27:00     -123.123       27.920       -7.286       55.002       55.257       31.205     3025.235     3053.378      973.744        1.152        0.353      126.249       23.201        0.034      342.315       17.637      858.329
06/10/2013  22:28:00     -195.925      -36.345      -10.641       73.444       52.809       38.225     5394.078     2788.782     1461.177        2.473        0.482      199.268       33.635        0.028      342.339       17.677      858.347
06/10/2013  22:29:00     -216.558      -14.340       -1.851      112.874       98.776       53.154    12740.462     9756.687     2825.322        3.621        1.266      217.032       50.475        0.054      342.419       17.811      858.328
06/10/2013  22:30:00     -180.534      -22.824       -5.777       69.900       72.999       34.110     4885.983     5328.827     1163.470        2.226        0.569      181.971       34.762        0.036      342.478       17.914      858.316
06/10/2013  22:31:00     -140.789      -31.129       -1.847       72.056       69.390       40.154     5192.122     4815.003     1612.335        1.620        0.581      144.190       40.185        0.078      342.437       17.844      858.341
06/10/2013  22:32:00     -122.970      -49.720       -5.858       43.551       47.170       25.808     1896.733     2225.003      666.027        1.121        0.239      132.641       26.086        0.039      342.409       17.798      858.350
06/10/2013  22:33:00     -139.474        1.749       -4.801       47.598       51.269       25.743     2265.610     2628.481      662.712        1.252        0.278      139.485       21.888        0.025      342.420       17.815      858.346
06/10/2013  22:34:00     -165.212       22.467       -8.854       47.659       40.235       19.699     2271.385     1618.878      388.054        1.608        0.214      166.732       16.999        0.010      342.404       17.788      858.338
06/10/2013  22:35:00     -181.899      -32.080      -14.769       77.784       68.267       38.464     6050.309     4660.347     1479.475        2.326        0.610      184.706       38.134        0.043      342.448       17.863      858.331
06/10/2013  22:36:00     -111.016      -39.807       -4.795       68.112       60.256       28.886     4639.192     3630.761      834.400        1.152        0.455      117.937       20.130        0.029      342.417       17.810      858.334
06/10/2013  22:37:00     -175.641        3.648      -12.166      100.192       77.144       38.970    10038.536     5951.246     1518.622        2.426        0.875      175.679       33.302        0.036      342.361       17.716      858.341
06/10/2013  22:38:00     -297.604      -37.135      -17.637      148.662      141.821       64.941    22100.335    20113.236     4217.304        6.834        2.322      299.912       80.063        0.071      342.404       17.787      858.321
06/10/2013  22:39:00     -227.701      -43.892       -7.124      137.013       81.718       53.299    18772.661     6677.900     2840.735        4.105        1.415      231.893       60.424        0.068      342.433       17.837      858.330
06/10/2013  22:40:00     -344.775      -31.671      -35.467      160.250      107.439       65.282    25679.931    11543.084     4261.755        8.130        2.074      346.227       74.434        0.046      342.535       18.008      858.340
06/10/2013  22:41:00     -243.997     -101.301       -5.075      106.746      110.952       53.013    11394.620    12310.401     2810.373        4.816        1.326      264.190       50.800        0.037      342.435       17.840      858.349
06/10/2013  22:42:00     -259.012      -96.783        5.167      130.794       98.147       54.992    17107.064     9632.840     3024.075        5.312        1.488      276.503       53.548        0.038      342.482       17.919      858.333
06/10/2013  22:43:00     -241.795       -3.489      -40.433       70.080      104.386       45.241     4911.183    10896.409     2046.768        3.898        0.893      241.820       37.496        0.024      342.492       17.936      858.329
06/10/2013  22:44:00     -200.872      -36.849      -10.520       61.588       67.048       37.811     3793.087     4495.382     1429.703        2.577        0.486      204.224       20.142        0.010      342.409       17.796      858.308
06/10/2013  22:45:00     -152.034      -41.782      -12.256       64.963       84.305       42.919     4220.246     7107.379     1842.038        1.909        0.658      157.671       34.352        0.047      342.372       17.732      858.299
06/10/2013  22:46:00     -222.262      -64.251       -7.248       72.589       83.638       44.686     5269.189     6995.262     1996.811        3.392        0.713      231.362       36.418        0.025      342.365       17.718      858.304
06/10/2013  22:47:00     -220.909      -75.851      -24.468       73.866       66.908       41.287     5456.218     4476.729     1704.648        3.339        0.582      233.568       31.352        0.018      342.346       17.688      858.282
06/10/2013  22:48:00     -266.140      -93.834      -22.181       96.868       70.498       43.158     9383.479     4969.978     1862.636        4.817        0.811      282.197       42.955        0.023      342.353       17.700      858.252
06/10/2013  22:49:00     -307.285      -38.920      -16.010      133.347       81.006       54.526    17781.324     6561.969     2973.041        6.175        1.366      309.740       55.654        0.032      342.395       17.771      858.224
06/10/2013  22:50:00     -284.444     -116.782        4.264      108.094      103.612       59.015    11684.317    10735.359     3482.819        6.023        1.295      307.484       56.075        0.033      342.481       17.918      858.233
06/10/2013  22:51:00     -294.332      -56.204      -16.212      127.799       81.946       53.636    16332.619     6715.160     2876.770        5.798        1.296      299.650       47.563        0.025      342.502       17.954      858.231
06/10/2013  22:52:00     -372.022       26.037      -38.528      119.707       98.488       66.953    14329.804     9699.980     4482.741        8.453        1.426      372.932       60.962        0.027      342.512       17.971      858.258
06/10/2013  22:53:00     -313.808       -8.741      -36.627       86.111       78.011       46.290     7415.129     6085.698     2142.775        5.777        0.782      313.930       35.243        0.013      342.457       17.877      858.278
06/10/2013  22:54:00     -233.838      -73.566      -15.875       73.779       79.815       42.767     5443.414     6370.421     1829.052        3.699        0.682      245.137       34.942        0.020      342.471       17.900      858.293
06/10/2013  22:55:00     -303.000      -25.947      -23.754       90.776       72.678       43.754     8240.262     5282.128     1914.423        5.424        0.772      304.109       38.710        0.016      342.588       18.100      858.295
06/10/2013  22:56:00     -163.874        3.143       -1.158       60.500       62.212       38.274     3660.302     3870.379     1464.896        1.793        0.450      163.904       33.848        0.043      342.464       17.893      858.293
06/10/2013  22:57:00      -95.792       13.324      -16.069       50.788       54.333       29.254     2579.471     2952.078      855.826        0.800        0.319       96.714       22.927        0.056      342.422       17.819      858.290
06/10/2013  22:58:00     -167.312      -47.251      -11.377       80.978       84.882       44.357     6557.418     7205.004     1967.549        2.304        0.786      173.856       36.986        0.045      342.369       17.729      858.302
06/10/2013  22:59:00     -163.694       19.922       -3.536       88.944      120.274       48.780     7911.024    14465.812     2379.473        2.598        1.238      164.902       47.960        0.085      342.435       17.840      858.316
06/10/2013  23:00:00     -247.059       59.199      -17.771      121.299       63.910       53.746    14713.547     4084.460     2888.627        4.327        1.084      254.052       50.814        0.040      342.486       17.924      858.305
06/10/2013  23:01:00     -299.072      -43.767      -17.762       86.699       68.444       49.320     7516.645     4684.636     2432.441        5.315        0.732      302.258       48.887        0.026      342.572       18.072      858.306
06/10/2013  23:02:00     -205.627       -6.104      -16.615      114.817       67.556       39.923    13183.000     4563.831     1593.858        3.096        0.967      205.718       45.230        0.048      342.514       17.975      858.317
06/10/2013  23:03:00     -277.186      -22.883      -32.415       77.833       78.609       32.887     6057.948     6179.430     1081.573        4.586        0.666      278.129       25.862        0.009      342.505       17.959      858.331
06/10/2013  23:04:00     -252.831      -55.627      -25.270       88.860       86.374       41.578     7896.178     7460.500     1728.734        4.237        0.854      258.878       33.160        0.016      342.500       17.949      858.325
06/10/2013  23:05:00     -171.308      -13.657       -8.287       86.538       81.482       52.843     7488.882     6639.348     2792.379        2.326        0.846      171.851       31.983        0.035      342.529       18.000      858.310
06/10/2013  23:06:00      -99.412      -43.010      -18.429       72.257       58.963       34.267     5221.073     3476.691     1174.246        1.097        0.494      108.317       26.343        0.059      342.427       17.828      858.330
06/10/2013  23:07:00     -133.140      -40.576      -18.664       88.422       57.211       37.635     7818.363     3273.090     1416.401        1.611        0.625      139.186       40.370        0.084      342.412       17.801      858.328
06/10/2013  23:08:00     -110.413      -18.562      -25.852       95.356       35.763       33.621     9092.712     1279.028     1130.405        1.235        0.575      111.963       36.143        0.104      342.413       17.803      858.337
06/10/2013  23:09:00     -209.178     -106.189      -15.736       80.822       62.504       46.971     6532.249     3906.791     2206.319        3.396        0.632      234.588       38.559        0.027      342.397       17.774      858.347
06/10/2013  23:10:00     -284.504        8.911      -22.864      113.758       83.793       55.626    12940.875     7021.265     3094.280        5.230        1.153      284.643       58.381        0.042      342.593       18.110      858.317
06/10/2013  23:11:00     -263.132      -23.279      -19.368      106.334       72.843       46.212    11307.018     5306.140     2135.523        4.445        0.937      264.159       42.208        0.026      342.463       17.887      858.320
06/10/2013  23:12:00     -344.307      -37.504      -16.584      155.408      119.982       57.549    24151.750    14395.693     3311.846        8.104        2.093      346.344       69.518        0.040      342.622       18.156      858.308
06/10/2013  23:13:00     -250.984      -10.141      -27.325       97.986      100.221       47.428     9601.288    10044.186     2249.395        4.286        1.095      251.188       44.696        0.032      342.509       17.965      858.337
06/10/2013  23:14:00     -409.372      -26.940      -33.981      157.260      114.587       71.206    24730.642    13130.231     5070.303       10.619        2.147      410.258       87.029        0.045      342.691       18.274      858.333
06/10/2013  23:15:00     -237.747       17.395       -4.419      197.480      132.935       62.350    38998.344    17671.634     3887.559        5.869        3.028      238.382       69.461        0.085      342.685       18.265      858.295
06/10/2013  23:16:00     -455.373     -114.138      -19.768      181.915      154.280       83.190    33093.113    23802.325     6920.528       14.229        3.191      469.459       92.320        0.039      342.770       18.409      858.277
06/10/2013  23:17:00     -394.073      -78.193      -26.127       90.805      124.734       60.952     8245.516    15558.637     3715.179        9.480        1.376      401.756       44.412        0.012      342.732       18.345      858.290
06/10/2013  23:18:00     -202.765      -89.535      -20.159      116.182       80.586       52.581    13498.243     6494.089     2764.735        3.614        1.138      221.653       43.661        0.039      342.688       18.270      858.307
06/10/2013  23:19:00     -386.282       12.288      -17.488      186.410      154.600       68.544    34748.557    23901.203     4698.278       10.650        3.167      386.477       71.626        0.034      342.716       18.316      858.334
06/10/2013  23:20:00     -420.576       -4.806      -26.069      117.324      137.533       72.315    13764.853    18915.219     5229.477       10.774        1.895      420.604       59.564        0.020      342.765       18.401      858.297
06/10/2013  23:21:00     -409.508      -41.534      -15.386      164.847      151.079       67.266    27174.527    22824.884     4524.734       11.208        2.726      411.609       63.641        0.024      342.742       18.362      858.312
06/10/2013  23:22:00     -314.741     -108.751      -25.251      156.620      100.059       58.425    24529.911    10011.826     3413.515        7.473        1.898      332.999       46.805        0.020      342.669       18.237      858.332
06/10/2013  23:23:00     -371.361      -25.376      -10.768      173.142      124.443       74.977    29978.042    15486.077     5621.497        9.487        2.554      372.227       83.481        0.050      342.767       18.405      858.333
06/10/2013  23:24:00     -397.777      -16.886      -15.920      194.066      128.705       85.878    37661.498    16564.992     7375.092       11.017        3.080      398.136      108.759        0.075      342.793       18.449      858.303
06/10/2013  23:25:00     -388.540      -53.486      -19.207      167.572      161.622       78.159    28080.359    26121.807     6108.902       10.724        3.016      392.204       82.744        0.045      342.809       18.476      858.304
06/10/2013  23:26:00     -331.374      -25.465      -27.032      147.741      122.887       69.571    21827.372    15101.236     4840.175        7.647        2.088      332.352       65.726        0.039      342.772       18.411      858.330
06/10/2013  23:27:00     -337.576      -64.292      -20.125      136.212      121.598       65.672    18553.663    14785.994     4312.750        7.807        1.883      343.644       60.871        0.031      342.800       18.461      858.305
06/10/2013  23:28:00     -298.833     -112.171      -13.160      116.705      114.924       55.123    13620.032    13207.594     3038.596        6.596        1.493      319.192       44.590        0.020      342.766       18.401      858.326
06/10/2013  23:29:00     -246.132     -112.060       -1.321      169.751      127.813       72.537    28815.311    16336.211     5261.629        6.177        2.521      270.441       84.104        0.097      342.736       18.353      858.342
06/10/2013  23:30:00     -214.128      -94.890        6.651      167.102      115.579       88.828    27923.043    13358.576     7890.330        5.203        2.459      234.212       87.340        0.139      342.823       18.498      858.330
06/10/2013  23:31:00     -266.040     -103.112      -14.116      133.947       85.346       59.098    17941.793     7283.944     3492.592        5.516        1.436      285.323       60.355        0.045      342.796       18.454      858.358
06/10/2013  23:32:00     -268.680       -1.851      -14.646      154.218      129.918       54.235    23783.134    16878.602     2941.485        5.800        2.180      268.687       56.629        0.044      342.778       18.422      858.356
06/10/2013  23:33:00     -204.334       14.371      -27.441       94.432       81.409       44.893     8917.468     6627.415     2015.397        3.013        0.878      204.839       29.995        0.021      342.735       18.350      858.364
06/10/2013  23:34:00     -201.302      -32.290        0.405      130.452       67.718       49.825    17017.691     4585.762     2482.569        3.282        1.204      203.876       55.612        0.074      342.633       18.179      858.373
06/10/2013  23:35:00     -279.752      -93.831      -37.884      110.116       74.170       57.527    12125.469     5501.152     3309.374        5.471        1.047      295.069       60.417        0.042      342.703       18.295      858.377
06/10/2013  23:36:00     -330.100      -78.565      -28.218      128.283      173.846       60.502    16456.509    30222.466     3660.524        8.313        2.517      339.321       57.613        0.029      342.761       18.395      858.369
06/10/2013  23:37:00     -351.027        7.397      -50.596      129.860      132.628       66.297    16863.739    17590.301     4395.303        8.233        1.942      351.105       44.359        0.016      342.764       18.398      858.378
06/10/2013  23:38:00     -285.652      -23.151      -16.556      108.521       80.248       41.627    11776.895     6439.710     1732.842        5.117        0.997      286.589       47.104        0.027      342.688       18.270      858.389
06/10/2013  23:39:00     -142.429      -20.550       -2.714       70.777       71.959       42.269     5009.402     5178.071     1786.711        1.634        0.599      143.904       39.927        0.077      342.578       18.086      858.406
06/10/2013  23:40:00     -168.216      -36.222       -3.301       74.357       55.186       32.813     5528.902     3045.523     1076.662        1.963        0.483      172.071       39.149        0.052      342.556       18.047      858.421
06/10/2013  23:41:00     -154.416      -23.813      -13.194       48.279       49.374       27.407     2330.829     2437.813      751.164        1.505        0.276      156.242       26.103        0.028      342.550       18.039      858.410
06/10/2013  23:42:00     -142.757      -38.004       11.759       63.077       65.603       35.350     3978.650     4303.698     1249.623        1.575        0.477      147.729       27.118        0.034      342.522       17.990      858.422
06/10/2013  23:43:00     -139.011      -44.797       -6.895       59.274       41.565       31.573     3513.425     1727.639      996.829        1.381        0.312      146.051       30.968        0.045      342.575       18.079      858.433
06/10/2013  23:44:00     -135.677      -40.696       -5.899       51.348       46.367       26.067     2636.619     2149.898      679.469        1.278        0.273      141.649       22.532        0.025      342.527       17.999      858.446
06/10/2013  23:45:00     -123.249      -55.183        6.107       44.360       45.331       30.289     1967.767     2054.916      917.448        1.161        0.247      135.039       24.647        0.033      342.647       18.201      858.442
06/10/2013  23:46:00      -92.372      -11.124       -1.411       34.736       27.632       21.567     1206.559      763.545      465.149        0.555        0.122       93.040       15.743        0.029      342.545       18.029      858.461
06/10/2013  23:47:00      -25.634       -9.286        1.035       23.805       20.320       10.360      566.675      412.891      107.322        0.092        0.054       27.264        7.827        0.082      342.457       17.880      858.467
06/10/2013  23:48:00      -23.155       24.924        1.915       24.514       19.678       14.131      600.923      387.234      199.687        0.117        0.059       34.020       15.109        0.197      342.448       17.865      858.445
06/10/2013  23:49:00     -119.022       31.680       -4.866       50.267       19.586       16.148     2526.768      383.630      260.744        0.918        0.159      123.166       11.831        0.009      342.507       17.965      858.485
06/10/2013  23:50:00     -106.483       41.341       -3.470       34.180       27.474       16.719     1168.242      754.834      279.538        0.763        0.110      114.226        8.529        0.006      342.630       18.176      858.487
06/10/2013  23:51:00      -24.322       58.367        4.595       33.892       41.813       27.464     1148.657     1748.360      754.251        0.383        0.183       63.232       18.950        0.090      342.460       17.884      858.454
06/10/2013  23:52:00      -52.134       16.579       -2.669       28.762       24.001       16.128      827.257      576.029      260.128        0.233        0.083       54.707        9.302        0.029      342.466       17.898      858.437
06/10/2013  23:53:00      -52.234      -32.377       -2.587       29.901       34.385       17.676      894.090     1182.324      312.443        0.309        0.119       61.454        6.494        0.011      342.452       17.871      858.436
06/10/2013  23:54:00      -70.166       18.787       -7.658       44.211       16.506       15.877     1954.597      272.464      252.091        0.391        0.124       72.637       11.698        0.026      342.391       17.768      858.407
06/10/2013  23:55:00     -110.403       32.740       -1.803       58.265       30.452       25.256     3394.831      927.297      637.884        0.911        0.248      115.155       18.194        0.025      342.481       17.922      858.407
06/10/2013  23:56:00      -24.250      -30.652        7.300       34.936       31.712       22.889     1220.507     1005.622      523.904        0.216        0.138       39.085       20.531        0.276      342.503       17.958      858.395
06/10/2013  23:57:00     -105.897       15.444       -5.780       63.631       38.819       18.484     4048.912     1506.888      341.677        0.869        0.295      107.017       14.343        0.018      342.481       17.920      858.392
06/10/2013  23:58:00     -209.994      -86.966      -14.123       46.779       54.313       29.493     2188.244     2949.873      869.850        2.893        0.300      227.289       21.344        0.009      342.425       17.823      858.378
06/10/2013  23:59:00      -97.493      -38.855       -8.923       98.628       39.576       34.164     9727.395     1566.284     1167.154        1.178        0.623      104.951       40.745        0.151      342.410       17.801      858.387
